<?xml version="1.0" encoding="UTF-8" standalone="no" ?>
<gpx xmlns="http://www.topografix.com/GPX/1/1" xmlns:xsi="http://www.w3.org/2001/XMLSchema-instance" xsi:schemaLocation="http://www.topografix.com/GPX/1/1 http://www.topografix.com/GPX/1/1/gpx.xsd" version="1.1" creator="VisuGPX - https://www.visugpx.com">
  <metadata>
    <name>Taillon</name>
    <desc><![CDATA[description à venir
[url][/url]
[img][/img]]]></desc>
  </metadata>
  <trk>
    <name><![CDATA[Taillon]]></name>
    <trkseg>
      <trkpt lat="42.72723" lon="-0.04084">
        <ele>1830</ele>
        <time>2015-05-09T05:11:41Z</time>
      </trkpt>
      <trkpt lat="42.72721" lon="-0.04093">
        <ele>1830</ele>
        <time>2015-05-09T05:12:01Z</time>
      </trkpt>
      <trkpt lat="42.72716" lon="-0.04091">
        <ele>1833</ele>
        <time>2015-05-09T05:12:10Z</time>
      </trkpt>
      <trkpt lat="42.72716" lon="-0.04091">
        <ele>1836</ele>
        <time>2015-05-09T05:12:11Z</time>
      </trkpt>
      <trkpt lat="42.72716" lon="-0.04093">
        <ele>1842</ele>
        <time>2015-05-09T05:12:13Z</time>
      </trkpt>
      <trkpt lat="42.72718" lon="-0.04094">
        <ele>1848</ele>
        <time>2015-05-09T05:12:15Z</time>
      </trkpt>
      <trkpt lat="42.72718" lon="-0.04094">
        <ele>1853</ele>
        <time>2015-05-09T05:12:17Z</time>
      </trkpt>
      <trkpt lat="42.72718" lon="-0.04095">
        <ele>1858</ele>
        <time>2015-05-09T05:12:19Z</time>
      </trkpt>
      <trkpt lat="42.72719" lon="-0.041">
        <ele>1862</ele>
        <time>2015-05-09T05:12:21Z</time>
      </trkpt>
      <trkpt lat="42.72719" lon="-0.04101">
        <ele>1867</ele>
        <time>2015-05-09T05:12:23Z</time>
      </trkpt>
      <trkpt lat="42.72719" lon="-0.04101">
        <ele>1870</ele>
        <time>2015-05-09T05:12:25Z</time>
      </trkpt>
      <trkpt lat="42.72718" lon="-0.04102">
        <ele>1874</ele>
        <time>2015-05-09T05:12:27Z</time>
      </trkpt>
      <trkpt lat="42.72718" lon="-0.04101">
        <ele>1879</ele>
        <time>2015-05-09T05:12:30Z</time>
      </trkpt>
      <trkpt lat="42.72718" lon="-0.04101">
        <ele>1883</ele>
        <time>2015-05-09T05:12:33Z</time>
      </trkpt>
      <trkpt lat="42.72718" lon="-0.04101">
        <ele>1887</ele>
        <time>2015-05-09T05:12:36Z</time>
      </trkpt>
      <trkpt lat="42.72719" lon="-0.04101">
        <ele>1892</ele>
        <time>2015-05-09T05:12:40Z</time>
      </trkpt>
      <trkpt lat="42.72719" lon="-0.04101">
        <ele>1892</ele>
        <time>2015-05-09T05:12:41Z</time>
      </trkpt>
      <trkpt lat="42.7272" lon="-0.04101">
        <ele>1894</ele>
        <time>2015-05-09T05:12:44Z</time>
      </trkpt>
      <trkpt lat="42.7272" lon="-0.041">
        <ele>1897</ele>
        <time>2015-05-09T05:12:48Z</time>
      </trkpt>
      <trkpt lat="42.72721" lon="-0.04102">
        <ele>1901</ele>
        <time>2015-05-09T05:12:53Z</time>
      </trkpt>
      <trkpt lat="42.72721" lon="-0.04102">
        <ele>1901</ele>
        <time>2015-05-09T05:12:54Z</time>
      </trkpt>
      <trkpt lat="42.72721" lon="-0.04102">
        <ele>1904</ele>
        <time>2015-05-09T05:12:59Z</time>
      </trkpt>
      <trkpt lat="42.72721" lon="-0.04102">
        <ele>1904</ele>
        <time>2015-05-09T05:13:00Z</time>
      </trkpt>
      <trkpt lat="42.72722" lon="-0.04103">
        <ele>1906</ele>
        <time>2015-05-09T05:13:04Z</time>
      </trkpt>
      <trkpt lat="42.72721" lon="-0.04103">
        <ele>1910</ele>
        <time>2015-05-09T05:13:12Z</time>
      </trkpt>
      <trkpt lat="42.72723" lon="-0.04101">
        <ele>1913</ele>
        <time>2015-05-09T05:13:22Z</time>
      </trkpt>
      <trkpt lat="42.72724" lon="-0.04107">
        <ele>1915</ele>
        <time>2015-05-09T05:13:55Z</time>
      </trkpt>
      <trkpt lat="42.72723" lon="-0.04103">
        <ele>1914</ele>
        <time>2015-05-09T05:14:17Z</time>
      </trkpt>
      <trkpt lat="42.72723" lon="-0.04104">
        <ele>1917</ele>
        <time>2015-05-09T05:14:33Z</time>
      </trkpt>
      <trkpt lat="42.72723" lon="-0.04104">
        <ele>1917</ele>
        <time>2015-05-09T05:14:51Z</time>
      </trkpt>
      <trkpt lat="42.72721" lon="-0.04103">
        <ele>1916</ele>
        <time>2015-05-09T05:15:04Z</time>
      </trkpt>
      <trkpt lat="42.7272" lon="-0.04104">
        <ele>1917</ele>
        <time>2015-05-09T05:15:12Z</time>
      </trkpt>
      <trkpt lat="42.72713" lon="-0.04106">
        <ele>1917</ele>
        <time>2015-05-09T05:15:27Z</time>
      </trkpt>
      <trkpt lat="42.72713" lon="-0.04108">
        <ele>1917</ele>
        <time>2015-05-09T05:15:29Z</time>
      </trkpt>
      <trkpt lat="42.72704" lon="-0.0411">
        <ele>1918</ele>
        <time>2015-05-09T05:15:43Z</time>
      </trkpt>
      <trkpt lat="42.72704" lon="-0.04109">
        <ele>1918</ele>
        <time>2015-05-09T05:15:44Z</time>
      </trkpt>
      <trkpt lat="42.72693" lon="-0.04103">
        <ele>1921</ele>
        <time>2015-05-09T05:15:58Z</time>
      </trkpt>
      <trkpt lat="42.72682" lon="-0.041">
        <ele>1924</ele>
        <time>2015-05-09T05:16:12Z</time>
      </trkpt>
      <trkpt lat="42.7267" lon="-0.04102">
        <ele>1927</ele>
        <time>2015-05-09T05:16:26Z</time>
      </trkpt>
      <trkpt lat="42.7267" lon="-0.04102">
        <ele>1927</ele>
        <time>2015-05-09T05:16:31Z</time>
      </trkpt>
      <trkpt lat="42.72668" lon="-0.04103">
        <ele>1927</ele>
        <time>2015-05-09T05:16:33Z</time>
      </trkpt>
      <trkpt lat="42.72665" lon="-0.04104">
        <ele>1928</ele>
        <time>2015-05-09T05:16:36Z</time>
      </trkpt>
      <trkpt lat="42.7265" lon="-0.04099">
        <ele>1929</ele>
        <time>2015-05-09T05:16:52Z</time>
      </trkpt>
      <trkpt lat="42.72641" lon="-0.04093">
        <ele>1931</ele>
        <time>2015-05-09T05:17:06Z</time>
      </trkpt>
      <trkpt lat="42.72638" lon="-0.04095">
        <ele>1932</ele>
        <time>2015-05-09T05:17:09Z</time>
      </trkpt>
      <trkpt lat="42.7263" lon="-0.04103">
        <ele>1933</ele>
        <time>2015-05-09T05:17:19Z</time>
      </trkpt>
      <trkpt lat="42.72619" lon="-0.04115">
        <ele>1935</ele>
        <time>2015-05-09T05:17:32Z</time>
      </trkpt>
      <trkpt lat="42.72616" lon="-0.04118">
        <ele>1935</ele>
        <time>2015-05-09T05:17:37Z</time>
      </trkpt>
      <trkpt lat="42.72611" lon="-0.04125">
        <ele>1936</ele>
        <time>2015-05-09T05:17:44Z</time>
      </trkpt>
      <trkpt lat="42.7261" lon="-0.04127">
        <ele>1936</ele>
        <time>2015-05-09T05:17:46Z</time>
      </trkpt>
      <trkpt lat="42.72599" lon="-0.04139">
        <ele>1938</ele>
        <time>2015-05-09T05:18:01Z</time>
      </trkpt>
      <trkpt lat="42.72598" lon="-0.04141">
        <ele>1938</ele>
        <time>2015-05-09T05:18:03Z</time>
      </trkpt>
      <trkpt lat="42.72588" lon="-0.04153">
        <ele>1939</ele>
        <time>2015-05-09T05:18:17Z</time>
      </trkpt>
      <trkpt lat="42.72575" lon="-0.04166">
        <ele>1941</ele>
        <time>2015-05-09T05:18:32Z</time>
      </trkpt>
      <trkpt lat="42.7257" lon="-0.04172">
        <ele>1942</ele>
        <time>2015-05-09T05:18:38Z</time>
      </trkpt>
      <trkpt lat="42.72558" lon="-0.04185">
        <ele>1944</ele>
        <time>2015-05-09T05:18:54Z</time>
      </trkpt>
      <trkpt lat="42.72547" lon="-0.04198">
        <ele>1946</ele>
        <time>2015-05-09T05:19:09Z</time>
      </trkpt>
      <trkpt lat="42.72534" lon="-0.04215">
        <ele>1948</ele>
        <time>2015-05-09T05:19:26Z</time>
      </trkpt>
      <trkpt lat="42.72528" lon="-0.04219">
        <ele>1948</ele>
        <time>2015-05-09T05:19:32Z</time>
      </trkpt>
      <trkpt lat="42.72522" lon="-0.04225">
        <ele>1949</ele>
        <time>2015-05-09T05:19:38Z</time>
      </trkpt>
      <trkpt lat="42.72519" lon="-0.0423">
        <ele>1950</ele>
        <time>2015-05-09T05:19:42Z</time>
      </trkpt>
      <trkpt lat="42.72516" lon="-0.04233">
        <ele>1950</ele>
        <time>2015-05-09T05:19:46Z</time>
      </trkpt>
      <trkpt lat="42.7251" lon="-0.04239">
        <ele>1951</ele>
        <time>2015-05-09T05:19:52Z</time>
      </trkpt>
      <trkpt lat="42.725" lon="-0.04249">
        <ele>1952</ele>
        <time>2015-05-09T05:20:03Z</time>
      </trkpt>
      <trkpt lat="42.72499" lon="-0.04251">
        <ele>1953</ele>
        <time>2015-05-09T05:20:05Z</time>
      </trkpt>
      <trkpt lat="42.72486" lon="-0.04263">
        <ele>1954</ele>
        <time>2015-05-09T05:20:21Z</time>
      </trkpt>
      <trkpt lat="42.72486" lon="-0.04265">
        <ele>1954</ele>
        <time>2015-05-09T05:20:22Z</time>
      </trkpt>
      <trkpt lat="42.72474" lon="-0.04276">
        <ele>1955</ele>
        <time>2015-05-09T05:20:35Z</time>
      </trkpt>
      <trkpt lat="42.72473" lon="-0.04276">
        <ele>1955</ele>
        <time>2015-05-09T05:20:36Z</time>
      </trkpt>
      <trkpt lat="42.72471" lon="-0.04278">
        <ele>1955</ele>
        <time>2015-05-09T05:20:39Z</time>
      </trkpt>
      <trkpt lat="42.72458" lon="-0.04292">
        <ele>1957</ele>
        <time>2015-05-09T05:20:53Z</time>
      </trkpt>
      <trkpt lat="42.72456" lon="-0.04293">
        <ele>1957</ele>
        <time>2015-05-09T05:20:55Z</time>
      </trkpt>
      <trkpt lat="42.7245" lon="-0.04299">
        <ele>1958</ele>
        <time>2015-05-09T05:21:03Z</time>
      </trkpt>
      <trkpt lat="42.72449" lon="-0.04302">
        <ele>1959</ele>
        <time>2015-05-09T05:21:05Z</time>
      </trkpt>
      <trkpt lat="42.72442" lon="-0.0431">
        <ele>1959</ele>
        <time>2015-05-09T05:21:13Z</time>
      </trkpt>
      <trkpt lat="42.72435" lon="-0.04319">
        <ele>1961</ele>
        <time>2015-05-09T05:21:22Z</time>
      </trkpt>
      <trkpt lat="42.72425" lon="-0.04333">
        <ele>1962</ele>
        <time>2015-05-09T05:21:36Z</time>
      </trkpt>
      <trkpt lat="42.72423" lon="-0.04335">
        <ele>1962</ele>
        <time>2015-05-09T05:21:38Z</time>
      </trkpt>
      <trkpt lat="42.72419" lon="-0.04339">
        <ele>1962</ele>
        <time>2015-05-09T05:21:43Z</time>
      </trkpt>
      <trkpt lat="42.72411" lon="-0.0435">
        <ele>1964</ele>
        <time>2015-05-09T05:21:54Z</time>
      </trkpt>
      <trkpt lat="42.72405" lon="-0.04357">
        <ele>1964</ele>
        <time>2015-05-09T05:22:01Z</time>
      </trkpt>
      <trkpt lat="42.72403" lon="-0.04359">
        <ele>1964</ele>
        <time>2015-05-09T05:22:03Z</time>
      </trkpt>
      <trkpt lat="42.72389" lon="-0.04374">
        <ele>1966</ele>
        <time>2015-05-09T05:22:20Z</time>
      </trkpt>
      <trkpt lat="42.72384" lon="-0.0438">
        <ele>1967</ele>
        <time>2015-05-09T05:22:27Z</time>
      </trkpt>
      <trkpt lat="42.72373" lon="-0.04395">
        <ele>1969</ele>
        <time>2015-05-09T05:22:41Z</time>
      </trkpt>
      <trkpt lat="42.72365" lon="-0.04408">
        <ele>1970</ele>
        <time>2015-05-09T05:22:54Z</time>
      </trkpt>
      <trkpt lat="42.72358" lon="-0.04423">
        <ele>1971</ele>
        <time>2015-05-09T05:23:06Z</time>
      </trkpt>
      <trkpt lat="42.72357" lon="-0.04426">
        <ele>1971</ele>
        <time>2015-05-09T05:23:08Z</time>
      </trkpt>
      <trkpt lat="42.72347" lon="-0.04446">
        <ele>1973</ele>
        <time>2015-05-09T05:23:23Z</time>
      </trkpt>
      <trkpt lat="42.72341" lon="-0.04459">
        <ele>1974</ele>
        <time>2015-05-09T05:23:34Z</time>
      </trkpt>
      <trkpt lat="42.72339" lon="-0.04465">
        <ele>1974</ele>
        <time>2015-05-09T05:23:38Z</time>
      </trkpt>
      <trkpt lat="42.72331" lon="-0.04484">
        <ele>1977</ele>
        <time>2015-05-09T05:23:54Z</time>
      </trkpt>
      <trkpt lat="42.72329" lon="-0.04496">
        <ele>1978</ele>
        <time>2015-05-09T05:24:02Z</time>
      </trkpt>
      <trkpt lat="42.72327" lon="-0.04501">
        <ele>1977</ele>
        <time>2015-05-09T05:24:06Z</time>
      </trkpt>
      <trkpt lat="42.72326" lon="-0.04503">
        <ele>1978</ele>
        <time>2015-05-09T05:24:08Z</time>
      </trkpt>
      <trkpt lat="42.72323" lon="-0.04511">
        <ele>1979</ele>
        <time>2015-05-09T05:24:14Z</time>
      </trkpt>
      <trkpt lat="42.72321" lon="-0.04515">
        <ele>1979</ele>
        <time>2015-05-09T05:24:17Z</time>
      </trkpt>
      <trkpt lat="42.7232" lon="-0.04518">
        <ele>1979</ele>
        <time>2015-05-09T05:24:20Z</time>
      </trkpt>
      <trkpt lat="42.72312" lon="-0.0453">
        <ele>1980</ele>
        <time>2015-05-09T05:24:32Z</time>
      </trkpt>
      <trkpt lat="42.72305" lon="-0.04538">
        <ele>1981</ele>
        <time>2015-05-09T05:24:41Z</time>
      </trkpt>
      <trkpt lat="42.72297" lon="-0.04552">
        <ele>1982</ele>
        <time>2015-05-09T05:24:52Z</time>
      </trkpt>
      <trkpt lat="42.72297" lon="-0.04569">
        <ele>1983</ele>
        <time>2015-05-09T05:25:03Z</time>
      </trkpt>
      <trkpt lat="42.72296" lon="-0.04583">
        <ele>1985</ele>
        <time>2015-05-09T05:25:13Z</time>
      </trkpt>
      <trkpt lat="42.72298" lon="-0.04605">
        <ele>1987</ele>
        <time>2015-05-09T05:25:27Z</time>
      </trkpt>
      <trkpt lat="42.72298" lon="-0.04609">
        <ele>1987</ele>
        <time>2015-05-09T05:25:31Z</time>
      </trkpt>
      <trkpt lat="42.72301" lon="-0.04617">
        <ele>1988</ele>
        <time>2015-05-09T05:25:37Z</time>
      </trkpt>
      <trkpt lat="42.72302" lon="-0.04638">
        <ele>1989</ele>
        <time>2015-05-09T05:25:51Z</time>
      </trkpt>
      <trkpt lat="42.72298" lon="-0.04656">
        <ele>1990</ele>
        <time>2015-05-09T05:26:05Z</time>
      </trkpt>
      <trkpt lat="42.72297" lon="-0.04658">
        <ele>1991</ele>
        <time>2015-05-09T05:26:07Z</time>
      </trkpt>
      <trkpt lat="42.72291" lon="-0.04671">
        <ele>1991</ele>
        <time>2015-05-09T05:26:19Z</time>
      </trkpt>
      <trkpt lat="42.72278" lon="-0.04669">
        <ele>1993</ele>
        <time>2015-05-09T05:26:32Z</time>
      </trkpt>
      <trkpt lat="42.72263" lon="-0.04663">
        <ele>1996</ele>
        <time>2015-05-09T05:26:48Z</time>
      </trkpt>
      <trkpt lat="42.72258" lon="-0.04663">
        <ele>1996</ele>
        <time>2015-05-09T05:26:54Z</time>
      </trkpt>
      <trkpt lat="42.72246" lon="-0.04662">
        <ele>1997</ele>
        <time>2015-05-09T05:27:05Z</time>
      </trkpt>
      <trkpt lat="42.72239" lon="-0.04667">
        <ele>1999</ele>
        <time>2015-05-09T05:27:14Z</time>
      </trkpt>
      <trkpt lat="42.7223" lon="-0.04679">
        <ele>2000</ele>
        <time>2015-05-09T05:27:28Z</time>
      </trkpt>
      <trkpt lat="42.72224" lon="-0.04687">
        <ele>2001</ele>
        <time>2015-05-09T05:27:36Z</time>
      </trkpt>
      <trkpt lat="42.72222" lon="-0.04691">
        <ele>2001</ele>
        <time>2015-05-09T05:27:39Z</time>
      </trkpt>
      <trkpt lat="42.72215" lon="-0.04702">
        <ele>2003</ele>
        <time>2015-05-09T05:27:49Z</time>
      </trkpt>
      <trkpt lat="42.72207" lon="-0.04719">
        <ele>2004</ele>
        <time>2015-05-09T05:28:04Z</time>
      </trkpt>
      <trkpt lat="42.72206" lon="-0.04722">
        <ele>2004</ele>
        <time>2015-05-09T05:28:06Z</time>
      </trkpt>
      <trkpt lat="42.72199" lon="-0.04739">
        <ele>2006</ele>
        <time>2015-05-09T05:28:20Z</time>
      </trkpt>
      <trkpt lat="42.72197" lon="-0.04748">
        <ele>2007</ele>
        <time>2015-05-09T05:28:26Z</time>
      </trkpt>
      <trkpt lat="42.72197" lon="-0.04753">
        <ele>2007</ele>
        <time>2015-05-09T05:28:29Z</time>
      </trkpt>
      <trkpt lat="42.72195" lon="-0.04759">
        <ele>2007</ele>
        <time>2015-05-09T05:28:34Z</time>
      </trkpt>
      <trkpt lat="42.72195" lon="-0.04762">
        <ele>2008</ele>
        <time>2015-05-09T05:28:36Z</time>
      </trkpt>
      <trkpt lat="42.72195" lon="-0.04764">
        <ele>2009</ele>
        <time>2015-05-09T05:28:38Z</time>
      </trkpt>
      <trkpt lat="42.72192" lon="-0.04775">
        <ele>2008</ele>
        <time>2015-05-09T05:28:45Z</time>
      </trkpt>
      <trkpt lat="42.7219" lon="-0.04783">
        <ele>2009</ele>
        <time>2015-05-09T05:28:52Z</time>
      </trkpt>
      <trkpt lat="42.72186" lon="-0.04799">
        <ele>2010</ele>
        <time>2015-05-09T05:29:04Z</time>
      </trkpt>
      <trkpt lat="42.72186" lon="-0.04802">
        <ele>2010</ele>
        <time>2015-05-09T05:29:06Z</time>
      </trkpt>
      <trkpt lat="42.72178" lon="-0.04818">
        <ele>2012</ele>
        <time>2015-05-09T05:29:20Z</time>
      </trkpt>
      <trkpt lat="42.72176" lon="-0.04821">
        <ele>2012</ele>
        <time>2015-05-09T05:29:22Z</time>
      </trkpt>
      <trkpt lat="42.72169" lon="-0.04834">
        <ele>2014</ele>
        <time>2015-05-09T05:29:35Z</time>
      </trkpt>
      <trkpt lat="42.72168" lon="-0.04838">
        <ele>2014</ele>
        <time>2015-05-09T05:29:38Z</time>
      </trkpt>
      <trkpt lat="42.72163" lon="-0.04845">
        <ele>2015</ele>
        <time>2015-05-09T05:29:45Z</time>
      </trkpt>
      <trkpt lat="42.72162" lon="-0.04848">
        <ele>2016</ele>
        <time>2015-05-09T05:29:47Z</time>
      </trkpt>
      <trkpt lat="42.72159" lon="-0.04852">
        <ele>2016</ele>
        <time>2015-05-09T05:29:51Z</time>
      </trkpt>
      <trkpt lat="42.72158" lon="-0.04855">
        <ele>2016</ele>
        <time>2015-05-09T05:29:53Z</time>
      </trkpt>
      <trkpt lat="42.72156" lon="-0.04858">
        <ele>2016</ele>
        <time>2015-05-09T05:29:56Z</time>
      </trkpt>
      <trkpt lat="42.72154" lon="-0.04861">
        <ele>2016</ele>
        <time>2015-05-09T05:29:59Z</time>
      </trkpt>
      <trkpt lat="42.72147" lon="-0.04877">
        <ele>2018</ele>
        <time>2015-05-09T05:30:13Z</time>
      </trkpt>
      <trkpt lat="42.72146" lon="-0.0488">
        <ele>2018</ele>
        <time>2015-05-09T05:30:16Z</time>
      </trkpt>
      <trkpt lat="42.72145" lon="-0.04883">
        <ele>2018</ele>
        <time>2015-05-09T05:30:18Z</time>
      </trkpt>
      <trkpt lat="42.72144" lon="-0.04892">
        <ele>2018</ele>
        <time>2015-05-09T05:30:23Z</time>
      </trkpt>
      <trkpt lat="42.7214" lon="-0.049">
        <ele>2019</ele>
        <time>2015-05-09T05:30:30Z</time>
      </trkpt>
      <trkpt lat="42.72139" lon="-0.04904">
        <ele>2020</ele>
        <time>2015-05-09T05:30:33Z</time>
      </trkpt>
      <trkpt lat="42.72139" lon="-0.04907">
        <ele>2021</ele>
        <time>2015-05-09T05:30:35Z</time>
      </trkpt>
      <trkpt lat="42.72135" lon="-0.04925">
        <ele>2022</ele>
        <time>2015-05-09T05:30:48Z</time>
      </trkpt>
      <trkpt lat="42.72135" lon="-0.04937">
        <ele>2023</ele>
        <time>2015-05-09T05:30:57Z</time>
      </trkpt>
      <trkpt lat="42.72135" lon="-0.0494">
        <ele>2023</ele>
        <time>2015-05-09T05:30:59Z</time>
      </trkpt>
      <trkpt lat="42.72142" lon="-0.04954">
        <ele>2024</ele>
        <time>2015-05-09T05:31:14Z</time>
      </trkpt>
      <trkpt lat="42.72142" lon="-0.04957">
        <ele>2024</ele>
        <time>2015-05-09T05:31:16Z</time>
      </trkpt>
      <trkpt lat="42.72142" lon="-0.04975">
        <ele>2023</ele>
        <time>2015-05-09T05:31:30Z</time>
      </trkpt>
      <trkpt lat="42.72142" lon="-0.04982">
        <ele>2023</ele>
        <time>2015-05-09T05:31:35Z</time>
      </trkpt>
      <trkpt lat="42.72142" lon="-0.04985">
        <ele>2023</ele>
        <time>2015-05-09T05:31:38Z</time>
      </trkpt>
      <trkpt lat="42.72143" lon="-0.0499">
        <ele>2023</ele>
        <time>2015-05-09T05:31:42Z</time>
      </trkpt>
      <trkpt lat="42.72144" lon="-0.04995">
        <ele>2022</ele>
        <time>2015-05-09T05:31:45Z</time>
      </trkpt>
      <trkpt lat="42.72153" lon="-0.05013">
        <ele>2021</ele>
        <time>2015-05-09T05:32:01Z</time>
      </trkpt>
      <trkpt lat="42.72153" lon="-0.05016">
        <ele>2021</ele>
        <time>2015-05-09T05:32:04Z</time>
      </trkpt>
      <trkpt lat="42.7215" lon="-0.0503">
        <ele>2022</ele>
        <time>2015-05-09T05:32:14Z</time>
      </trkpt>
      <trkpt lat="42.72149" lon="-0.05047">
        <ele>2023</ele>
        <time>2015-05-09T05:32:29Z</time>
      </trkpt>
      <trkpt lat="42.72145" lon="-0.0506">
        <ele>2025</ele>
        <time>2015-05-09T05:32:43Z</time>
      </trkpt>
      <trkpt lat="42.72142" lon="-0.05074">
        <ele>2027</ele>
        <time>2015-05-09T05:32:58Z</time>
      </trkpt>
      <trkpt lat="42.72142" lon="-0.05076">
        <ele>2028</ele>
        <time>2015-05-09T05:33:00Z</time>
      </trkpt>
      <trkpt lat="42.72136" lon="-0.05084">
        <ele>2030</ele>
        <time>2015-05-09T05:33:15Z</time>
      </trkpt>
      <trkpt lat="42.7213" lon="-0.05091">
        <ele>2033</ele>
        <time>2015-05-09T05:33:29Z</time>
      </trkpt>
      <trkpt lat="42.72127" lon="-0.05097">
        <ele>2035</ele>
        <time>2015-05-09T05:33:42Z</time>
      </trkpt>
      <trkpt lat="42.72126" lon="-0.05099">
        <ele>2035</ele>
        <time>2015-05-09T05:33:44Z</time>
      </trkpt>
      <trkpt lat="42.72122" lon="-0.05109">
        <ele>2038</ele>
        <time>2015-05-09T05:33:58Z</time>
      </trkpt>
      <trkpt lat="42.7212" lon="-0.05113">
        <ele>2038</ele>
        <time>2015-05-09T05:34:06Z</time>
      </trkpt>
      <trkpt lat="42.72119" lon="-0.05123">
        <ele>2041</ele>
        <time>2015-05-09T05:34:19Z</time>
      </trkpt>
      <trkpt lat="42.72116" lon="-0.05131">
        <ele>2043</ele>
        <time>2015-05-09T05:34:30Z</time>
      </trkpt>
      <trkpt lat="42.72118" lon="-0.05138">
        <ele>2043</ele>
        <time>2015-05-09T05:34:41Z</time>
      </trkpt>
      <trkpt lat="42.72116" lon="-0.05148">
        <ele>2045</ele>
        <time>2015-05-09T05:34:54Z</time>
      </trkpt>
      <trkpt lat="42.72112" lon="-0.05148">
        <ele>2048</ele>
        <time>2015-05-09T05:35:04Z</time>
      </trkpt>
      <trkpt lat="42.72111" lon="-0.05147">
        <ele>2047</ele>
        <time>2015-05-09T05:35:11Z</time>
      </trkpt>
      <trkpt lat="42.72102" lon="-0.0515">
        <ele>2050</ele>
        <time>2015-05-09T05:35:24Z</time>
      </trkpt>
      <trkpt lat="42.72093" lon="-0.05156">
        <ele>2052</ele>
        <time>2015-05-09T05:35:40Z</time>
      </trkpt>
      <trkpt lat="42.72086" lon="-0.05159">
        <ele>2053</ele>
        <time>2015-05-09T05:35:53Z</time>
      </trkpt>
      <trkpt lat="42.72079" lon="-0.05169">
        <ele>2055</ele>
        <time>2015-05-09T05:36:08Z</time>
      </trkpt>
      <trkpt lat="42.72071" lon="-0.05166">
        <ele>2058</ele>
        <time>2015-05-09T05:36:21Z</time>
      </trkpt>
      <trkpt lat="42.72064" lon="-0.05164">
        <ele>2061</ele>
        <time>2015-05-09T05:36:35Z</time>
      </trkpt>
      <trkpt lat="42.72059" lon="-0.05167">
        <ele>2062</ele>
        <time>2015-05-09T05:36:42Z</time>
      </trkpt>
      <trkpt lat="42.72057" lon="-0.05168">
        <ele>2063</ele>
        <time>2015-05-09T05:36:45Z</time>
      </trkpt>
      <trkpt lat="42.7205" lon="-0.05175">
        <ele>2064</ele>
        <time>2015-05-09T05:36:59Z</time>
      </trkpt>
      <trkpt lat="42.72043" lon="-0.05185">
        <ele>2066</ele>
        <time>2015-05-09T05:37:13Z</time>
      </trkpt>
      <trkpt lat="42.72037" lon="-0.05192">
        <ele>2066</ele>
        <time>2015-05-09T05:37:25Z</time>
      </trkpt>
      <trkpt lat="42.72028" lon="-0.05194">
        <ele>2069</ele>
        <time>2015-05-09T05:37:39Z</time>
      </trkpt>
      <trkpt lat="42.7202" lon="-0.05197">
        <ele>2070</ele>
        <time>2015-05-09T05:37:53Z</time>
      </trkpt>
      <trkpt lat="42.7201" lon="-0.052">
        <ele>2073</ele>
        <time>2015-05-09T05:38:08Z</time>
      </trkpt>
      <trkpt lat="42.72002" lon="-0.05203">
        <ele>2076</ele>
        <time>2015-05-09T05:38:21Z</time>
      </trkpt>
      <trkpt lat="42.71993" lon="-0.05203">
        <ele>2077</ele>
        <time>2015-05-09T05:38:36Z</time>
      </trkpt>
      <trkpt lat="42.71986" lon="-0.05203">
        <ele>2079</ele>
        <time>2015-05-09T05:38:50Z</time>
      </trkpt>
      <trkpt lat="42.71978" lon="-0.05201">
        <ele>2082</ele>
        <time>2015-05-09T05:39:05Z</time>
      </trkpt>
      <trkpt lat="42.71971" lon="-0.05199">
        <ele>2084</ele>
        <time>2015-05-09T05:39:21Z</time>
      </trkpt>
      <trkpt lat="42.71963" lon="-0.05198">
        <ele>2087</ele>
        <time>2015-05-09T05:39:38Z</time>
      </trkpt>
      <trkpt lat="42.71956" lon="-0.05199">
        <ele>2089</ele>
        <time>2015-05-09T05:39:54Z</time>
      </trkpt>
      <trkpt lat="42.71949" lon="-0.05199">
        <ele>2091</ele>
        <time>2015-05-09T05:40:08Z</time>
      </trkpt>
      <trkpt lat="42.71941" lon="-0.05203">
        <ele>2094</ele>
        <time>2015-05-09T05:40:23Z</time>
      </trkpt>
      <trkpt lat="42.71935" lon="-0.05205">
        <ele>2095</ele>
        <time>2015-05-09T05:40:36Z</time>
      </trkpt>
      <trkpt lat="42.71927" lon="-0.05207">
        <ele>2096</ele>
        <time>2015-05-09T05:40:48Z</time>
      </trkpt>
      <trkpt lat="42.71913" lon="-0.05213">
        <ele>2097</ele>
        <time>2015-05-09T05:41:04Z</time>
      </trkpt>
      <trkpt lat="42.719" lon="-0.05218">
        <ele>2099</ele>
        <time>2015-05-09T05:41:18Z</time>
      </trkpt>
      <trkpt lat="42.71899" lon="-0.05218">
        <ele>2098</ele>
        <time>2015-05-09T05:41:19Z</time>
      </trkpt>
      <trkpt lat="42.71886" lon="-0.05224">
        <ele>2100</ele>
        <time>2015-05-09T05:41:35Z</time>
      </trkpt>
      <trkpt lat="42.71875" lon="-0.05228">
        <ele>2102</ele>
        <time>2015-05-09T05:41:49Z</time>
      </trkpt>
      <trkpt lat="42.71862" lon="-0.05238">
        <ele>2103</ele>
        <time>2015-05-09T05:42:04Z</time>
      </trkpt>
      <trkpt lat="42.7185" lon="-0.05245">
        <ele>2104</ele>
        <time>2015-05-09T05:42:19Z</time>
      </trkpt>
      <trkpt lat="42.7184" lon="-0.05253">
        <ele>2106</ele>
        <time>2015-05-09T05:42:34Z</time>
      </trkpt>
      <trkpt lat="42.71828" lon="-0.05259">
        <ele>2108</ele>
        <time>2015-05-09T05:42:48Z</time>
      </trkpt>
      <trkpt lat="42.71827" lon="-0.05259">
        <ele>2108</ele>
        <time>2015-05-09T05:42:49Z</time>
      </trkpt>
      <trkpt lat="42.71817" lon="-0.05264">
        <ele>2110</ele>
        <time>2015-05-09T05:43:04Z</time>
      </trkpt>
      <trkpt lat="42.71812" lon="-0.05267">
        <ele>2110</ele>
        <time>2015-05-09T05:43:10Z</time>
      </trkpt>
      <trkpt lat="42.71802" lon="-0.05273">
        <ele>2112</ele>
        <time>2015-05-09T05:43:24Z</time>
      </trkpt>
      <trkpt lat="42.71791" lon="-0.05279">
        <ele>2115</ele>
        <time>2015-05-09T05:43:40Z</time>
      </trkpt>
      <trkpt lat="42.71779" lon="-0.05285">
        <ele>2116</ele>
        <time>2015-05-09T05:43:53Z</time>
      </trkpt>
      <trkpt lat="42.71768" lon="-0.05291">
        <ele>2116</ele>
        <time>2015-05-09T05:44:06Z</time>
      </trkpt>
      <trkpt lat="42.71767" lon="-0.05292">
        <ele>2117</ele>
        <time>2015-05-09T05:44:08Z</time>
      </trkpt>
      <trkpt lat="42.71756" lon="-0.05298">
        <ele>2118</ele>
        <time>2015-05-09T05:44:22Z</time>
      </trkpt>
      <trkpt lat="42.71753" lon="-0.05299">
        <ele>2118</ele>
        <time>2015-05-09T05:44:25Z</time>
      </trkpt>
      <trkpt lat="42.71744" lon="-0.05299">
        <ele>2120</ele>
        <time>2015-05-09T05:44:34Z</time>
      </trkpt>
      <trkpt lat="42.71731" lon="-0.05302">
        <ele>2122</ele>
        <time>2015-05-09T05:44:49Z</time>
      </trkpt>
      <trkpt lat="42.71728" lon="-0.05303">
        <ele>2122</ele>
        <time>2015-05-09T05:44:55Z</time>
      </trkpt>
      <trkpt lat="42.71724" lon="-0.05318">
        <ele>2123</ele>
        <time>2015-05-09T05:45:09Z</time>
      </trkpt>
      <trkpt lat="42.71718" lon="-0.0533">
        <ele>2124</ele>
        <time>2015-05-09T05:45:23Z</time>
      </trkpt>
      <trkpt lat="42.71711" lon="-0.05342">
        <ele>2127</ele>
        <time>2015-05-09T05:45:37Z</time>
      </trkpt>
      <trkpt lat="42.71703" lon="-0.05352">
        <ele>2129</ele>
        <time>2015-05-09T05:45:54Z</time>
      </trkpt>
      <trkpt lat="42.71701" lon="-0.05353">
        <ele>2129</ele>
        <time>2015-05-09T05:45:56Z</time>
      </trkpt>
      <trkpt lat="42.7169" lon="-0.05359">
        <ele>2131</ele>
        <time>2015-05-09T05:46:12Z</time>
      </trkpt>
      <trkpt lat="42.71681" lon="-0.05367">
        <ele>2134</ele>
        <time>2015-05-09T05:46:27Z</time>
      </trkpt>
      <trkpt lat="42.71672" lon="-0.05374">
        <ele>2135</ele>
        <time>2015-05-09T05:46:39Z</time>
      </trkpt>
      <trkpt lat="42.71663" lon="-0.05383">
        <ele>2138</ele>
        <time>2015-05-09T05:46:54Z</time>
      </trkpt>
      <trkpt lat="42.71653" lon="-0.05381">
        <ele>2139</ele>
        <time>2015-05-09T05:47:09Z</time>
      </trkpt>
      <trkpt lat="42.71643" lon="-0.05386">
        <ele>2141</ele>
        <time>2015-05-09T05:47:28Z</time>
      </trkpt>
      <trkpt lat="42.71638" lon="-0.05388">
        <ele>2143</ele>
        <time>2015-05-09T05:47:41Z</time>
      </trkpt>
      <trkpt lat="42.71628" lon="-0.05396">
        <ele>2145</ele>
        <time>2015-05-09T05:47:58Z</time>
      </trkpt>
      <trkpt lat="42.71621" lon="-0.05406">
        <ele>2148</ele>
        <time>2015-05-09T05:48:14Z</time>
      </trkpt>
      <trkpt lat="42.71614" lon="-0.05416">
        <ele>2150</ele>
        <time>2015-05-09T05:48:30Z</time>
      </trkpt>
      <trkpt lat="42.71607" lon="-0.05417">
        <ele>2152</ele>
        <time>2015-05-09T05:48:42Z</time>
      </trkpt>
      <trkpt lat="42.71599" lon="-0.05415">
        <ele>2153</ele>
        <time>2015-05-09T05:48:55Z</time>
      </trkpt>
      <trkpt lat="42.71594" lon="-0.05418">
        <ele>2155</ele>
        <time>2015-05-09T05:49:08Z</time>
      </trkpt>
      <trkpt lat="42.71586" lon="-0.05423">
        <ele>2158</ele>
        <time>2015-05-09T05:49:24Z</time>
      </trkpt>
      <trkpt lat="42.71575" lon="-0.05425">
        <ele>2160</ele>
        <time>2015-05-09T05:49:39Z</time>
      </trkpt>
      <trkpt lat="42.71564" lon="-0.05427">
        <ele>2162</ele>
        <time>2015-05-09T05:49:55Z</time>
      </trkpt>
      <trkpt lat="42.71553" lon="-0.05428">
        <ele>2165</ele>
        <time>2015-05-09T05:50:12Z</time>
      </trkpt>
      <trkpt lat="42.71542" lon="-0.05428">
        <ele>2167</ele>
        <time>2015-05-09T05:50:29Z</time>
      </trkpt>
      <trkpt lat="42.71541" lon="-0.05428">
        <ele>2168</ele>
        <time>2015-05-09T05:50:30Z</time>
      </trkpt>
      <trkpt lat="42.71538" lon="-0.05427">
        <ele>2167</ele>
        <time>2015-05-09T05:50:34Z</time>
      </trkpt>
      <trkpt lat="42.71525" lon="-0.05425">
        <ele>2169</ele>
        <time>2015-05-09T05:50:50Z</time>
      </trkpt>
      <trkpt lat="42.71513" lon="-0.05418">
        <ele>2172</ele>
        <time>2015-05-09T05:51:07Z</time>
      </trkpt>
      <trkpt lat="42.71504" lon="-0.05415">
        <ele>2174</ele>
        <time>2015-05-09T05:51:22Z</time>
      </trkpt>
      <trkpt lat="42.71494" lon="-0.05412">
        <ele>2177</ele>
        <time>2015-05-09T05:51:37Z</time>
      </trkpt>
      <trkpt lat="42.71488" lon="-0.05414">
        <ele>2178</ele>
        <time>2015-05-09T05:51:50Z</time>
      </trkpt>
      <trkpt lat="42.7148" lon="-0.05415">
        <ele>2182</ele>
        <time>2015-05-09T05:52:04Z</time>
      </trkpt>
      <trkpt lat="42.71473" lon="-0.05417">
        <ele>2183</ele>
        <time>2015-05-09T05:52:18Z</time>
      </trkpt>
      <trkpt lat="42.71466" lon="-0.05419">
        <ele>2187</ele>
        <time>2015-05-09T05:52:33Z</time>
      </trkpt>
      <trkpt lat="42.71459" lon="-0.05423">
        <ele>2189</ele>
        <time>2015-05-09T05:52:47Z</time>
      </trkpt>
      <trkpt lat="42.71451" lon="-0.05425">
        <ele>2190</ele>
        <time>2015-05-09T05:53:00Z</time>
      </trkpt>
      <trkpt lat="42.71449" lon="-0.05424">
        <ele>2191</ele>
        <time>2015-05-09T05:53:20Z</time>
      </trkpt>
      <trkpt lat="42.7144" lon="-0.05429">
        <ele>2193</ele>
        <time>2015-05-09T05:53:35Z</time>
      </trkpt>
      <trkpt lat="42.71432" lon="-0.05435">
        <ele>2195</ele>
        <time>2015-05-09T05:53:49Z</time>
      </trkpt>
      <trkpt lat="42.71423" lon="-0.05438">
        <ele>2197</ele>
        <time>2015-05-09T05:54:02Z</time>
      </trkpt>
      <trkpt lat="42.71413" lon="-0.05446">
        <ele>2199</ele>
        <time>2015-05-09T05:54:18Z</time>
      </trkpt>
      <trkpt lat="42.71405" lon="-0.0545">
        <ele>2202</ele>
        <time>2015-05-09T05:54:32Z</time>
      </trkpt>
      <trkpt lat="42.71397" lon="-0.05453">
        <ele>2203</ele>
        <time>2015-05-09T05:54:46Z</time>
      </trkpt>
      <trkpt lat="42.7139" lon="-0.05461">
        <ele>2206</ele>
        <time>2015-05-09T05:55:01Z</time>
      </trkpt>
      <trkpt lat="42.71384" lon="-0.05471">
        <ele>2209</ele>
        <time>2015-05-09T05:55:17Z</time>
      </trkpt>
      <trkpt lat="42.71376" lon="-0.05479">
        <ele>2212</ele>
        <time>2015-05-09T05:55:34Z</time>
      </trkpt>
      <trkpt lat="42.71371" lon="-0.05486">
        <ele>2213</ele>
        <time>2015-05-09T05:55:47Z</time>
      </trkpt>
      <trkpt lat="42.71362" lon="-0.05496">
        <ele>2215</ele>
        <time>2015-05-09T05:56:04Z</time>
      </trkpt>
      <trkpt lat="42.71355" lon="-0.05502">
        <ele>2218</ele>
        <time>2015-05-09T05:56:18Z</time>
      </trkpt>
      <trkpt lat="42.71349" lon="-0.05493">
        <ele>2220</ele>
        <time>2015-05-09T05:56:32Z</time>
      </trkpt>
      <trkpt lat="42.71347" lon="-0.05484">
        <ele>2223</ele>
        <time>2015-05-09T05:56:47Z</time>
      </trkpt>
      <trkpt lat="42.71343" lon="-0.05479">
        <ele>2225</ele>
        <time>2015-05-09T05:57:02Z</time>
      </trkpt>
      <trkpt lat="42.71338" lon="-0.05483">
        <ele>2226</ele>
        <time>2015-05-09T05:57:20Z</time>
      </trkpt>
      <trkpt lat="42.7133" lon="-0.05491">
        <ele>2227</ele>
        <time>2015-05-09T05:57:34Z</time>
      </trkpt>
      <trkpt lat="42.71323" lon="-0.05499">
        <ele>2231</ele>
        <time>2015-05-09T05:57:51Z</time>
      </trkpt>
      <trkpt lat="42.71318" lon="-0.05511">
        <ele>2233</ele>
        <time>2015-05-09T05:58:08Z</time>
      </trkpt>
      <trkpt lat="42.71315" lon="-0.05515">
        <ele>2235</ele>
        <time>2015-05-09T05:58:15Z</time>
      </trkpt>
      <trkpt lat="42.71309" lon="-0.05523">
        <ele>2237</ele>
        <time>2015-05-09T05:58:31Z</time>
      </trkpt>
      <trkpt lat="42.71302" lon="-0.05523">
        <ele>2239</ele>
        <time>2015-05-09T05:58:45Z</time>
      </trkpt>
      <trkpt lat="42.71293" lon="-0.05524">
        <ele>2241</ele>
        <time>2015-05-09T05:58:59Z</time>
      </trkpt>
      <trkpt lat="42.71281" lon="-0.05526">
        <ele>2241</ele>
        <time>2015-05-09T05:59:14Z</time>
      </trkpt>
      <trkpt lat="42.71281" lon="-0.05526">
        <ele>2242</ele>
        <time>2015-05-09T05:59:33Z</time>
      </trkpt>
      <trkpt lat="42.71281" lon="-0.05521">
        <ele>2242</ele>
        <time>2015-05-09T05:59:46Z</time>
      </trkpt>
      <trkpt lat="42.71284" lon="-0.05515">
        <ele>2242</ele>
        <time>2015-05-09T05:59:58Z</time>
      </trkpt>
      <trkpt lat="42.71283" lon="-0.05515">
        <ele>2241</ele>
        <time>2015-05-09T06:00:17Z</time>
      </trkpt>
      <trkpt lat="42.71284" lon="-0.05514">
        <ele>2241</ele>
        <time>2015-05-09T06:00:43Z</time>
      </trkpt>
      <trkpt lat="42.71283" lon="-0.05515">
        <ele>2241</ele>
        <time>2015-05-09T06:01:12Z</time>
      </trkpt>
      <trkpt lat="42.71282" lon="-0.05514">
        <ele>2241</ele>
        <time>2015-05-09T06:01:54Z</time>
      </trkpt>
      <trkpt lat="42.71282" lon="-0.05515">
        <ele>2242</ele>
        <time>2015-05-09T06:02:24Z</time>
      </trkpt>
      <trkpt lat="42.71284" lon="-0.05515">
        <ele>2241</ele>
        <time>2015-05-09T06:02:45Z</time>
      </trkpt>
      <trkpt lat="42.71284" lon="-0.05515">
        <ele>2241</ele>
        <time>2015-05-09T06:03:15Z</time>
      </trkpt>
      <trkpt lat="42.71283" lon="-0.05515">
        <ele>2242</ele>
        <time>2015-05-09T06:03:48Z</time>
      </trkpt>
      <trkpt lat="42.71283" lon="-0.05515">
        <ele>2241</ele>
        <time>2015-05-09T06:04:09Z</time>
      </trkpt>
      <trkpt lat="42.71283" lon="-0.05515">
        <ele>2242</ele>
        <time>2015-05-09T06:04:38Z</time>
      </trkpt>
      <trkpt lat="42.71283" lon="-0.05516">
        <ele>2242</ele>
        <time>2015-05-09T06:05:11Z</time>
      </trkpt>
      <trkpt lat="42.71283" lon="-0.05516">
        <ele>2242</ele>
        <time>2015-05-09T06:05:39Z</time>
      </trkpt>
      <trkpt lat="42.71282" lon="-0.05515">
        <ele>2241</ele>
        <time>2015-05-09T06:06:04Z</time>
      </trkpt>
      <trkpt lat="42.71283" lon="-0.05515">
        <ele>2242</ele>
        <time>2015-05-09T06:06:41Z</time>
      </trkpt>
      <trkpt lat="42.71283" lon="-0.05515">
        <ele>2242</ele>
        <time>2015-05-09T06:07:08Z</time>
      </trkpt>
      <trkpt lat="42.71283" lon="-0.05515">
        <ele>2242</ele>
        <time>2015-05-09T06:07:51Z</time>
      </trkpt>
      <trkpt lat="42.71283" lon="-0.05515">
        <ele>2242</ele>
        <time>2015-05-09T06:08:26Z</time>
      </trkpt>
      <trkpt lat="42.71283" lon="-0.05515">
        <ele>2242</ele>
        <time>2015-05-09T06:08:59Z</time>
      </trkpt>
      <trkpt lat="42.71283" lon="-0.05515">
        <ele>2242</ele>
        <time>2015-05-09T06:09:29Z</time>
      </trkpt>
      <trkpt lat="42.71283" lon="-0.05515">
        <ele>2242</ele>
        <time>2015-05-09T06:10:14Z</time>
      </trkpt>
      <trkpt lat="42.71284" lon="-0.05515">
        <ele>2242</ele>
        <time>2015-05-09T06:10:42Z</time>
      </trkpt>
      <trkpt lat="42.71284" lon="-0.05515">
        <ele>2242</ele>
        <time>2015-05-09T06:11:22Z</time>
      </trkpt>
      <trkpt lat="42.71284" lon="-0.05515">
        <ele>2242</ele>
        <time>2015-05-09T06:12:05Z</time>
      </trkpt>
      <trkpt lat="42.71284" lon="-0.05515">
        <ele>2242</ele>
        <time>2015-05-09T06:12:39Z</time>
      </trkpt>
      <trkpt lat="42.71284" lon="-0.05515">
        <ele>2242</ele>
        <time>2015-05-09T06:13:26Z</time>
      </trkpt>
      <trkpt lat="42.71285" lon="-0.05515">
        <ele>2242</ele>
        <time>2015-05-09T06:14:06Z</time>
      </trkpt>
      <trkpt lat="42.71284" lon="-0.05515">
        <ele>2241</ele>
        <time>2015-05-09T06:14:50Z</time>
      </trkpt>
      <trkpt lat="42.71285" lon="-0.05515">
        <ele>2242</ele>
        <time>2015-05-09T06:15:28Z</time>
      </trkpt>
      <trkpt lat="42.71285" lon="-0.05515">
        <ele>2242</ele>
        <time>2015-05-09T06:16:08Z</time>
      </trkpt>
      <trkpt lat="42.71284" lon="-0.05514">
        <ele>2242</ele>
        <time>2015-05-09T06:16:46Z</time>
      </trkpt>
      <trkpt lat="42.71285" lon="-0.05514">
        <ele>2242</ele>
        <time>2015-05-09T06:17:32Z</time>
      </trkpt>
      <trkpt lat="42.71285" lon="-0.05515">
        <ele>2242</ele>
        <time>2015-05-09T06:18:11Z</time>
      </trkpt>
      <trkpt lat="42.71283" lon="-0.05514">
        <ele>2243</ele>
        <time>2015-05-09T06:18:55Z</time>
      </trkpt>
      <trkpt lat="42.71285" lon="-0.05514">
        <ele>2243</ele>
        <time>2015-05-09T06:19:08Z</time>
      </trkpt>
      <trkpt lat="42.71284" lon="-0.05514">
        <ele>2244</ele>
        <time>2015-05-09T06:19:23Z</time>
      </trkpt>
      <trkpt lat="42.71282" lon="-0.05517">
        <ele>2243</ele>
        <time>2015-05-09T06:19:25Z</time>
      </trkpt>
      <trkpt lat="42.71277" lon="-0.05525">
        <ele>2243</ele>
        <time>2015-05-09T06:19:32Z</time>
      </trkpt>
      <trkpt lat="42.71272" lon="-0.05545">
        <ele>2242</ele>
        <time>2015-05-09T06:19:47Z</time>
      </trkpt>
      <trkpt lat="42.71269" lon="-0.05552">
        <ele>2241</ele>
        <time>2015-05-09T06:19:55Z</time>
      </trkpt>
      <trkpt lat="42.71258" lon="-0.05559">
        <ele>2237</ele>
        <time>2015-05-09T06:20:06Z</time>
      </trkpt>
      <trkpt lat="42.71248" lon="-0.0557">
        <ele>2235</ele>
        <time>2015-05-09T06:20:19Z</time>
      </trkpt>
      <trkpt lat="42.71247" lon="-0.05571">
        <ele>2234</ele>
        <time>2015-05-09T06:20:20Z</time>
      </trkpt>
      <trkpt lat="42.71239" lon="-0.05577">
        <ele>2231</ele>
        <time>2015-05-09T06:20:34Z</time>
      </trkpt>
      <trkpt lat="42.71231" lon="-0.05585">
        <ele>2228</ele>
        <time>2015-05-09T06:20:47Z</time>
      </trkpt>
      <trkpt lat="42.71223" lon="-0.05594">
        <ele>2225</ele>
        <time>2015-05-09T06:21:00Z</time>
      </trkpt>
      <trkpt lat="42.71215" lon="-0.05602">
        <ele>2222</ele>
        <time>2015-05-09T06:21:14Z</time>
      </trkpt>
      <trkpt lat="42.71209" lon="-0.05607">
        <ele>2219</ele>
        <time>2015-05-09T06:21:26Z</time>
      </trkpt>
      <trkpt lat="42.71202" lon="-0.05611">
        <ele>2217</ele>
        <time>2015-05-09T06:21:39Z</time>
      </trkpt>
      <trkpt lat="42.71193" lon="-0.05617">
        <ele>2214</ele>
        <time>2015-05-09T06:21:51Z</time>
      </trkpt>
      <trkpt lat="42.7119" lon="-0.05622">
        <ele>2214</ele>
        <time>2015-05-09T06:21:57Z</time>
      </trkpt>
      <trkpt lat="42.71182" lon="-0.0563">
        <ele>2214</ele>
        <time>2015-05-09T06:22:10Z</time>
      </trkpt>
      <trkpt lat="42.71179" lon="-0.05632">
        <ele>2212</ele>
        <time>2015-05-09T06:22:18Z</time>
      </trkpt>
      <trkpt lat="42.71166" lon="-0.0564">
        <ele>2209</ele>
        <time>2015-05-09T06:22:33Z</time>
      </trkpt>
      <trkpt lat="42.7116" lon="-0.05642">
        <ele>2208</ele>
        <time>2015-05-09T06:22:40Z</time>
      </trkpt>
      <trkpt lat="42.71152" lon="-0.05646">
        <ele>2207</ele>
        <time>2015-05-09T06:22:46Z</time>
      </trkpt>
      <trkpt lat="42.71147" lon="-0.05651">
        <ele>2208</ele>
        <time>2015-05-09T06:22:52Z</time>
      </trkpt>
      <trkpt lat="42.71139" lon="-0.05657">
        <ele>2209</ele>
        <time>2015-05-09T06:22:59Z</time>
      </trkpt>
      <trkpt lat="42.71133" lon="-0.0566">
        <ele>2209</ele>
        <time>2015-05-09T06:23:04Z</time>
      </trkpt>
      <trkpt lat="42.71119" lon="-0.05668">
        <ele>2209</ele>
        <time>2015-05-09T06:23:18Z</time>
      </trkpt>
      <trkpt lat="42.71103" lon="-0.05681">
        <ele>2209</ele>
        <time>2015-05-09T06:23:35Z</time>
      </trkpt>
      <trkpt lat="42.711" lon="-0.05685">
        <ele>2208</ele>
        <time>2015-05-09T06:23:39Z</time>
      </trkpt>
      <trkpt lat="42.71097" lon="-0.0569">
        <ele>2208</ele>
        <time>2015-05-09T06:23:43Z</time>
      </trkpt>
      <trkpt lat="42.71082" lon="-0.05706">
        <ele>2209</ele>
        <time>2015-05-09T06:24:00Z</time>
      </trkpt>
      <trkpt lat="42.71067" lon="-0.05722">
        <ele>2209</ele>
        <time>2015-05-09T06:24:16Z</time>
      </trkpt>
      <trkpt lat="42.71065" lon="-0.05724">
        <ele>2209</ele>
        <time>2015-05-09T06:24:18Z</time>
      </trkpt>
      <trkpt lat="42.71053" lon="-0.05742">
        <ele>2208</ele>
        <time>2015-05-09T06:24:34Z</time>
      </trkpt>
      <trkpt lat="42.71045" lon="-0.05756">
        <ele>2208</ele>
        <time>2015-05-09T06:24:46Z</time>
      </trkpt>
      <trkpt lat="42.71041" lon="-0.05764">
        <ele>2208</ele>
        <time>2015-05-09T06:24:53Z</time>
      </trkpt>
      <trkpt lat="42.71033" lon="-0.05775">
        <ele>2208</ele>
        <time>2015-05-09T06:25:03Z</time>
      </trkpt>
      <trkpt lat="42.71029" lon="-0.0578">
        <ele>2208</ele>
        <time>2015-05-09T06:25:09Z</time>
      </trkpt>
      <trkpt lat="42.71027" lon="-0.05785">
        <ele>2208</ele>
        <time>2015-05-09T06:25:13Z</time>
      </trkpt>
      <trkpt lat="42.71025" lon="-0.05791">
        <ele>2208</ele>
        <time>2015-05-09T06:25:17Z</time>
      </trkpt>
      <trkpt lat="42.71014" lon="-0.05806">
        <ele>2208</ele>
        <time>2015-05-09T06:25:30Z</time>
      </trkpt>
      <trkpt lat="42.71011" lon="-0.0581">
        <ele>2208</ele>
        <time>2015-05-09T06:25:34Z</time>
      </trkpt>
      <trkpt lat="42.71006" lon="-0.0582">
        <ele>2208</ele>
        <time>2015-05-09T06:25:42Z</time>
      </trkpt>
      <trkpt lat="42.71005" lon="-0.05823">
        <ele>2208</ele>
        <time>2015-05-09T06:25:45Z</time>
      </trkpt>
      <trkpt lat="42.70996" lon="-0.05838">
        <ele>2208</ele>
        <time>2015-05-09T06:25:57Z</time>
      </trkpt>
      <trkpt lat="42.70984" lon="-0.05855">
        <ele>2208</ele>
        <time>2015-05-09T06:26:13Z</time>
      </trkpt>
      <trkpt lat="42.70982" lon="-0.05856">
        <ele>2208</ele>
        <time>2015-05-09T06:26:15Z</time>
      </trkpt>
      <trkpt lat="42.70971" lon="-0.05867">
        <ele>2208</ele>
        <time>2015-05-09T06:26:28Z</time>
      </trkpt>
      <trkpt lat="42.70962" lon="-0.05876">
        <ele>2208</ele>
        <time>2015-05-09T06:26:38Z</time>
      </trkpt>
      <trkpt lat="42.70952" lon="-0.05885">
        <ele>2208</ele>
        <time>2015-05-09T06:26:50Z</time>
      </trkpt>
      <trkpt lat="42.70951" lon="-0.05886">
        <ele>2208</ele>
        <time>2015-05-09T06:26:51Z</time>
      </trkpt>
      <trkpt lat="42.70943" lon="-0.05896">
        <ele>2209</ele>
        <time>2015-05-09T06:27:00Z</time>
      </trkpt>
      <trkpt lat="42.70934" lon="-0.05904">
        <ele>2209</ele>
        <time>2015-05-09T06:27:10Z</time>
      </trkpt>
      <trkpt lat="42.70928" lon="-0.05909">
        <ele>2209</ele>
        <time>2015-05-09T06:27:16Z</time>
      </trkpt>
      <trkpt lat="42.70927" lon="-0.0591">
        <ele>2209</ele>
        <time>2015-05-09T06:27:18Z</time>
      </trkpt>
      <trkpt lat="42.70917" lon="-0.05916">
        <ele>2209</ele>
        <time>2015-05-09T06:27:27Z</time>
      </trkpt>
      <trkpt lat="42.70914" lon="-0.05922">
        <ele>2209</ele>
        <time>2015-05-09T06:27:33Z</time>
      </trkpt>
      <trkpt lat="42.7091" lon="-0.05924">
        <ele>2209</ele>
        <time>2015-05-09T06:27:37Z</time>
      </trkpt>
      <trkpt lat="42.70907" lon="-0.05927">
        <ele>2210</ele>
        <time>2015-05-09T06:27:40Z</time>
      </trkpt>
      <trkpt lat="42.70893" lon="-0.05936">
        <ele>2211</ele>
        <time>2015-05-09T06:27:55Z</time>
      </trkpt>
      <trkpt lat="42.7089" lon="-0.0594">
        <ele>2211</ele>
        <time>2015-05-09T06:27:59Z</time>
      </trkpt>
      <trkpt lat="42.70879" lon="-0.05954">
        <ele>2212</ele>
        <time>2015-05-09T06:28:13Z</time>
      </trkpt>
      <trkpt lat="42.70871" lon="-0.05966">
        <ele>2213</ele>
        <time>2015-05-09T06:28:25Z</time>
      </trkpt>
      <trkpt lat="42.70857" lon="-0.05986">
        <ele>2214</ele>
        <time>2015-05-09T06:28:43Z</time>
      </trkpt>
      <trkpt lat="42.70844" lon="-0.05996">
        <ele>2215</ele>
        <time>2015-05-09T06:28:57Z</time>
      </trkpt>
      <trkpt lat="42.70842" lon="-0.05998">
        <ele>2215</ele>
        <time>2015-05-09T06:28:59Z</time>
      </trkpt>
      <trkpt lat="42.70834" lon="-0.06004">
        <ele>2217</ele>
        <time>2015-05-09T06:29:09Z</time>
      </trkpt>
      <trkpt lat="42.70827" lon="-0.0601">
        <ele>2217</ele>
        <time>2015-05-09T06:29:17Z</time>
      </trkpt>
      <trkpt lat="42.70821" lon="-0.06013">
        <ele>2217</ele>
        <time>2015-05-09T06:29:23Z</time>
      </trkpt>
      <trkpt lat="42.70819" lon="-0.06015">
        <ele>2218</ele>
        <time>2015-05-09T06:29:25Z</time>
      </trkpt>
      <trkpt lat="42.70816" lon="-0.06018">
        <ele>2218</ele>
        <time>2015-05-09T06:29:30Z</time>
      </trkpt>
      <trkpt lat="42.70805" lon="-0.06031">
        <ele>2220</ele>
        <time>2015-05-09T06:29:44Z</time>
      </trkpt>
      <trkpt lat="42.70793" lon="-0.06043">
        <ele>2222</ele>
        <time>2015-05-09T06:30:00Z</time>
      </trkpt>
      <trkpt lat="42.70791" lon="-0.06049">
        <ele>2221</ele>
        <time>2015-05-09T06:30:04Z</time>
      </trkpt>
      <trkpt lat="42.7079" lon="-0.06051">
        <ele>2221</ele>
        <time>2015-05-09T06:30:06Z</time>
      </trkpt>
      <trkpt lat="42.70787" lon="-0.06053">
        <ele>2222</ele>
        <time>2015-05-09T06:30:10Z</time>
      </trkpt>
      <trkpt lat="42.70779" lon="-0.06061">
        <ele>2224</ele>
        <time>2015-05-09T06:30:21Z</time>
      </trkpt>
      <trkpt lat="42.70768" lon="-0.06075">
        <ele>2224</ele>
        <time>2015-05-09T06:30:35Z</time>
      </trkpt>
      <trkpt lat="42.70756" lon="-0.06085">
        <ele>2226</ele>
        <time>2015-05-09T06:30:49Z</time>
      </trkpt>
      <trkpt lat="42.7075" lon="-0.0609">
        <ele>2226</ele>
        <time>2015-05-09T06:30:57Z</time>
      </trkpt>
      <trkpt lat="42.70749" lon="-0.06094">
        <ele>2227</ele>
        <time>2015-05-09T06:30:59Z</time>
      </trkpt>
      <trkpt lat="42.70738" lon="-0.0611">
        <ele>2228</ele>
        <time>2015-05-09T06:31:15Z</time>
      </trkpt>
      <trkpt lat="42.70736" lon="-0.06115">
        <ele>2229</ele>
        <time>2015-05-09T06:31:28Z</time>
      </trkpt>
      <trkpt lat="42.70732" lon="-0.06122">
        <ele>2229</ele>
        <time>2015-05-09T06:31:35Z</time>
      </trkpt>
      <trkpt lat="42.70728" lon="-0.06126">
        <ele>2229</ele>
        <time>2015-05-09T06:31:40Z</time>
      </trkpt>
      <trkpt lat="42.70724" lon="-0.0614">
        <ele>2230</ele>
        <time>2015-05-09T06:31:53Z</time>
      </trkpt>
      <trkpt lat="42.70721" lon="-0.06156">
        <ele>2232</ele>
        <time>2015-05-09T06:32:08Z</time>
      </trkpt>
      <trkpt lat="42.70717" lon="-0.06168">
        <ele>2234</ele>
        <time>2015-05-09T06:32:24Z</time>
      </trkpt>
      <trkpt lat="42.70713" lon="-0.0618">
        <ele>2236</ele>
        <time>2015-05-09T06:32:38Z</time>
      </trkpt>
      <trkpt lat="42.70707" lon="-0.06192">
        <ele>2236</ele>
        <time>2015-05-09T06:32:53Z</time>
      </trkpt>
      <trkpt lat="42.707" lon="-0.06203">
        <ele>2238</ele>
        <time>2015-05-09T06:33:08Z</time>
      </trkpt>
      <trkpt lat="42.70698" lon="-0.06208">
        <ele>2238</ele>
        <time>2015-05-09T06:33:14Z</time>
      </trkpt>
      <trkpt lat="42.70696" lon="-0.06209">
        <ele>2238</ele>
        <time>2015-05-09T06:33:16Z</time>
      </trkpt>
      <trkpt lat="42.70687" lon="-0.06216">
        <ele>2238</ele>
        <time>2015-05-09T06:33:26Z</time>
      </trkpt>
      <trkpt lat="42.7068" lon="-0.06223">
        <ele>2239</ele>
        <time>2015-05-09T06:33:35Z</time>
      </trkpt>
      <trkpt lat="42.7067" lon="-0.0623">
        <ele>2240</ele>
        <time>2015-05-09T06:33:46Z</time>
      </trkpt>
      <trkpt lat="42.70669" lon="-0.0623">
        <ele>2240</ele>
        <time>2015-05-09T06:33:47Z</time>
      </trkpt>
      <trkpt lat="42.70668" lon="-0.06232">
        <ele>2241</ele>
        <time>2015-05-09T06:33:49Z</time>
      </trkpt>
      <trkpt lat="42.70655" lon="-0.0624">
        <ele>2241</ele>
        <time>2015-05-09T06:34:03Z</time>
      </trkpt>
      <trkpt lat="42.70654" lon="-0.06241">
        <ele>2242</ele>
        <time>2015-05-09T06:34:05Z</time>
      </trkpt>
      <trkpt lat="42.70647" lon="-0.06255">
        <ele>2243</ele>
        <time>2015-05-09T06:34:15Z</time>
      </trkpt>
      <trkpt lat="42.70644" lon="-0.06259">
        <ele>2243</ele>
        <time>2015-05-09T06:34:20Z</time>
      </trkpt>
      <trkpt lat="42.70642" lon="-0.06259">
        <ele>2244</ele>
        <time>2015-05-09T06:34:22Z</time>
      </trkpt>
      <trkpt lat="42.70636" lon="-0.06267">
        <ele>2245</ele>
        <time>2015-05-09T06:34:34Z</time>
      </trkpt>
      <trkpt lat="42.70633" lon="-0.06269">
        <ele>2245</ele>
        <time>2015-05-09T06:34:39Z</time>
      </trkpt>
      <trkpt lat="42.70631" lon="-0.0627">
        <ele>2246</ele>
        <time>2015-05-09T06:34:40Z</time>
      </trkpt>
      <trkpt lat="42.70628" lon="-0.06274">
        <ele>2246</ele>
        <time>2015-05-09T06:34:45Z</time>
      </trkpt>
      <trkpt lat="42.70624" lon="-0.06276">
        <ele>2247</ele>
        <time>2015-05-09T06:34:48Z</time>
      </trkpt>
      <trkpt lat="42.70613" lon="-0.06284">
        <ele>2248</ele>
        <time>2015-05-09T06:35:01Z</time>
      </trkpt>
      <trkpt lat="42.70612" lon="-0.06286">
        <ele>2248</ele>
        <time>2015-05-09T06:35:03Z</time>
      </trkpt>
      <trkpt lat="42.70605" lon="-0.06294">
        <ele>2249</ele>
        <time>2015-05-09T06:35:17Z</time>
      </trkpt>
      <trkpt lat="42.70597" lon="-0.06299">
        <ele>2251</ele>
        <time>2015-05-09T06:35:32Z</time>
      </trkpt>
      <trkpt lat="42.70588" lon="-0.06305">
        <ele>2252</ele>
        <time>2015-05-09T06:35:45Z</time>
      </trkpt>
      <trkpt lat="42.70584" lon="-0.06313">
        <ele>2253</ele>
        <time>2015-05-09T06:35:53Z</time>
      </trkpt>
      <trkpt lat="42.70581" lon="-0.06318">
        <ele>2253</ele>
        <time>2015-05-09T06:36:00Z</time>
      </trkpt>
      <trkpt lat="42.70575" lon="-0.06318">
        <ele>2254</ele>
        <time>2015-05-09T06:36:06Z</time>
      </trkpt>
      <trkpt lat="42.70568" lon="-0.0632">
        <ele>2255</ele>
        <time>2015-05-09T06:36:14Z</time>
      </trkpt>
      <trkpt lat="42.70565" lon="-0.06322">
        <ele>2256</ele>
        <time>2015-05-09T06:36:17Z</time>
      </trkpt>
      <trkpt lat="42.70562" lon="-0.06322">
        <ele>2255</ele>
        <time>2015-05-09T06:36:20Z</time>
      </trkpt>
      <trkpt lat="42.7055" lon="-0.06328">
        <ele>2257</ele>
        <time>2015-05-09T06:36:33Z</time>
      </trkpt>
      <trkpt lat="42.70538" lon="-0.06328">
        <ele>2258</ele>
        <time>2015-05-09T06:36:45Z</time>
      </trkpt>
      <trkpt lat="42.70533" lon="-0.06333">
        <ele>2259</ele>
        <time>2015-05-09T06:36:52Z</time>
      </trkpt>
      <trkpt lat="42.70524" lon="-0.06337">
        <ele>2260</ele>
        <time>2015-05-09T06:37:01Z</time>
      </trkpt>
      <trkpt lat="42.70521" lon="-0.06339">
        <ele>2261</ele>
        <time>2015-05-09T06:37:05Z</time>
      </trkpt>
      <trkpt lat="42.70505" lon="-0.06344">
        <ele>2262</ele>
        <time>2015-05-09T06:37:20Z</time>
      </trkpt>
      <trkpt lat="42.70488" lon="-0.06344">
        <ele>2263</ele>
        <time>2015-05-09T06:37:32Z</time>
      </trkpt>
      <trkpt lat="42.70483" lon="-0.06345">
        <ele>2264</ele>
        <time>2015-05-09T06:37:38Z</time>
      </trkpt>
      <trkpt lat="42.70464" lon="-0.0635">
        <ele>2265</ele>
        <time>2015-05-09T06:37:54Z</time>
      </trkpt>
      <trkpt lat="42.70462" lon="-0.0635">
        <ele>2265</ele>
        <time>2015-05-09T06:37:56Z</time>
      </trkpt>
      <trkpt lat="42.7045" lon="-0.06353">
        <ele>2266</ele>
        <time>2015-05-09T06:38:06Z</time>
      </trkpt>
      <trkpt lat="42.70433" lon="-0.06357">
        <ele>2268</ele>
        <time>2015-05-09T06:38:22Z</time>
      </trkpt>
      <trkpt lat="42.7042" lon="-0.06358">
        <ele>2269</ele>
        <time>2015-05-09T06:38:36Z</time>
      </trkpt>
      <trkpt lat="42.70411" lon="-0.06362">
        <ele>2270</ele>
        <time>2015-05-09T06:38:46Z</time>
      </trkpt>
      <trkpt lat="42.70405" lon="-0.06375">
        <ele>2272</ele>
        <time>2015-05-09T06:39:00Z</time>
      </trkpt>
      <trkpt lat="42.704" lon="-0.06387">
        <ele>2273</ele>
        <time>2015-05-09T06:39:12Z</time>
      </trkpt>
      <trkpt lat="42.70397" lon="-0.06397">
        <ele>2273</ele>
        <time>2015-05-09T06:39:20Z</time>
      </trkpt>
      <trkpt lat="42.70391" lon="-0.06408">
        <ele>2275</ele>
        <time>2015-05-09T06:39:33Z</time>
      </trkpt>
      <trkpt lat="42.7039" lon="-0.06411">
        <ele>2274</ele>
        <time>2015-05-09T06:39:51Z</time>
      </trkpt>
      <trkpt lat="42.70388" lon="-0.06421">
        <ele>2275</ele>
        <time>2015-05-09T06:40:03Z</time>
      </trkpt>
      <trkpt lat="42.70386" lon="-0.06423">
        <ele>2275</ele>
        <time>2015-05-09T06:40:22Z</time>
      </trkpt>
      <trkpt lat="42.70387" lon="-0.06427">
        <ele>2276</ele>
        <time>2015-05-09T06:40:39Z</time>
      </trkpt>
      <trkpt lat="42.70382" lon="-0.06418">
        <ele>2276</ele>
        <time>2015-05-09T06:40:52Z</time>
      </trkpt>
      <trkpt lat="42.70377" lon="-0.06417">
        <ele>2276</ele>
        <time>2015-05-09T06:41:06Z</time>
      </trkpt>
      <trkpt lat="42.70372" lon="-0.06419">
        <ele>2276</ele>
        <time>2015-05-09T06:41:18Z</time>
      </trkpt>
      <trkpt lat="42.70368" lon="-0.06413">
        <ele>2277</ele>
        <time>2015-05-09T06:41:35Z</time>
      </trkpt>
      <trkpt lat="42.70365" lon="-0.06407">
        <ele>2279</ele>
        <time>2015-05-09T06:41:46Z</time>
      </trkpt>
      <trkpt lat="42.70365" lon="-0.06395">
        <ele>2280</ele>
        <time>2015-05-09T06:41:59Z</time>
      </trkpt>
      <trkpt lat="42.70363" lon="-0.06383">
        <ele>2281</ele>
        <time>2015-05-09T06:42:13Z</time>
      </trkpt>
      <trkpt lat="42.7036" lon="-0.06372">
        <ele>2284</ele>
        <time>2015-05-09T06:42:28Z</time>
      </trkpt>
      <trkpt lat="42.70358" lon="-0.06359">
        <ele>2286</ele>
        <time>2015-05-09T06:42:41Z</time>
      </trkpt>
      <trkpt lat="42.70354" lon="-0.06349">
        <ele>2287</ele>
        <time>2015-05-09T06:42:55Z</time>
      </trkpt>
      <trkpt lat="42.70352" lon="-0.06337">
        <ele>2289</ele>
        <time>2015-05-09T06:43:08Z</time>
      </trkpt>
      <trkpt lat="42.70352" lon="-0.06324">
        <ele>2291</ele>
        <time>2015-05-09T06:43:22Z</time>
      </trkpt>
      <trkpt lat="42.7035" lon="-0.06311">
        <ele>2292</ele>
        <time>2015-05-09T06:43:35Z</time>
      </trkpt>
      <trkpt lat="42.70351" lon="-0.06297">
        <ele>2294</ele>
        <time>2015-05-09T06:43:50Z</time>
      </trkpt>
      <trkpt lat="42.70351" lon="-0.06285">
        <ele>2296</ele>
        <time>2015-05-09T06:44:03Z</time>
      </trkpt>
      <trkpt lat="42.70351" lon="-0.06274">
        <ele>2298</ele>
        <time>2015-05-09T06:44:16Z</time>
      </trkpt>
      <trkpt lat="42.70349" lon="-0.06263">
        <ele>2301</ele>
        <time>2015-05-09T06:44:30Z</time>
      </trkpt>
      <trkpt lat="42.70348" lon="-0.06255">
        <ele>2302</ele>
        <time>2015-05-09T06:44:38Z</time>
      </trkpt>
      <trkpt lat="42.70348" lon="-0.06241">
        <ele>2304</ele>
        <time>2015-05-09T06:44:52Z</time>
      </trkpt>
      <trkpt lat="42.70345" lon="-0.06231">
        <ele>2305</ele>
        <time>2015-05-09T06:45:04Z</time>
      </trkpt>
      <trkpt lat="42.70343" lon="-0.06218">
        <ele>2306</ele>
        <time>2015-05-09T06:45:18Z</time>
      </trkpt>
      <trkpt lat="42.7034" lon="-0.06202">
        <ele>2307</ele>
        <time>2015-05-09T06:45:32Z</time>
      </trkpt>
      <trkpt lat="42.70335" lon="-0.06197">
        <ele>2309</ele>
        <time>2015-05-09T06:45:45Z</time>
      </trkpt>
      <trkpt lat="42.70334" lon="-0.06195">
        <ele>2310</ele>
        <time>2015-05-09T06:45:50Z</time>
      </trkpt>
      <trkpt lat="42.70333" lon="-0.06181">
        <ele>2311</ele>
        <time>2015-05-09T06:46:07Z</time>
      </trkpt>
      <trkpt lat="42.70331" lon="-0.06169">
        <ele>2312</ele>
        <time>2015-05-09T06:46:22Z</time>
      </trkpt>
      <trkpt lat="42.70328" lon="-0.06155">
        <ele>2315</ele>
        <time>2015-05-09T06:46:41Z</time>
      </trkpt>
      <trkpt lat="42.70325" lon="-0.06143">
        <ele>2317</ele>
        <time>2015-05-09T06:46:58Z</time>
      </trkpt>
      <trkpt lat="42.70324" lon="-0.06131">
        <ele>2318</ele>
        <time>2015-05-09T06:47:13Z</time>
      </trkpt>
      <trkpt lat="42.70323" lon="-0.06116">
        <ele>2320</ele>
        <time>2015-05-09T06:47:29Z</time>
      </trkpt>
      <trkpt lat="42.70321" lon="-0.06102">
        <ele>2321</ele>
        <time>2015-05-09T06:47:45Z</time>
      </trkpt>
      <trkpt lat="42.70319" lon="-0.06089">
        <ele>2322</ele>
        <time>2015-05-09T06:48:00Z</time>
      </trkpt>
      <trkpt lat="42.70317" lon="-0.06074">
        <ele>2324</ele>
        <time>2015-05-09T06:48:17Z</time>
      </trkpt>
      <trkpt lat="42.70315" lon="-0.06058">
        <ele>2325</ele>
        <time>2015-05-09T06:48:34Z</time>
      </trkpt>
      <trkpt lat="42.70314" lon="-0.06043">
        <ele>2325</ele>
        <time>2015-05-09T06:48:50Z</time>
      </trkpt>
      <trkpt lat="42.70314" lon="-0.06041">
        <ele>2325</ele>
        <time>2015-05-09T06:48:52Z</time>
      </trkpt>
      <trkpt lat="42.70315" lon="-0.06024">
        <ele>2324</ele>
        <time>2015-05-09T06:49:07Z</time>
      </trkpt>
      <trkpt lat="42.70316" lon="-0.06012">
        <ele>2324</ele>
        <time>2015-05-09T06:49:17Z</time>
      </trkpt>
      <trkpt lat="42.70315" lon="-0.06011">
        <ele>2324</ele>
        <time>2015-05-09T06:49:18Z</time>
      </trkpt>
      <trkpt lat="42.70312" lon="-0.05992">
        <ele>2324</ele>
        <time>2015-05-09T06:49:32Z</time>
      </trkpt>
      <trkpt lat="42.70308" lon="-0.05972">
        <ele>2323</ele>
        <time>2015-05-09T06:49:46Z</time>
      </trkpt>
      <trkpt lat="42.70304" lon="-0.05954">
        <ele>2323</ele>
        <time>2015-05-09T06:50:00Z</time>
      </trkpt>
      <trkpt lat="42.70299" lon="-0.05938">
        <ele>2323</ele>
        <time>2015-05-09T06:50:13Z</time>
      </trkpt>
      <trkpt lat="42.70296" lon="-0.05931">
        <ele>2323</ele>
        <time>2015-05-09T06:50:20Z</time>
      </trkpt>
      <trkpt lat="42.70296" lon="-0.05927">
        <ele>2323</ele>
        <time>2015-05-09T06:50:23Z</time>
      </trkpt>
      <trkpt lat="42.70289" lon="-0.05911">
        <ele>2323</ele>
        <time>2015-05-09T06:50:39Z</time>
      </trkpt>
      <trkpt lat="42.70289" lon="-0.05903">
        <ele>2323</ele>
        <time>2015-05-09T06:50:54Z</time>
      </trkpt>
      <trkpt lat="42.70289" lon="-0.05904">
        <ele>2323</ele>
        <time>2015-05-09T06:51:16Z</time>
      </trkpt>
      <trkpt lat="42.7029" lon="-0.05903">
        <ele>2322</ele>
        <time>2015-05-09T06:51:24Z</time>
      </trkpt>
      <trkpt lat="42.7029" lon="-0.05902">
        <ele>2322</ele>
        <time>2015-05-09T06:51:48Z</time>
      </trkpt>
      <trkpt lat="42.70291" lon="-0.05902">
        <ele>2321</ele>
        <time>2015-05-09T06:52:15Z</time>
      </trkpt>
      <trkpt lat="42.70289" lon="-0.05903">
        <ele>2322</ele>
        <time>2015-05-09T06:52:38Z</time>
      </trkpt>
      <trkpt lat="42.70286" lon="-0.05903">
        <ele>2322</ele>
        <time>2015-05-09T06:53:19Z</time>
      </trkpt>
      <trkpt lat="42.70288" lon="-0.05903">
        <ele>2322</ele>
        <time>2015-05-09T06:53:56Z</time>
      </trkpt>
      <trkpt lat="42.7029" lon="-0.05903">
        <ele>2322</ele>
        <time>2015-05-09T06:54:41Z</time>
      </trkpt>
      <trkpt lat="42.7029" lon="-0.05904">
        <ele>2322</ele>
        <time>2015-05-09T06:55:18Z</time>
      </trkpt>
      <trkpt lat="42.7029" lon="-0.05904">
        <ele>2323</ele>
        <time>2015-05-09T06:55:58Z</time>
      </trkpt>
      <trkpt lat="42.70289" lon="-0.05903">
        <ele>2323</ele>
        <time>2015-05-09T06:56:38Z</time>
      </trkpt>
      <trkpt lat="42.70291" lon="-0.05904">
        <ele>2323</ele>
        <time>2015-05-09T06:57:09Z</time>
      </trkpt>
      <trkpt lat="42.70293" lon="-0.05904">
        <ele>2324</ele>
        <time>2015-05-09T06:57:34Z</time>
      </trkpt>
      <trkpt lat="42.70293" lon="-0.05905">
        <ele>2324</ele>
        <time>2015-05-09T06:57:56Z</time>
      </trkpt>
      <trkpt lat="42.70292" lon="-0.05903">
        <ele>2323</ele>
        <time>2015-05-09T06:58:17Z</time>
      </trkpt>
      <trkpt lat="42.70289" lon="-0.05902">
        <ele>2323</ele>
        <time>2015-05-09T06:58:43Z</time>
      </trkpt>
      <trkpt lat="42.7029" lon="-0.05903">
        <ele>2324</ele>
        <time>2015-05-09T06:59:03Z</time>
      </trkpt>
      <trkpt lat="42.70289" lon="-0.05902">
        <ele>2324</ele>
        <time>2015-05-09T06:59:31Z</time>
      </trkpt>
      <trkpt lat="42.7029" lon="-0.05904">
        <ele>2323</ele>
        <time>2015-05-09T07:00:01Z</time>
      </trkpt>
      <trkpt lat="42.70292" lon="-0.05902">
        <ele>2325</ele>
        <time>2015-05-09T07:00:17Z</time>
      </trkpt>
      <trkpt lat="42.7029" lon="-0.05904">
        <ele>2326</ele>
        <time>2015-05-09T07:00:33Z</time>
      </trkpt>
      <trkpt lat="42.7029" lon="-0.05902">
        <ele>2325</ele>
        <time>2015-05-09T07:00:49Z</time>
      </trkpt>
      <trkpt lat="42.70289" lon="-0.05905">
        <ele>2325</ele>
        <time>2015-05-09T07:01:07Z</time>
      </trkpt>
      <trkpt lat="42.7029" lon="-0.05904">
        <ele>2325</ele>
        <time>2015-05-09T07:01:24Z</time>
      </trkpt>
      <trkpt lat="42.7029" lon="-0.05904">
        <ele>2326</ele>
        <time>2015-05-09T07:01:41Z</time>
      </trkpt>
      <trkpt lat="42.7029" lon="-0.05903">
        <ele>2326</ele>
        <time>2015-05-09T07:01:55Z</time>
      </trkpt>
      <trkpt lat="42.70289" lon="-0.059">
        <ele>2327</ele>
        <time>2015-05-09T07:02:03Z</time>
      </trkpt>
      <trkpt lat="42.70288" lon="-0.059">
        <ele>2326</ele>
        <time>2015-05-09T07:02:19Z</time>
      </trkpt>
      <trkpt lat="42.70287" lon="-0.05897">
        <ele>2326</ele>
        <time>2015-05-09T07:02:21Z</time>
      </trkpt>
      <trkpt lat="42.70284" lon="-0.05884">
        <ele>2325</ele>
        <time>2015-05-09T07:02:30Z</time>
      </trkpt>
      <trkpt lat="42.70283" lon="-0.05882">
        <ele>2326</ele>
        <time>2015-05-09T07:02:32Z</time>
      </trkpt>
      <trkpt lat="42.70281" lon="-0.05862">
        <ele>2325</ele>
        <time>2015-05-09T07:02:45Z</time>
      </trkpt>
      <trkpt lat="42.70277" lon="-0.05843">
        <ele>2325</ele>
        <time>2015-05-09T07:02:58Z</time>
      </trkpt>
      <trkpt lat="42.70274" lon="-0.05827">
        <ele>2324</ele>
        <time>2015-05-09T07:03:09Z</time>
      </trkpt>
      <trkpt lat="42.70272" lon="-0.05819">
        <ele>2324</ele>
        <time>2015-05-09T07:03:13Z</time>
      </trkpt>
      <trkpt lat="42.7027" lon="-0.05806">
        <ele>2324</ele>
        <time>2015-05-09T07:03:21Z</time>
      </trkpt>
      <trkpt lat="42.70269" lon="-0.05797">
        <ele>2323</ele>
        <time>2015-05-09T07:03:27Z</time>
      </trkpt>
      <trkpt lat="42.70263" lon="-0.05775">
        <ele>2323</ele>
        <time>2015-05-09T07:03:42Z</time>
      </trkpt>
      <trkpt lat="42.70261" lon="-0.05767">
        <ele>2323</ele>
        <time>2015-05-09T07:03:47Z</time>
      </trkpt>
      <trkpt lat="42.70261" lon="-0.05762">
        <ele>2322</ele>
        <time>2015-05-09T07:03:51Z</time>
      </trkpt>
      <trkpt lat="42.70258" lon="-0.05753">
        <ele>2322</ele>
        <time>2015-05-09T07:03:57Z</time>
      </trkpt>
      <trkpt lat="42.70254" lon="-0.05733">
        <ele>2323</ele>
        <time>2015-05-09T07:04:12Z</time>
      </trkpt>
      <trkpt lat="42.7025" lon="-0.05711">
        <ele>2323</ele>
        <time>2015-05-09T07:04:28Z</time>
      </trkpt>
      <trkpt lat="42.7025" lon="-0.05704">
        <ele>2322</ele>
        <time>2015-05-09T07:04:33Z</time>
      </trkpt>
      <trkpt lat="42.70245" lon="-0.05682">
        <ele>2323</ele>
        <time>2015-05-09T07:04:49Z</time>
      </trkpt>
      <trkpt lat="42.7024" lon="-0.05664">
        <ele>2323</ele>
        <time>2015-05-09T07:05:03Z</time>
      </trkpt>
      <trkpt lat="42.70234" lon="-0.05643">
        <ele>2323</ele>
        <time>2015-05-09T07:05:19Z</time>
      </trkpt>
      <trkpt lat="42.70231" lon="-0.05626">
        <ele>2322</ele>
        <time>2015-05-09T07:05:32Z</time>
      </trkpt>
      <trkpt lat="42.70224" lon="-0.056">
        <ele>2321</ele>
        <time>2015-05-09T07:05:49Z</time>
      </trkpt>
      <trkpt lat="42.7022" lon="-0.05578">
        <ele>2319</ele>
        <time>2015-05-09T07:06:04Z</time>
      </trkpt>
      <trkpt lat="42.70217" lon="-0.05557">
        <ele>2319</ele>
        <time>2015-05-09T07:06:18Z</time>
      </trkpt>
      <trkpt lat="42.70213" lon="-0.05536">
        <ele>2319</ele>
        <time>2015-05-09T07:06:33Z</time>
      </trkpt>
      <trkpt lat="42.70213" lon="-0.05533">
        <ele>2320</ele>
        <time>2015-05-09T07:06:36Z</time>
      </trkpt>
      <trkpt lat="42.70212" lon="-0.05518">
        <ele>2320</ele>
        <time>2015-05-09T07:06:47Z</time>
      </trkpt>
      <trkpt lat="42.70208" lon="-0.05496">
        <ele>2320</ele>
        <time>2015-05-09T07:07:03Z</time>
      </trkpt>
      <trkpt lat="42.70208" lon="-0.05492">
        <ele>2320</ele>
        <time>2015-05-09T07:07:06Z</time>
      </trkpt>
      <trkpt lat="42.70205" lon="-0.05469">
        <ele>2320</ele>
        <time>2015-05-09T07:07:22Z</time>
      </trkpt>
      <trkpt lat="42.70206" lon="-0.05449">
        <ele>2320</ele>
        <time>2015-05-09T07:07:36Z</time>
      </trkpt>
      <trkpt lat="42.70205" lon="-0.0543">
        <ele>2321</ele>
        <time>2015-05-09T07:07:50Z</time>
      </trkpt>
      <trkpt lat="42.70204" lon="-0.05412">
        <ele>2322</ele>
        <time>2015-05-09T07:08:04Z</time>
      </trkpt>
      <trkpt lat="42.70205" lon="-0.05396">
        <ele>2323</ele>
        <time>2015-05-09T07:08:17Z</time>
      </trkpt>
      <trkpt lat="42.70206" lon="-0.05376">
        <ele>2324</ele>
        <time>2015-05-09T07:08:33Z</time>
      </trkpt>
      <trkpt lat="42.70205" lon="-0.05365">
        <ele>2325</ele>
        <time>2015-05-09T07:08:50Z</time>
      </trkpt>
      <trkpt lat="42.70202" lon="-0.05348">
        <ele>2327</ele>
        <time>2015-05-09T07:09:06Z</time>
      </trkpt>
      <trkpt lat="42.70201" lon="-0.05342">
        <ele>2327</ele>
        <time>2015-05-09T07:09:21Z</time>
      </trkpt>
      <trkpt lat="42.702" lon="-0.05326">
        <ele>2327</ele>
        <time>2015-05-09T07:09:35Z</time>
      </trkpt>
      <trkpt lat="42.70197" lon="-0.05306">
        <ele>2328</ele>
        <time>2015-05-09T07:09:51Z</time>
      </trkpt>
      <trkpt lat="42.70196" lon="-0.05296">
        <ele>2328</ele>
        <time>2015-05-09T07:09:58Z</time>
      </trkpt>
      <trkpt lat="42.70194" lon="-0.05274">
        <ele>2329</ele>
        <time>2015-05-09T07:10:16Z</time>
      </trkpt>
      <trkpt lat="42.70192" lon="-0.05255">
        <ele>2330</ele>
        <time>2015-05-09T07:10:32Z</time>
      </trkpt>
      <trkpt lat="42.70192" lon="-0.05235">
        <ele>2331</ele>
        <time>2015-05-09T07:10:51Z</time>
      </trkpt>
      <trkpt lat="42.70194" lon="-0.05217">
        <ele>2332</ele>
        <time>2015-05-09T07:11:08Z</time>
      </trkpt>
      <trkpt lat="42.70195" lon="-0.05199">
        <ele>2334</ele>
        <time>2015-05-09T07:11:24Z</time>
      </trkpt>
      <trkpt lat="42.70197" lon="-0.05182">
        <ele>2335</ele>
        <time>2015-05-09T07:11:40Z</time>
      </trkpt>
      <trkpt lat="42.702" lon="-0.05165">
        <ele>2335</ele>
        <time>2015-05-09T07:11:55Z</time>
      </trkpt>
      <trkpt lat="42.70203" lon="-0.05144">
        <ele>2334</ele>
        <time>2015-05-09T07:12:09Z</time>
      </trkpt>
      <trkpt lat="42.70202" lon="-0.05139">
        <ele>2335</ele>
        <time>2015-05-09T07:12:14Z</time>
      </trkpt>
      <trkpt lat="42.70198" lon="-0.05121">
        <ele>2337</ele>
        <time>2015-05-09T07:12:32Z</time>
      </trkpt>
      <trkpt lat="42.70196" lon="-0.05102">
        <ele>2339</ele>
        <time>2015-05-09T07:12:50Z</time>
      </trkpt>
      <trkpt lat="42.70195" lon="-0.05088">
        <ele>2339</ele>
        <time>2015-05-09T07:13:01Z</time>
      </trkpt>
      <trkpt lat="42.70195" lon="-0.05078">
        <ele>2340</ele>
        <time>2015-05-09T07:13:09Z</time>
      </trkpt>
      <trkpt lat="42.70192" lon="-0.0506">
        <ele>2341</ele>
        <time>2015-05-09T07:13:25Z</time>
      </trkpt>
      <trkpt lat="42.70191" lon="-0.05042">
        <ele>2342</ele>
        <time>2015-05-09T07:13:42Z</time>
      </trkpt>
      <trkpt lat="42.7019" lon="-0.05026">
        <ele>2344</ele>
        <time>2015-05-09T07:13:58Z</time>
      </trkpt>
      <trkpt lat="42.70188" lon="-0.05011">
        <ele>2346</ele>
        <time>2015-05-09T07:14:14Z</time>
      </trkpt>
      <trkpt lat="42.70186" lon="-0.04997">
        <ele>2348</ele>
        <time>2015-05-09T07:14:28Z</time>
      </trkpt>
      <trkpt lat="42.70185" lon="-0.0498">
        <ele>2351</ele>
        <time>2015-05-09T07:14:46Z</time>
      </trkpt>
      <trkpt lat="42.70185" lon="-0.04961">
        <ele>2352</ele>
        <time>2015-05-09T07:15:04Z</time>
      </trkpt>
      <trkpt lat="42.70183" lon="-0.04947">
        <ele>2353</ele>
        <time>2015-05-09T07:15:18Z</time>
      </trkpt>
      <trkpt lat="42.70182" lon="-0.04938">
        <ele>2354</ele>
        <time>2015-05-09T07:15:26Z</time>
      </trkpt>
      <trkpt lat="42.70181" lon="-0.04921">
        <ele>2355</ele>
        <time>2015-05-09T07:15:41Z</time>
      </trkpt>
      <trkpt lat="42.70183" lon="-0.04906">
        <ele>2358</ele>
        <time>2015-05-09T07:15:56Z</time>
      </trkpt>
      <trkpt lat="42.70185" lon="-0.04889">
        <ele>2358</ele>
        <time>2015-05-09T07:16:10Z</time>
      </trkpt>
      <trkpt lat="42.70184" lon="-0.04886">
        <ele>2358</ele>
        <time>2015-05-09T07:16:24Z</time>
      </trkpt>
      <trkpt lat="42.70185" lon="-0.04881">
        <ele>2359</ele>
        <time>2015-05-09T07:16:40Z</time>
      </trkpt>
      <trkpt lat="42.7019" lon="-0.04864">
        <ele>2358</ele>
        <time>2015-05-09T07:16:54Z</time>
      </trkpt>
      <trkpt lat="42.70194" lon="-0.04846">
        <ele>2356</ele>
        <time>2015-05-09T07:17:07Z</time>
      </trkpt>
      <trkpt lat="42.70197" lon="-0.04834">
        <ele>2356</ele>
        <time>2015-05-09T07:17:20Z</time>
      </trkpt>
      <trkpt lat="42.70201" lon="-0.04824">
        <ele>2355</ele>
        <time>2015-05-09T07:17:28Z</time>
      </trkpt>
      <trkpt lat="42.70201" lon="-0.04815">
        <ele>2355</ele>
        <time>2015-05-09T07:17:33Z</time>
      </trkpt>
      <trkpt lat="42.70194" lon="-0.048">
        <ele>2356</ele>
        <time>2015-05-09T07:17:45Z</time>
      </trkpt>
      <trkpt lat="42.70187" lon="-0.04787">
        <ele>2357</ele>
        <time>2015-05-09T07:17:59Z</time>
      </trkpt>
      <trkpt lat="42.70186" lon="-0.04786">
        <ele>2358</ele>
        <time>2015-05-09T07:18:01Z</time>
      </trkpt>
      <trkpt lat="42.70184" lon="-0.0478">
        <ele>2358</ele>
        <time>2015-05-09T07:18:06Z</time>
      </trkpt>
      <trkpt lat="42.70181" lon="-0.04765">
        <ele>2359</ele>
        <time>2015-05-09T07:18:21Z</time>
      </trkpt>
      <trkpt lat="42.70181" lon="-0.04761">
        <ele>2360</ele>
        <time>2015-05-09T07:18:25Z</time>
      </trkpt>
      <trkpt lat="42.70176" lon="-0.04743">
        <ele>2361</ele>
        <time>2015-05-09T07:18:40Z</time>
      </trkpt>
      <trkpt lat="42.70173" lon="-0.04737">
        <ele>2362</ele>
        <time>2015-05-09T07:18:55Z</time>
      </trkpt>
      <trkpt lat="42.70173" lon="-0.04737">
        <ele>2361</ele>
        <time>2015-05-09T07:19:18Z</time>
      </trkpt>
      <trkpt lat="42.70174" lon="-0.04737">
        <ele>2361</ele>
        <time>2015-05-09T07:19:37Z</time>
      </trkpt>
      <trkpt lat="42.70174" lon="-0.04735">
        <ele>2361</ele>
        <time>2015-05-09T07:19:53Z</time>
      </trkpt>
      <trkpt lat="42.70175" lon="-0.04737">
        <ele>2361</ele>
        <time>2015-05-09T07:20:09Z</time>
      </trkpt>
      <trkpt lat="42.70173" lon="-0.04738">
        <ele>2361</ele>
        <time>2015-05-09T07:20:26Z</time>
      </trkpt>
      <trkpt lat="42.70172" lon="-0.04732">
        <ele>2362</ele>
        <time>2015-05-09T07:20:51Z</time>
      </trkpt>
      <trkpt lat="42.70168" lon="-0.0472">
        <ele>2363</ele>
        <time>2015-05-09T07:21:05Z</time>
      </trkpt>
      <trkpt lat="42.70163" lon="-0.04703">
        <ele>2364</ele>
        <time>2015-05-09T07:21:23Z</time>
      </trkpt>
      <trkpt lat="42.70159" lon="-0.04687">
        <ele>2365</ele>
        <time>2015-05-09T07:21:38Z</time>
      </trkpt>
      <trkpt lat="42.70155" lon="-0.04672">
        <ele>2366</ele>
        <time>2015-05-09T07:21:53Z</time>
      </trkpt>
      <trkpt lat="42.70151" lon="-0.04654">
        <ele>2369</ele>
        <time>2015-05-09T07:22:13Z</time>
      </trkpt>
      <trkpt lat="42.70148" lon="-0.0464">
        <ele>2372</ele>
        <time>2015-05-09T07:22:31Z</time>
      </trkpt>
      <trkpt lat="42.70146" lon="-0.04627">
        <ele>2374</ele>
        <time>2015-05-09T07:22:46Z</time>
      </trkpt>
      <trkpt lat="42.70144" lon="-0.0461">
        <ele>2377</ele>
        <time>2015-05-09T07:23:06Z</time>
      </trkpt>
      <trkpt lat="42.70142" lon="-0.04595">
        <ele>2378</ele>
        <time>2015-05-09T07:23:22Z</time>
      </trkpt>
      <trkpt lat="42.70139" lon="-0.04575">
        <ele>2379</ele>
        <time>2015-05-09T07:23:40Z</time>
      </trkpt>
      <trkpt lat="42.70137" lon="-0.04564">
        <ele>2379</ele>
        <time>2015-05-09T07:23:48Z</time>
      </trkpt>
      <trkpt lat="42.70136" lon="-0.04554">
        <ele>2380</ele>
        <time>2015-05-09T07:23:57Z</time>
      </trkpt>
      <trkpt lat="42.70135" lon="-0.04537">
        <ele>2382</ele>
        <time>2015-05-09T07:24:12Z</time>
      </trkpt>
      <trkpt lat="42.70133" lon="-0.04521">
        <ele>2382</ele>
        <time>2015-05-09T07:24:28Z</time>
      </trkpt>
      <trkpt lat="42.70132" lon="-0.04504">
        <ele>2384</ele>
        <time>2015-05-09T07:24:44Z</time>
      </trkpt>
      <trkpt lat="42.70131" lon="-0.04499">
        <ele>2385</ele>
        <time>2015-05-09T07:24:48Z</time>
      </trkpt>
      <trkpt lat="42.7013" lon="-0.0448">
        <ele>2386</ele>
        <time>2015-05-09T07:25:06Z</time>
      </trkpt>
      <trkpt lat="42.70128" lon="-0.04469">
        <ele>2387</ele>
        <time>2015-05-09T07:25:16Z</time>
      </trkpt>
      <trkpt lat="42.70123" lon="-0.04452">
        <ele>2388</ele>
        <time>2015-05-09T07:25:33Z</time>
      </trkpt>
      <trkpt lat="42.7012" lon="-0.04435">
        <ele>2389</ele>
        <time>2015-05-09T07:25:48Z</time>
      </trkpt>
      <trkpt lat="42.70116" lon="-0.04417">
        <ele>2389</ele>
        <time>2015-05-09T07:26:03Z</time>
      </trkpt>
      <trkpt lat="42.70113" lon="-0.04404">
        <ele>2389</ele>
        <time>2015-05-09T07:26:14Z</time>
      </trkpt>
      <trkpt lat="42.70108" lon="-0.04384">
        <ele>2389</ele>
        <time>2015-05-09T07:26:30Z</time>
      </trkpt>
      <trkpt lat="42.70107" lon="-0.0438">
        <ele>2389</ele>
        <time>2015-05-09T07:26:34Z</time>
      </trkpt>
      <trkpt lat="42.70103" lon="-0.04366">
        <ele>2389</ele>
        <time>2015-05-09T07:26:46Z</time>
      </trkpt>
      <trkpt lat="42.70101" lon="-0.04361">
        <ele>2389</ele>
        <time>2015-05-09T07:26:50Z</time>
      </trkpt>
      <trkpt lat="42.70099" lon="-0.04356">
        <ele>2389</ele>
        <time>2015-05-09T07:26:54Z</time>
      </trkpt>
      <trkpt lat="42.70094" lon="-0.04338">
        <ele>2389</ele>
        <time>2015-05-09T07:27:10Z</time>
      </trkpt>
      <trkpt lat="42.70088" lon="-0.04322">
        <ele>2391</ele>
        <time>2015-05-09T07:27:25Z</time>
      </trkpt>
      <trkpt lat="42.70082" lon="-0.04304">
        <ele>2392</ele>
        <time>2015-05-09T07:27:41Z</time>
      </trkpt>
      <trkpt lat="42.70077" lon="-0.0429">
        <ele>2391</ele>
        <time>2015-05-09T07:27:52Z</time>
      </trkpt>
      <trkpt lat="42.70074" lon="-0.04279">
        <ele>2390</ele>
        <time>2015-05-09T07:28:02Z</time>
      </trkpt>
      <trkpt lat="42.70069" lon="-0.0426">
        <ele>2390</ele>
        <time>2015-05-09T07:28:20Z</time>
      </trkpt>
      <trkpt lat="42.70067" lon="-0.04247">
        <ele>2389</ele>
        <time>2015-05-09T07:28:32Z</time>
      </trkpt>
      <trkpt lat="42.70066" lon="-0.04231">
        <ele>2388</ele>
        <time>2015-05-09T07:28:45Z</time>
      </trkpt>
      <trkpt lat="42.70065" lon="-0.0421">
        <ele>2389</ele>
        <time>2015-05-09T07:29:04Z</time>
      </trkpt>
      <trkpt lat="42.70062" lon="-0.04193">
        <ele>2389</ele>
        <time>2015-05-09T07:29:21Z</time>
      </trkpt>
      <trkpt lat="42.70061" lon="-0.04176">
        <ele>2389</ele>
        <time>2015-05-09T07:29:35Z</time>
      </trkpt>
      <trkpt lat="42.70062" lon="-0.04163">
        <ele>2389</ele>
        <time>2015-05-09T07:29:48Z</time>
      </trkpt>
      <trkpt lat="42.70063" lon="-0.04142">
        <ele>2391</ele>
        <time>2015-05-09T07:30:08Z</time>
      </trkpt>
      <trkpt lat="42.70062" lon="-0.04139">
        <ele>2392</ele>
        <time>2015-05-09T07:30:25Z</time>
      </trkpt>
      <trkpt lat="42.70063" lon="-0.04123">
        <ele>2393</ele>
        <time>2015-05-09T07:30:42Z</time>
      </trkpt>
      <trkpt lat="42.70066" lon="-0.04105">
        <ele>2395</ele>
        <time>2015-05-09T07:30:57Z</time>
      </trkpt>
      <trkpt lat="42.70066" lon="-0.04099">
        <ele>2395</ele>
        <time>2015-05-09T07:31:05Z</time>
      </trkpt>
      <trkpt lat="42.70065" lon="-0.04087">
        <ele>2396</ele>
        <time>2015-05-09T07:31:21Z</time>
      </trkpt>
      <trkpt lat="42.70063" lon="-0.04067">
        <ele>2397</ele>
        <time>2015-05-09T07:31:40Z</time>
      </trkpt>
      <trkpt lat="42.70062" lon="-0.04062">
        <ele>2398</ele>
        <time>2015-05-09T07:31:45Z</time>
      </trkpt>
      <trkpt lat="42.70062" lon="-0.04047">
        <ele>2399</ele>
        <time>2015-05-09T07:32:00Z</time>
      </trkpt>
      <trkpt lat="42.7006" lon="-0.04033">
        <ele>2399</ele>
        <time>2015-05-09T07:32:14Z</time>
      </trkpt>
      <trkpt lat="42.70059" lon="-0.04025">
        <ele>2400</ele>
        <time>2015-05-09T07:32:21Z</time>
      </trkpt>
      <trkpt lat="42.70059" lon="-0.04019">
        <ele>2399</ele>
        <time>2015-05-09T07:32:27Z</time>
      </trkpt>
      <trkpt lat="42.70058" lon="-0.04011">
        <ele>2400</ele>
        <time>2015-05-09T07:32:33Z</time>
      </trkpt>
      <trkpt lat="42.70055" lon="-0.03988">
        <ele>2399</ele>
        <time>2015-05-09T07:32:52Z</time>
      </trkpt>
      <trkpt lat="42.70051" lon="-0.03968">
        <ele>2398</ele>
        <time>2015-05-09T07:33:08Z</time>
      </trkpt>
      <trkpt lat="42.7005" lon="-0.03949">
        <ele>2398</ele>
        <time>2015-05-09T07:33:24Z</time>
      </trkpt>
      <trkpt lat="42.7005" lon="-0.03945">
        <ele>2398</ele>
        <time>2015-05-09T07:33:28Z</time>
      </trkpt>
      <trkpt lat="42.70049" lon="-0.03927">
        <ele>2397</ele>
        <time>2015-05-09T07:33:45Z</time>
      </trkpt>
      <trkpt lat="42.70048" lon="-0.03913">
        <ele>2398</ele>
        <time>2015-05-09T07:34:02Z</time>
      </trkpt>
      <trkpt lat="42.7005" lon="-0.03907">
        <ele>2396</ele>
        <time>2015-05-09T07:34:20Z</time>
      </trkpt>
      <trkpt lat="42.70048" lon="-0.03902">
        <ele>2397</ele>
        <time>2015-05-09T07:34:43Z</time>
      </trkpt>
      <trkpt lat="42.70048" lon="-0.03901">
        <ele>2397</ele>
        <time>2015-05-09T07:34:44Z</time>
      </trkpt>
      <trkpt lat="42.70051" lon="-0.03889">
        <ele>2399</ele>
        <time>2015-05-09T07:34:59Z</time>
      </trkpt>
      <trkpt lat="42.70051" lon="-0.03877">
        <ele>2401</ele>
        <time>2015-05-09T07:35:16Z</time>
      </trkpt>
      <trkpt lat="42.70051" lon="-0.03874">
        <ele>2401</ele>
        <time>2015-05-09T07:35:20Z</time>
      </trkpt>
      <trkpt lat="42.70051" lon="-0.03863">
        <ele>2403</ele>
        <time>2015-05-09T07:35:32Z</time>
      </trkpt>
      <trkpt lat="42.7005" lon="-0.03851">
        <ele>2408</ele>
        <time>2015-05-09T07:35:50Z</time>
      </trkpt>
      <trkpt lat="42.7005" lon="-0.0385">
        <ele>2407</ele>
        <time>2015-05-09T07:36:10Z</time>
      </trkpt>
      <trkpt lat="42.7005" lon="-0.03849">
        <ele>2408</ele>
        <time>2015-05-09T07:36:11Z</time>
      </trkpt>
      <trkpt lat="42.7005" lon="-0.03834">
        <ele>2410</ele>
        <time>2015-05-09T07:36:29Z</time>
      </trkpt>
      <trkpt lat="42.70047" lon="-0.03823">
        <ele>2413</ele>
        <time>2015-05-09T07:36:43Z</time>
      </trkpt>
      <trkpt lat="42.70048" lon="-0.03817">
        <ele>2414</ele>
        <time>2015-05-09T07:37:00Z</time>
      </trkpt>
      <trkpt lat="42.70043" lon="-0.0381">
        <ele>2415</ele>
        <time>2015-05-09T07:37:16Z</time>
      </trkpt>
      <trkpt lat="42.70038" lon="-0.03804">
        <ele>2417</ele>
        <time>2015-05-09T07:37:28Z</time>
      </trkpt>
      <trkpt lat="42.70031" lon="-0.03799">
        <ele>2418</ele>
        <time>2015-05-09T07:37:41Z</time>
      </trkpt>
      <trkpt lat="42.70022" lon="-0.03791">
        <ele>2422</ele>
        <time>2015-05-09T07:37:56Z</time>
      </trkpt>
      <trkpt lat="42.70016" lon="-0.03787">
        <ele>2423</ele>
        <time>2015-05-09T07:38:11Z</time>
      </trkpt>
      <trkpt lat="42.70008" lon="-0.03782">
        <ele>2425</ele>
        <time>2015-05-09T07:38:26Z</time>
      </trkpt>
      <trkpt lat="42.70001" lon="-0.03778">
        <ele>2426</ele>
        <time>2015-05-09T07:38:37Z</time>
      </trkpt>
      <trkpt lat="42.69995" lon="-0.03774">
        <ele>2428</ele>
        <time>2015-05-09T07:38:50Z</time>
      </trkpt>
      <trkpt lat="42.69987" lon="-0.03768">
        <ele>2431</ele>
        <time>2015-05-09T07:39:05Z</time>
      </trkpt>
      <trkpt lat="42.69981" lon="-0.03764">
        <ele>2433</ele>
        <time>2015-05-09T07:39:16Z</time>
      </trkpt>
      <trkpt lat="42.69973" lon="-0.03754">
        <ele>2436</ele>
        <time>2015-05-09T07:39:35Z</time>
      </trkpt>
      <trkpt lat="42.69967" lon="-0.03747">
        <ele>2438</ele>
        <time>2015-05-09T07:39:48Z</time>
      </trkpt>
      <trkpt lat="42.69963" lon="-0.03739">
        <ele>2439</ele>
        <time>2015-05-09T07:40:02Z</time>
      </trkpt>
      <trkpt lat="42.69959" lon="-0.03737">
        <ele>2439</ele>
        <time>2015-05-09T07:40:19Z</time>
      </trkpt>
      <trkpt lat="42.69961" lon="-0.03737">
        <ele>2441</ele>
        <time>2015-05-09T07:40:41Z</time>
      </trkpt>
      <trkpt lat="42.69963" lon="-0.03732">
        <ele>2440</ele>
        <time>2015-05-09T07:40:55Z</time>
      </trkpt>
      <trkpt lat="42.69961" lon="-0.0373">
        <ele>2440</ele>
        <time>2015-05-09T07:41:22Z</time>
      </trkpt>
      <trkpt lat="42.69964" lon="-0.03733">
        <ele>2440</ele>
        <time>2015-05-09T07:41:43Z</time>
      </trkpt>
      <trkpt lat="42.69962" lon="-0.03738">
        <ele>2441</ele>
        <time>2015-05-09T07:41:59Z</time>
      </trkpt>
      <trkpt lat="42.69959" lon="-0.03747">
        <ele>2443</ele>
        <time>2015-05-09T07:42:15Z</time>
      </trkpt>
      <trkpt lat="42.69959" lon="-0.0375">
        <ele>2444</ele>
        <time>2015-05-09T07:42:35Z</time>
      </trkpt>
      <trkpt lat="42.6996" lon="-0.03752">
        <ele>2445</ele>
        <time>2015-05-09T07:42:57Z</time>
      </trkpt>
      <trkpt lat="42.69958" lon="-0.03752">
        <ele>2445</ele>
        <time>2015-05-09T07:43:21Z</time>
      </trkpt>
      <trkpt lat="42.69958" lon="-0.03753">
        <ele>2445</ele>
        <time>2015-05-09T07:43:22Z</time>
      </trkpt>
      <trkpt lat="42.69957" lon="-0.03762">
        <ele>2447</ele>
        <time>2015-05-09T07:43:34Z</time>
      </trkpt>
      <trkpt lat="42.69955" lon="-0.03763">
        <ele>2449</ele>
        <time>2015-05-09T07:43:48Z</time>
      </trkpt>
      <trkpt lat="42.6995" lon="-0.03755">
        <ele>2451</ele>
        <time>2015-05-09T07:44:04Z</time>
      </trkpt>
      <trkpt lat="42.69946" lon="-0.03746">
        <ele>2453</ele>
        <time>2015-05-09T07:44:18Z</time>
      </trkpt>
      <trkpt lat="42.69942" lon="-0.03737">
        <ele>2456</ele>
        <time>2015-05-09T07:44:31Z</time>
      </trkpt>
      <trkpt lat="42.69941" lon="-0.03727">
        <ele>2458</ele>
        <time>2015-05-09T07:44:44Z</time>
      </trkpt>
      <trkpt lat="42.69938" lon="-0.03721">
        <ele>2460</ele>
        <time>2015-05-09T07:44:55Z</time>
      </trkpt>
      <trkpt lat="42.69943" lon="-0.03715">
        <ele>2460</ele>
        <time>2015-05-09T07:45:14Z</time>
      </trkpt>
      <trkpt lat="42.69939" lon="-0.03715">
        <ele>2460</ele>
        <time>2015-05-09T07:45:27Z</time>
      </trkpt>
      <trkpt lat="42.69939" lon="-0.03715">
        <ele>2461</ele>
        <time>2015-05-09T07:45:41Z</time>
      </trkpt>
      <trkpt lat="42.69935" lon="-0.03706">
        <ele>2463</ele>
        <time>2015-05-09T07:45:53Z</time>
      </trkpt>
      <trkpt lat="42.69931" lon="-0.03697">
        <ele>2464</ele>
        <time>2015-05-09T07:46:08Z</time>
      </trkpt>
      <trkpt lat="42.6993" lon="-0.03689">
        <ele>2466</ele>
        <time>2015-05-09T07:46:21Z</time>
      </trkpt>
      <trkpt lat="42.6993" lon="-0.03688">
        <ele>2468</ele>
        <time>2015-05-09T07:46:23Z</time>
      </trkpt>
      <trkpt lat="42.69929" lon="-0.03676">
        <ele>2470</ele>
        <time>2015-05-09T07:46:37Z</time>
      </trkpt>
      <trkpt lat="42.69929" lon="-0.03672">
        <ele>2471</ele>
        <time>2015-05-09T07:46:51Z</time>
      </trkpt>
      <trkpt lat="42.69931" lon="-0.0367">
        <ele>2471</ele>
        <time>2015-05-09T07:47:09Z</time>
      </trkpt>
      <trkpt lat="42.69926" lon="-0.03673">
        <ele>2472</ele>
        <time>2015-05-09T07:47:21Z</time>
      </trkpt>
      <trkpt lat="42.69921" lon="-0.03679">
        <ele>2475</ele>
        <time>2015-05-09T07:47:36Z</time>
      </trkpt>
      <trkpt lat="42.69917" lon="-0.03687">
        <ele>2477</ele>
        <time>2015-05-09T07:47:50Z</time>
      </trkpt>
      <trkpt lat="42.69912" lon="-0.03694">
        <ele>2479</ele>
        <time>2015-05-09T07:48:04Z</time>
      </trkpt>
      <trkpt lat="42.6991" lon="-0.03697">
        <ele>2480</ele>
        <time>2015-05-09T07:48:18Z</time>
      </trkpt>
      <trkpt lat="42.69909" lon="-0.03697">
        <ele>2480</ele>
        <time>2015-05-09T07:48:22Z</time>
      </trkpt>
      <trkpt lat="42.69907" lon="-0.03696">
        <ele>2481</ele>
        <time>2015-05-09T07:48:36Z</time>
      </trkpt>
      <trkpt lat="42.69907" lon="-0.03689">
        <ele>2482</ele>
        <time>2015-05-09T07:48:48Z</time>
      </trkpt>
      <trkpt lat="42.69907" lon="-0.03687">
        <ele>2483</ele>
        <time>2015-05-09T07:48:50Z</time>
      </trkpt>
      <trkpt lat="42.69906" lon="-0.03681">
        <ele>2484</ele>
        <time>2015-05-09T07:48:59Z</time>
      </trkpt>
      <trkpt lat="42.69905" lon="-0.03673">
        <ele>2485</ele>
        <time>2015-05-09T07:49:10Z</time>
      </trkpt>
      <trkpt lat="42.69904" lon="-0.03659">
        <ele>2487</ele>
        <time>2015-05-09T07:49:25Z</time>
      </trkpt>
      <trkpt lat="42.69906" lon="-0.03649">
        <ele>2489</ele>
        <time>2015-05-09T07:49:41Z</time>
      </trkpt>
      <trkpt lat="42.69907" lon="-0.03639">
        <ele>2491</ele>
        <time>2015-05-09T07:49:56Z</time>
      </trkpt>
      <trkpt lat="42.69905" lon="-0.03637">
        <ele>2493</ele>
        <time>2015-05-09T07:50:12Z</time>
      </trkpt>
      <trkpt lat="42.69902" lon="-0.03641">
        <ele>2496</ele>
        <time>2015-05-09T07:50:27Z</time>
      </trkpt>
      <trkpt lat="42.699" lon="-0.03644">
        <ele>2496</ele>
        <time>2015-05-09T07:50:42Z</time>
      </trkpt>
      <trkpt lat="42.69899" lon="-0.03643">
        <ele>2497</ele>
        <time>2015-05-09T07:50:46Z</time>
      </trkpt>
      <trkpt lat="42.69896" lon="-0.03633">
        <ele>2498</ele>
        <time>2015-05-09T07:51:01Z</time>
      </trkpt>
      <trkpt lat="42.69897" lon="-0.03626">
        <ele>2500</ele>
        <time>2015-05-09T07:51:12Z</time>
      </trkpt>
      <trkpt lat="42.69901" lon="-0.03621">
        <ele>2501</ele>
        <time>2015-05-09T07:51:26Z</time>
      </trkpt>
      <trkpt lat="42.69904" lon="-0.03619">
        <ele>2501</ele>
        <time>2015-05-09T07:51:38Z</time>
      </trkpt>
      <trkpt lat="42.69899" lon="-0.03619">
        <ele>2502</ele>
        <time>2015-05-09T07:51:52Z</time>
      </trkpt>
      <trkpt lat="42.69892" lon="-0.0362">
        <ele>2504</ele>
        <time>2015-05-09T07:52:06Z</time>
      </trkpt>
      <trkpt lat="42.69887" lon="-0.03622">
        <ele>2506</ele>
        <time>2015-05-09T07:52:20Z</time>
      </trkpt>
      <trkpt lat="42.69885" lon="-0.03622">
        <ele>2507</ele>
        <time>2015-05-09T07:52:23Z</time>
      </trkpt>
      <trkpt lat="42.69883" lon="-0.03624">
        <ele>2510</ele>
        <time>2015-05-09T07:52:39Z</time>
      </trkpt>
      <trkpt lat="42.69882" lon="-0.0362">
        <ele>2510</ele>
        <time>2015-05-09T07:52:50Z</time>
      </trkpt>
      <trkpt lat="42.69883" lon="-0.03614">
        <ele>2512</ele>
        <time>2015-05-09T07:53:00Z</time>
      </trkpt>
      <trkpt lat="42.69884" lon="-0.03608">
        <ele>2513</ele>
        <time>2015-05-09T07:53:12Z</time>
      </trkpt>
      <trkpt lat="42.69886" lon="-0.03606">
        <ele>2514</ele>
        <time>2015-05-09T07:53:25Z</time>
      </trkpt>
      <trkpt lat="42.69884" lon="-0.03604">
        <ele>2515</ele>
        <time>2015-05-09T07:53:39Z</time>
      </trkpt>
      <trkpt lat="42.69881" lon="-0.03603">
        <ele>2516</ele>
        <time>2015-05-09T07:53:52Z</time>
      </trkpt>
      <trkpt lat="42.69876" lon="-0.03603">
        <ele>2519</ele>
        <time>2015-05-09T07:54:04Z</time>
      </trkpt>
      <trkpt lat="42.6987" lon="-0.03603">
        <ele>2521</ele>
        <time>2015-05-09T07:54:18Z</time>
      </trkpt>
      <trkpt lat="42.69867" lon="-0.03604">
        <ele>2522</ele>
        <time>2015-05-09T07:54:25Z</time>
      </trkpt>
      <trkpt lat="42.6986" lon="-0.03604">
        <ele>2524</ele>
        <time>2015-05-09T07:54:39Z</time>
      </trkpt>
      <trkpt lat="42.69855" lon="-0.03607">
        <ele>2526</ele>
        <time>2015-05-09T07:54:54Z</time>
      </trkpt>
      <trkpt lat="42.69846" lon="-0.03606">
        <ele>2528</ele>
        <time>2015-05-09T07:55:10Z</time>
      </trkpt>
      <trkpt lat="42.6984" lon="-0.03608">
        <ele>2531</ele>
        <time>2015-05-09T07:55:25Z</time>
      </trkpt>
      <trkpt lat="42.69832" lon="-0.03607">
        <ele>2533</ele>
        <time>2015-05-09T07:55:40Z</time>
      </trkpt>
      <trkpt lat="42.69827" lon="-0.03605">
        <ele>2535</ele>
        <time>2015-05-09T07:55:50Z</time>
      </trkpt>
      <trkpt lat="42.69821" lon="-0.03604">
        <ele>2537</ele>
        <time>2015-05-09T07:56:05Z</time>
      </trkpt>
      <trkpt lat="42.69813" lon="-0.03602">
        <ele>2540</ele>
        <time>2015-05-09T07:56:20Z</time>
      </trkpt>
      <trkpt lat="42.69809" lon="-0.03601">
        <ele>2541</ele>
        <time>2015-05-09T07:56:29Z</time>
      </trkpt>
      <trkpt lat="42.69802" lon="-0.03598">
        <ele>2543</ele>
        <time>2015-05-09T07:56:42Z</time>
      </trkpt>
      <trkpt lat="42.69797" lon="-0.03595">
        <ele>2544</ele>
        <time>2015-05-09T07:56:57Z</time>
      </trkpt>
      <trkpt lat="42.69792" lon="-0.03592">
        <ele>2547</ele>
        <time>2015-05-09T07:57:09Z</time>
      </trkpt>
      <trkpt lat="42.69787" lon="-0.03591">
        <ele>2548</ele>
        <time>2015-05-09T07:57:16Z</time>
      </trkpt>
      <trkpt lat="42.69781" lon="-0.03592">
        <ele>2550</ele>
        <time>2015-05-09T07:57:30Z</time>
      </trkpt>
      <trkpt lat="42.69773" lon="-0.03587">
        <ele>2551</ele>
        <time>2015-05-09T07:57:44Z</time>
      </trkpt>
      <trkpt lat="42.69771" lon="-0.03579">
        <ele>2553</ele>
        <time>2015-05-09T07:57:59Z</time>
      </trkpt>
      <trkpt lat="42.69771" lon="-0.0357">
        <ele>2556</ele>
        <time>2015-05-09T07:58:15Z</time>
      </trkpt>
      <trkpt lat="42.69776" lon="-0.03565">
        <ele>2557</ele>
        <time>2015-05-09T07:58:27Z</time>
      </trkpt>
      <trkpt lat="42.69771" lon="-0.03562">
        <ele>2558</ele>
        <time>2015-05-09T07:58:36Z</time>
      </trkpt>
      <trkpt lat="42.69763" lon="-0.0356">
        <ele>2560</ele>
        <time>2015-05-09T07:58:54Z</time>
      </trkpt>
      <trkpt lat="42.69757" lon="-0.03559">
        <ele>2561</ele>
        <time>2015-05-09T07:59:07Z</time>
      </trkpt>
      <trkpt lat="42.69754" lon="-0.03563">
        <ele>2563</ele>
        <time>2015-05-09T07:59:21Z</time>
      </trkpt>
      <trkpt lat="42.6975" lon="-0.03567">
        <ele>2562</ele>
        <time>2015-05-09T07:59:47Z</time>
      </trkpt>
      <trkpt lat="42.69752" lon="-0.0356">
        <ele>2562</ele>
        <time>2015-05-09T08:00:03Z</time>
      </trkpt>
      <trkpt lat="42.69751" lon="-0.03561">
        <ele>2562</ele>
        <time>2015-05-09T08:00:27Z</time>
      </trkpt>
      <trkpt lat="42.69754" lon="-0.0356">
        <ele>2563</ele>
        <time>2015-05-09T08:00:49Z</time>
      </trkpt>
      <trkpt lat="42.69751" lon="-0.03562">
        <ele>2562</ele>
        <time>2015-05-09T08:01:12Z</time>
      </trkpt>
      <trkpt lat="42.69754" lon="-0.03558">
        <ele>2563</ele>
        <time>2015-05-09T08:01:35Z</time>
      </trkpt>
      <trkpt lat="42.6975" lon="-0.03555">
        <ele>2564</ele>
        <time>2015-05-09T08:01:44Z</time>
      </trkpt>
      <trkpt lat="42.69743" lon="-0.03552">
        <ele>2567</ele>
        <time>2015-05-09T08:01:56Z</time>
      </trkpt>
      <trkpt lat="42.69738" lon="-0.03548">
        <ele>2570</ele>
        <time>2015-05-09T08:02:09Z</time>
      </trkpt>
      <trkpt lat="42.69732" lon="-0.03543">
        <ele>2571</ele>
        <time>2015-05-09T08:02:22Z</time>
      </trkpt>
      <trkpt lat="42.69727" lon="-0.03538">
        <ele>2573</ele>
        <time>2015-05-09T08:02:34Z</time>
      </trkpt>
      <trkpt lat="42.69728" lon="-0.03535">
        <ele>2573</ele>
        <time>2015-05-09T08:02:46Z</time>
      </trkpt>
      <trkpt lat="42.6973" lon="-0.03533">
        <ele>2573</ele>
        <time>2015-05-09T08:02:57Z</time>
      </trkpt>
      <trkpt lat="42.69731" lon="-0.03539">
        <ele>2573</ele>
        <time>2015-05-09T08:03:08Z</time>
      </trkpt>
      <trkpt lat="42.69733" lon="-0.03537">
        <ele>2573</ele>
        <time>2015-05-09T08:03:17Z</time>
      </trkpt>
      <trkpt lat="42.69739" lon="-0.03529">
        <ele>2575</ele>
        <time>2015-05-09T08:03:31Z</time>
      </trkpt>
      <trkpt lat="42.69744" lon="-0.03523">
        <ele>2577</ele>
        <time>2015-05-09T08:03:43Z</time>
      </trkpt>
      <trkpt lat="42.69747" lon="-0.0352">
        <ele>2579</ele>
        <time>2015-05-09T08:03:48Z</time>
      </trkpt>
      <trkpt lat="42.69751" lon="-0.03512">
        <ele>2581</ele>
        <time>2015-05-09T08:04:02Z</time>
      </trkpt>
      <trkpt lat="42.6975" lon="-0.03504">
        <ele>2584</ele>
        <time>2015-05-09T08:04:16Z</time>
      </trkpt>
      <trkpt lat="42.69748" lon="-0.03499">
        <ele>2585</ele>
        <time>2015-05-09T08:04:29Z</time>
      </trkpt>
      <trkpt lat="42.69742" lon="-0.03494">
        <ele>2586</ele>
        <time>2015-05-09T08:04:42Z</time>
      </trkpt>
      <trkpt lat="42.69737" lon="-0.03489">
        <ele>2588</ele>
        <time>2015-05-09T08:04:55Z</time>
      </trkpt>
      <trkpt lat="42.69733" lon="-0.03486">
        <ele>2589</ele>
        <time>2015-05-09T08:05:07Z</time>
      </trkpt>
      <trkpt lat="42.69734" lon="-0.03483">
        <ele>2589</ele>
        <time>2015-05-09T08:05:25Z</time>
      </trkpt>
      <trkpt lat="42.69734" lon="-0.03481">
        <ele>2589</ele>
        <time>2015-05-09T08:05:48Z</time>
      </trkpt>
      <trkpt lat="42.69739" lon="-0.03483">
        <ele>2589</ele>
        <time>2015-05-09T08:06:01Z</time>
      </trkpt>
      <trkpt lat="42.69736" lon="-0.03481">
        <ele>2588</ele>
        <time>2015-05-09T08:06:11Z</time>
      </trkpt>
      <trkpt lat="42.69733" lon="-0.03478">
        <ele>2587</ele>
        <time>2015-05-09T08:06:25Z</time>
      </trkpt>
      <trkpt lat="42.6973" lon="-0.03477">
        <ele>2587</ele>
        <time>2015-05-09T08:06:41Z</time>
      </trkpt>
      <trkpt lat="42.6972" lon="-0.03475">
        <ele>2586</ele>
        <time>2015-05-09T08:06:55Z</time>
      </trkpt>
      <trkpt lat="42.69713" lon="-0.03472">
        <ele>2587</ele>
        <time>2015-05-09T08:07:11Z</time>
      </trkpt>
      <trkpt lat="42.69702" lon="-0.03464">
        <ele>2588</ele>
        <time>2015-05-09T08:07:32Z</time>
      </trkpt>
      <trkpt lat="42.6969" lon="-0.03456">
        <ele>2590</ele>
        <time>2015-05-09T08:07:51Z</time>
      </trkpt>
      <trkpt lat="42.69683" lon="-0.03448">
        <ele>2592</ele>
        <time>2015-05-09T08:08:07Z</time>
      </trkpt>
      <trkpt lat="42.69673" lon="-0.03436">
        <ele>2593</ele>
        <time>2015-05-09T08:08:24Z</time>
      </trkpt>
      <trkpt lat="42.69665" lon="-0.03423">
        <ele>2593</ele>
        <time>2015-05-09T08:08:42Z</time>
      </trkpt>
      <trkpt lat="42.69656" lon="-0.03414">
        <ele>2593</ele>
        <time>2015-05-09T08:08:58Z</time>
      </trkpt>
      <trkpt lat="42.69648" lon="-0.03406">
        <ele>2593</ele>
        <time>2015-05-09T08:09:10Z</time>
      </trkpt>
      <trkpt lat="42.69639" lon="-0.03397">
        <ele>2592</ele>
        <time>2015-05-09T08:09:25Z</time>
      </trkpt>
      <trkpt lat="42.6963" lon="-0.03387">
        <ele>2592</ele>
        <time>2015-05-09T08:09:42Z</time>
      </trkpt>
      <trkpt lat="42.69625" lon="-0.0338">
        <ele>2590</ele>
        <time>2015-05-09T08:09:56Z</time>
      </trkpt>
      <trkpt lat="42.69622" lon="-0.03376">
        <ele>2590</ele>
        <time>2015-05-09T08:10:11Z</time>
      </trkpt>
      <trkpt lat="42.69618" lon="-0.0337">
        <ele>2589</ele>
        <time>2015-05-09T08:10:26Z</time>
      </trkpt>
      <trkpt lat="42.69613" lon="-0.03365">
        <ele>2588</ele>
        <time>2015-05-09T08:10:39Z</time>
      </trkpt>
      <trkpt lat="42.69608" lon="-0.03358">
        <ele>2588</ele>
        <time>2015-05-09T08:10:53Z</time>
      </trkpt>
      <trkpt lat="42.69598" lon="-0.0335">
        <ele>2588</ele>
        <time>2015-05-09T08:11:08Z</time>
      </trkpt>
      <trkpt lat="42.69594" lon="-0.03343">
        <ele>2588</ele>
        <time>2015-05-09T08:11:19Z</time>
      </trkpt>
      <trkpt lat="42.69588" lon="-0.0334">
        <ele>2588</ele>
        <time>2015-05-09T08:11:33Z</time>
      </trkpt>
      <trkpt lat="42.69585" lon="-0.03342">
        <ele>2589</ele>
        <time>2015-05-09T08:11:46Z</time>
      </trkpt>
      <trkpt lat="42.69582" lon="-0.03346">
        <ele>2590</ele>
        <time>2015-05-09T08:12:07Z</time>
      </trkpt>
      <trkpt lat="42.69581" lon="-0.03345">
        <ele>2590</ele>
        <time>2015-05-09T08:12:19Z</time>
      </trkpt>
      <trkpt lat="42.69582" lon="-0.03344">
        <ele>2590</ele>
        <time>2015-05-09T08:12:37Z</time>
      </trkpt>
      <trkpt lat="42.69581" lon="-0.03345">
        <ele>2590</ele>
        <time>2015-05-09T08:12:56Z</time>
      </trkpt>
      <trkpt lat="42.69582" lon="-0.03347">
        <ele>2589</ele>
        <time>2015-05-09T08:13:07Z</time>
      </trkpt>
      <trkpt lat="42.69581" lon="-0.03349">
        <ele>2589</ele>
        <time>2015-05-09T08:13:28Z</time>
      </trkpt>
      <trkpt lat="42.69582" lon="-0.03351">
        <ele>2589</ele>
        <time>2015-05-09T08:14:04Z</time>
      </trkpt>
      <trkpt lat="42.6958" lon="-0.03348">
        <ele>2589</ele>
        <time>2015-05-09T08:14:40Z</time>
      </trkpt>
      <trkpt lat="42.69581" lon="-0.03348">
        <ele>2589</ele>
        <time>2015-05-09T08:15:22Z</time>
      </trkpt>
      <trkpt lat="42.6958" lon="-0.0335">
        <ele>2589</ele>
        <time>2015-05-09T08:15:56Z</time>
      </trkpt>
      <trkpt lat="42.69581" lon="-0.0335">
        <ele>2590</ele>
        <time>2015-05-09T08:16:34Z</time>
      </trkpt>
      <trkpt lat="42.69581" lon="-0.03347">
        <ele>2589</ele>
        <time>2015-05-09T08:17:14Z</time>
      </trkpt>
      <trkpt lat="42.69581" lon="-0.03347">
        <ele>2590</ele>
        <time>2015-05-09T08:18:08Z</time>
      </trkpt>
      <trkpt lat="42.69582" lon="-0.03346">
        <ele>2590</ele>
        <time>2015-05-09T08:18:35Z</time>
      </trkpt>
      <trkpt lat="42.69579" lon="-0.03348">
        <ele>2590</ele>
        <time>2015-05-09T08:19:06Z</time>
      </trkpt>
      <trkpt lat="42.6958" lon="-0.0335">
        <ele>2590</ele>
        <time>2015-05-09T08:19:43Z</time>
      </trkpt>
      <trkpt lat="42.69581" lon="-0.0335">
        <ele>2590</ele>
        <time>2015-05-09T08:20:10Z</time>
      </trkpt>
      <trkpt lat="42.69581" lon="-0.03351">
        <ele>2590</ele>
        <time>2015-05-09T08:20:45Z</time>
      </trkpt>
      <trkpt lat="42.69579" lon="-0.03348">
        <ele>2590</ele>
        <time>2015-05-09T08:21:16Z</time>
      </trkpt>
      <trkpt lat="42.6958" lon="-0.03349">
        <ele>2591</ele>
        <time>2015-05-09T08:21:49Z</time>
      </trkpt>
      <trkpt lat="42.69581" lon="-0.03349">
        <ele>2591</ele>
        <time>2015-05-09T08:22:17Z</time>
      </trkpt>
      <trkpt lat="42.6958" lon="-0.03348">
        <ele>2590</ele>
        <time>2015-05-09T08:22:47Z</time>
      </trkpt>
      <trkpt lat="42.69581" lon="-0.03346">
        <ele>2591</ele>
        <time>2015-05-09T08:23:11Z</time>
      </trkpt>
      <trkpt lat="42.69582" lon="-0.03346">
        <ele>2590</ele>
        <time>2015-05-09T08:23:48Z</time>
      </trkpt>
      <trkpt lat="42.69582" lon="-0.03346">
        <ele>2591</ele>
        <time>2015-05-09T08:24:17Z</time>
      </trkpt>
      <trkpt lat="42.69582" lon="-0.03348">
        <ele>2591</ele>
        <time>2015-05-09T08:24:50Z</time>
      </trkpt>
      <trkpt lat="42.6958" lon="-0.03349">
        <ele>2591</ele>
        <time>2015-05-09T08:25:16Z</time>
      </trkpt>
      <trkpt lat="42.69582" lon="-0.03347">
        <ele>2591</ele>
        <time>2015-05-09T08:25:44Z</time>
      </trkpt>
      <trkpt lat="42.6958" lon="-0.03345">
        <ele>2592</ele>
        <time>2015-05-09T08:26:09Z</time>
      </trkpt>
      <trkpt lat="42.69578" lon="-0.03347">
        <ele>2592</ele>
        <time>2015-05-09T08:26:23Z</time>
      </trkpt>
      <trkpt lat="42.69581" lon="-0.03348">
        <ele>2593</ele>
        <time>2015-05-09T08:26:50Z</time>
      </trkpt>
      <trkpt lat="42.69581" lon="-0.03349">
        <ele>2592</ele>
        <time>2015-05-09T08:27:06Z</time>
      </trkpt>
      <trkpt lat="42.69581" lon="-0.03348">
        <ele>2592</ele>
        <time>2015-05-09T08:27:20Z</time>
      </trkpt>
      <trkpt lat="42.69581" lon="-0.03349">
        <ele>2592</ele>
        <time>2015-05-09T08:27:40Z</time>
      </trkpt>
      <trkpt lat="42.69578" lon="-0.0335">
        <ele>2593</ele>
        <time>2015-05-09T08:27:53Z</time>
      </trkpt>
      <trkpt lat="42.69575" lon="-0.03352">
        <ele>2593</ele>
        <time>2015-05-09T08:28:03Z</time>
      </trkpt>
      <trkpt lat="42.69568" lon="-0.03357">
        <ele>2594</ele>
        <time>2015-05-09T08:28:17Z</time>
      </trkpt>
      <trkpt lat="42.69563" lon="-0.03358">
        <ele>2595</ele>
        <time>2015-05-09T08:28:31Z</time>
      </trkpt>
      <trkpt lat="42.69556" lon="-0.03361">
        <ele>2597</ele>
        <time>2015-05-09T08:28:46Z</time>
      </trkpt>
      <trkpt lat="42.69546" lon="-0.03362">
        <ele>2600</ele>
        <time>2015-05-09T08:29:01Z</time>
      </trkpt>
      <trkpt lat="42.69539" lon="-0.03364">
        <ele>2600</ele>
        <time>2015-05-09T08:29:16Z</time>
      </trkpt>
      <trkpt lat="42.69529" lon="-0.03364">
        <ele>2603</ele>
        <time>2015-05-09T08:29:38Z</time>
      </trkpt>
      <trkpt lat="42.69519" lon="-0.03364">
        <ele>2606</ele>
        <time>2015-05-09T08:29:57Z</time>
      </trkpt>
      <trkpt lat="42.69509" lon="-0.03366">
        <ele>2609</ele>
        <time>2015-05-09T08:30:18Z</time>
      </trkpt>
      <trkpt lat="42.69505" lon="-0.03374">
        <ele>2612</ele>
        <time>2015-05-09T08:30:34Z</time>
      </trkpt>
      <trkpt lat="42.69502" lon="-0.03381">
        <ele>2614</ele>
        <time>2015-05-09T08:30:52Z</time>
      </trkpt>
      <trkpt lat="42.69499" lon="-0.03389">
        <ele>2616</ele>
        <time>2015-05-09T08:31:10Z</time>
      </trkpt>
      <trkpt lat="42.69493" lon="-0.03395">
        <ele>2619</ele>
        <time>2015-05-09T08:31:26Z</time>
      </trkpt>
      <trkpt lat="42.69492" lon="-0.03403">
        <ele>2621</ele>
        <time>2015-05-09T08:31:41Z</time>
      </trkpt>
      <trkpt lat="42.69487" lon="-0.03407">
        <ele>2623</ele>
        <time>2015-05-09T08:31:58Z</time>
      </trkpt>
      <trkpt lat="42.69482" lon="-0.03403">
        <ele>2625</ele>
        <time>2015-05-09T08:32:13Z</time>
      </trkpt>
      <trkpt lat="42.69476" lon="-0.03396">
        <ele>2628</ele>
        <time>2015-05-09T08:32:30Z</time>
      </trkpt>
      <trkpt lat="42.6947" lon="-0.0339">
        <ele>2631</ele>
        <time>2015-05-09T08:32:51Z</time>
      </trkpt>
      <trkpt lat="42.69462" lon="-0.03388">
        <ele>2634</ele>
        <time>2015-05-09T08:33:07Z</time>
      </trkpt>
      <trkpt lat="42.69456" lon="-0.03394">
        <ele>2636</ele>
        <time>2015-05-09T08:33:21Z</time>
      </trkpt>
      <trkpt lat="42.69453" lon="-0.03399">
        <ele>2638</ele>
        <time>2015-05-09T08:33:36Z</time>
      </trkpt>
      <trkpt lat="42.6945" lon="-0.0341">
        <ele>2640</ele>
        <time>2015-05-09T08:33:56Z</time>
      </trkpt>
      <trkpt lat="42.69448" lon="-0.03419">
        <ele>2643</ele>
        <time>2015-05-09T08:34:10Z</time>
      </trkpt>
      <trkpt lat="42.69446" lon="-0.0343">
        <ele>2645</ele>
        <time>2015-05-09T08:34:29Z</time>
      </trkpt>
      <trkpt lat="42.69443" lon="-0.03439">
        <ele>2648</ele>
        <time>2015-05-09T08:34:46Z</time>
      </trkpt>
      <trkpt lat="42.69441" lon="-0.03448">
        <ele>2651</ele>
        <time>2015-05-09T08:35:02Z</time>
      </trkpt>
      <trkpt lat="42.69438" lon="-0.03455">
        <ele>2652</ele>
        <time>2015-05-09T08:35:14Z</time>
      </trkpt>
      <trkpt lat="42.69435" lon="-0.03463">
        <ele>2656</ele>
        <time>2015-05-09T08:35:32Z</time>
      </trkpt>
      <trkpt lat="42.6943" lon="-0.03464">
        <ele>2657</ele>
        <time>2015-05-09T08:35:44Z</time>
      </trkpt>
      <trkpt lat="42.69421" lon="-0.0346">
        <ele>2661</ele>
        <time>2015-05-09T08:36:02Z</time>
      </trkpt>
      <trkpt lat="42.69414" lon="-0.03452">
        <ele>2662</ele>
        <time>2015-05-09T08:36:22Z</time>
      </trkpt>
      <trkpt lat="42.69408" lon="-0.03447">
        <ele>2666</ele>
        <time>2015-05-09T08:36:36Z</time>
      </trkpt>
      <trkpt lat="42.69407" lon="-0.03443">
        <ele>2667</ele>
        <time>2015-05-09T08:36:51Z</time>
      </trkpt>
      <trkpt lat="42.69404" lon="-0.0345">
        <ele>2669</ele>
        <time>2015-05-09T08:37:05Z</time>
      </trkpt>
      <trkpt lat="42.69402" lon="-0.03458">
        <ele>2672</ele>
        <time>2015-05-09T08:37:25Z</time>
      </trkpt>
      <trkpt lat="42.694" lon="-0.03466">
        <ele>2674</ele>
        <time>2015-05-09T08:37:39Z</time>
      </trkpt>
      <trkpt lat="42.69398" lon="-0.03475">
        <ele>2676</ele>
        <time>2015-05-09T08:37:54Z</time>
      </trkpt>
      <trkpt lat="42.69397" lon="-0.03483">
        <ele>2678</ele>
        <time>2015-05-09T08:38:08Z</time>
      </trkpt>
      <trkpt lat="42.69396" lon="-0.0349">
        <ele>2680</ele>
        <time>2015-05-09T08:38:20Z</time>
      </trkpt>
      <trkpt lat="42.69394" lon="-0.03492">
        <ele>2681</ele>
        <time>2015-05-09T08:38:30Z</time>
      </trkpt>
      <trkpt lat="42.69385" lon="-0.03485">
        <ele>2684</ele>
        <time>2015-05-09T08:38:48Z</time>
      </trkpt>
      <trkpt lat="42.6938" lon="-0.03476">
        <ele>2687</ele>
        <time>2015-05-09T08:39:06Z</time>
      </trkpt>
      <trkpt lat="42.69374" lon="-0.03463">
        <ele>2688</ele>
        <time>2015-05-09T08:39:24Z</time>
      </trkpt>
      <trkpt lat="42.69368" lon="-0.0345">
        <ele>2692</ele>
        <time>2015-05-09T08:39:42Z</time>
      </trkpt>
      <trkpt lat="42.69362" lon="-0.03437">
        <ele>2695</ele>
        <time>2015-05-09T08:40:04Z</time>
      </trkpt>
      <trkpt lat="42.69358" lon="-0.03427">
        <ele>2698</ele>
        <time>2015-05-09T08:40:23Z</time>
      </trkpt>
      <trkpt lat="42.69352" lon="-0.03413">
        <ele>2701</ele>
        <time>2015-05-09T08:40:44Z</time>
      </trkpt>
      <trkpt lat="42.69345" lon="-0.03403">
        <ele>2703</ele>
        <time>2015-05-09T08:41:00Z</time>
      </trkpt>
      <trkpt lat="42.6934" lon="-0.03398">
        <ele>2705</ele>
        <time>2015-05-09T08:41:12Z</time>
      </trkpt>
      <trkpt lat="42.6933" lon="-0.03388">
        <ele>2708</ele>
        <time>2015-05-09T08:41:35Z</time>
      </trkpt>
      <trkpt lat="42.69321" lon="-0.03379">
        <ele>2711</ele>
        <time>2015-05-09T08:41:52Z</time>
      </trkpt>
      <trkpt lat="42.69319" lon="-0.03374">
        <ele>2712</ele>
        <time>2015-05-09T08:42:03Z</time>
      </trkpt>
      <trkpt lat="42.69316" lon="-0.03365">
        <ele>2714</ele>
        <time>2015-05-09T08:42:21Z</time>
      </trkpt>
      <trkpt lat="42.6931" lon="-0.03359">
        <ele>2716</ele>
        <time>2015-05-09T08:42:35Z</time>
      </trkpt>
      <trkpt lat="42.69307" lon="-0.03347">
        <ele>2718</ele>
        <time>2015-05-09T08:42:50Z</time>
      </trkpt>
      <trkpt lat="42.69305" lon="-0.0334">
        <ele>2719</ele>
        <time>2015-05-09T08:43:06Z</time>
      </trkpt>
      <trkpt lat="42.69305" lon="-0.0334">
        <ele>2719</ele>
        <time>2015-05-09T08:43:07Z</time>
      </trkpt>
      <trkpt lat="42.69303" lon="-0.03333">
        <ele>2720</ele>
        <time>2015-05-09T08:43:18Z</time>
      </trkpt>
      <trkpt lat="42.69301" lon="-0.03323">
        <ele>2721</ele>
        <time>2015-05-09T08:43:31Z</time>
      </trkpt>
      <trkpt lat="42.69302" lon="-0.03324">
        <ele>2721</ele>
        <time>2015-05-09T08:43:34Z</time>
      </trkpt>
      <trkpt lat="42.69299" lon="-0.03329">
        <ele>2723</ele>
        <time>2015-05-09T08:43:47Z</time>
      </trkpt>
      <trkpt lat="42.69296" lon="-0.0334">
        <ele>2724</ele>
        <time>2015-05-09T08:44:02Z</time>
      </trkpt>
      <trkpt lat="42.69292" lon="-0.03355">
        <ele>2727</ele>
        <time>2015-05-09T08:44:19Z</time>
      </trkpt>
      <trkpt lat="42.69288" lon="-0.03366">
        <ele>2729</ele>
        <time>2015-05-09T08:44:33Z</time>
      </trkpt>
      <trkpt lat="42.69282" lon="-0.03381">
        <ele>2731</ele>
        <time>2015-05-09T08:44:53Z</time>
      </trkpt>
      <trkpt lat="42.69279" lon="-0.03393">
        <ele>2732</ele>
        <time>2015-05-09T08:45:07Z</time>
      </trkpt>
      <trkpt lat="42.69275" lon="-0.03408">
        <ele>2734</ele>
        <time>2015-05-09T08:45:24Z</time>
      </trkpt>
      <trkpt lat="42.6927" lon="-0.03424">
        <ele>2736</ele>
        <time>2015-05-09T08:45:40Z</time>
      </trkpt>
      <trkpt lat="42.69269" lon="-0.0343">
        <ele>2736</ele>
        <time>2015-05-09T08:45:46Z</time>
      </trkpt>
      <trkpt lat="42.69266" lon="-0.03447">
        <ele>2737</ele>
        <time>2015-05-09T08:46:02Z</time>
      </trkpt>
      <trkpt lat="42.69264" lon="-0.03462">
        <ele>2738</ele>
        <time>2015-05-09T08:46:17Z</time>
      </trkpt>
      <trkpt lat="42.69261" lon="-0.03477">
        <ele>2738</ele>
        <time>2015-05-09T08:46:32Z</time>
      </trkpt>
      <trkpt lat="42.69257" lon="-0.03492">
        <ele>2740</ele>
        <time>2015-05-09T08:46:45Z</time>
      </trkpt>
      <trkpt lat="42.6925" lon="-0.03506">
        <ele>2740</ele>
        <time>2015-05-09T08:47:00Z</time>
      </trkpt>
      <trkpt lat="42.69245" lon="-0.0352">
        <ele>2742</ele>
        <time>2015-05-09T08:47:16Z</time>
      </trkpt>
      <trkpt lat="42.69244" lon="-0.03524">
        <ele>2743</ele>
        <time>2015-05-09T08:47:31Z</time>
      </trkpt>
      <trkpt lat="42.6924" lon="-0.03524">
        <ele>2743</ele>
        <time>2015-05-09T08:47:58Z</time>
      </trkpt>
      <trkpt lat="42.69232" lon="-0.03528">
        <ele>2745</ele>
        <time>2015-05-09T08:48:14Z</time>
      </trkpt>
      <trkpt lat="42.69226" lon="-0.03528">
        <ele>2747</ele>
        <time>2015-05-09T08:48:26Z</time>
      </trkpt>
      <trkpt lat="42.69216" lon="-0.03527">
        <ele>2749</ele>
        <time>2015-05-09T08:48:44Z</time>
      </trkpt>
      <trkpt lat="42.69208" lon="-0.03524">
        <ele>2751</ele>
        <time>2015-05-09T08:49:03Z</time>
      </trkpt>
      <trkpt lat="42.692" lon="-0.03522">
        <ele>2754</ele>
        <time>2015-05-09T08:49:18Z</time>
      </trkpt>
      <trkpt lat="42.69191" lon="-0.0352">
        <ele>2756</ele>
        <time>2015-05-09T08:49:31Z</time>
      </trkpt>
      <trkpt lat="42.69183" lon="-0.03516">
        <ele>2759</ele>
        <time>2015-05-09T08:49:47Z</time>
      </trkpt>
      <trkpt lat="42.69178" lon="-0.03511">
        <ele>2762</ele>
        <time>2015-05-09T08:50:05Z</time>
      </trkpt>
      <trkpt lat="42.6917" lon="-0.03505">
        <ele>2764</ele>
        <time>2015-05-09T08:50:24Z</time>
      </trkpt>
      <trkpt lat="42.69163" lon="-0.03491">
        <ele>2767</ele>
        <time>2015-05-09T08:50:45Z</time>
      </trkpt>
      <trkpt lat="42.69157" lon="-0.0348">
        <ele>2770</ele>
        <time>2015-05-09T08:51:03Z</time>
      </trkpt>
      <trkpt lat="42.69157" lon="-0.03471">
        <ele>2772</ele>
        <time>2015-05-09T08:51:20Z</time>
      </trkpt>
      <trkpt lat="42.69152" lon="-0.03462">
        <ele>2775</ele>
        <time>2015-05-09T08:51:37Z</time>
      </trkpt>
      <trkpt lat="42.69152" lon="-0.0346">
        <ele>2775</ele>
        <time>2015-05-09T08:51:39Z</time>
      </trkpt>
      <trkpt lat="42.69145" lon="-0.0345">
        <ele>2778</ele>
        <time>2015-05-09T08:51:58Z</time>
      </trkpt>
      <trkpt lat="42.69143" lon="-0.03435">
        <ele>2780</ele>
        <time>2015-05-09T08:52:15Z</time>
      </trkpt>
      <trkpt lat="42.69144" lon="-0.03425">
        <ele>2783</ele>
        <time>2015-05-09T08:52:34Z</time>
      </trkpt>
      <trkpt lat="42.69143" lon="-0.03422">
        <ele>2783</ele>
        <time>2015-05-09T08:52:37Z</time>
      </trkpt>
      <trkpt lat="42.69135" lon="-0.03411">
        <ele>2784</ele>
        <time>2015-05-09T08:52:50Z</time>
      </trkpt>
      <trkpt lat="42.69132" lon="-0.03406">
        <ele>2783</ele>
        <time>2015-05-09T08:53:06Z</time>
      </trkpt>
      <trkpt lat="42.69134" lon="-0.03412">
        <ele>2785</ele>
        <time>2015-05-09T08:53:18Z</time>
      </trkpt>
      <trkpt lat="42.69134" lon="-0.03413">
        <ele>2786</ele>
        <time>2015-05-09T08:53:21Z</time>
      </trkpt>
      <trkpt lat="42.69131" lon="-0.0342">
        <ele>2787</ele>
        <time>2015-05-09T08:53:33Z</time>
      </trkpt>
      <trkpt lat="42.69138" lon="-0.03416">
        <ele>2787</ele>
        <time>2015-05-09T08:53:51Z</time>
      </trkpt>
      <trkpt lat="42.69131" lon="-0.03421">
        <ele>2787</ele>
        <time>2015-05-09T08:54:09Z</time>
      </trkpt>
      <trkpt lat="42.6913" lon="-0.0343">
        <ele>2788</ele>
        <time>2015-05-09T08:54:22Z</time>
      </trkpt>
      <trkpt lat="42.6913" lon="-0.03436">
        <ele>2789</ele>
        <time>2015-05-09T08:54:32Z</time>
      </trkpt>
      <trkpt lat="42.69131" lon="-0.03437">
        <ele>2790</ele>
        <time>2015-05-09T08:54:43Z</time>
      </trkpt>
      <trkpt lat="42.69133" lon="-0.03435">
        <ele>2790</ele>
        <time>2015-05-09T08:55:04Z</time>
      </trkpt>
      <trkpt lat="42.69129" lon="-0.03436">
        <ele>2791</ele>
        <time>2015-05-09T08:55:18Z</time>
      </trkpt>
      <trkpt lat="42.69125" lon="-0.03431">
        <ele>2793</ele>
        <time>2015-05-09T08:55:32Z</time>
      </trkpt>
      <trkpt lat="42.69124" lon="-0.03425">
        <ele>2795</ele>
        <time>2015-05-09T08:55:50Z</time>
      </trkpt>
      <trkpt lat="42.69122" lon="-0.03422">
        <ele>2795</ele>
        <time>2015-05-09T08:56:04Z</time>
      </trkpt>
      <trkpt lat="42.69123" lon="-0.03422">
        <ele>2794</ele>
        <time>2015-05-09T08:56:23Z</time>
      </trkpt>
      <trkpt lat="42.69122" lon="-0.0342">
        <ele>2794</ele>
        <time>2015-05-09T08:56:44Z</time>
      </trkpt>
      <trkpt lat="42.69122" lon="-0.03419">
        <ele>2794</ele>
        <time>2015-05-09T08:57:08Z</time>
      </trkpt>
      <trkpt lat="42.69121" lon="-0.03416">
        <ele>2793</ele>
        <time>2015-05-09T08:57:27Z</time>
      </trkpt>
      <trkpt lat="42.69121" lon="-0.03414">
        <ele>2792</ele>
        <time>2015-05-09T08:57:46Z</time>
      </trkpt>
      <trkpt lat="42.6912" lon="-0.03415">
        <ele>2792</ele>
        <time>2015-05-09T08:58:04Z</time>
      </trkpt>
      <trkpt lat="42.6912" lon="-0.03409">
        <ele>2792</ele>
        <time>2015-05-09T08:58:19Z</time>
      </trkpt>
      <trkpt lat="42.69119" lon="-0.03407">
        <ele>2792</ele>
        <time>2015-05-09T08:58:39Z</time>
      </trkpt>
      <trkpt lat="42.69116" lon="-0.03403">
        <ele>2792</ele>
        <time>2015-05-09T08:58:59Z</time>
      </trkpt>
      <trkpt lat="42.69118" lon="-0.03404">
        <ele>2792</ele>
        <time>2015-05-09T08:59:19Z</time>
      </trkpt>
      <trkpt lat="42.69116" lon="-0.03401">
        <ele>2793</ele>
        <time>2015-05-09T08:59:40Z</time>
      </trkpt>
      <trkpt lat="42.69117" lon="-0.03405">
        <ele>2793</ele>
        <time>2015-05-09T09:00:01Z</time>
      </trkpt>
      <trkpt lat="42.69118" lon="-0.03403">
        <ele>2794</ele>
        <time>2015-05-09T09:00:18Z</time>
      </trkpt>
      <trkpt lat="42.69115" lon="-0.03404">
        <ele>2796</ele>
        <time>2015-05-09T09:00:36Z</time>
      </trkpt>
      <trkpt lat="42.69114" lon="-0.03403">
        <ele>2797</ele>
        <time>2015-05-09T09:00:50Z</time>
      </trkpt>
      <trkpt lat="42.69115" lon="-0.03407">
        <ele>2798</ele>
        <time>2015-05-09T09:01:02Z</time>
      </trkpt>
      <trkpt lat="42.69116" lon="-0.03413">
        <ele>2800</ele>
        <time>2015-05-09T09:01:15Z</time>
      </trkpt>
      <trkpt lat="42.69115" lon="-0.03419">
        <ele>2802</ele>
        <time>2015-05-09T09:01:29Z</time>
      </trkpt>
      <trkpt lat="42.69112" lon="-0.03418">
        <ele>2803</ele>
        <time>2015-05-09T09:01:44Z</time>
      </trkpt>
      <trkpt lat="42.69109" lon="-0.03415">
        <ele>2803</ele>
        <time>2015-05-09T09:01:58Z</time>
      </trkpt>
      <trkpt lat="42.69106" lon="-0.03415">
        <ele>2804</ele>
        <time>2015-05-09T09:02:14Z</time>
      </trkpt>
      <trkpt lat="42.69106" lon="-0.03412">
        <ele>2804</ele>
        <time>2015-05-09T09:02:28Z</time>
      </trkpt>
      <trkpt lat="42.69104" lon="-0.03411">
        <ele>2804</ele>
        <time>2015-05-09T09:02:49Z</time>
      </trkpt>
      <trkpt lat="42.69102" lon="-0.0341">
        <ele>2802</ele>
        <time>2015-05-09T09:03:03Z</time>
      </trkpt>
      <trkpt lat="42.69102" lon="-0.03409">
        <ele>2802</ele>
        <time>2015-05-09T09:03:23Z</time>
      </trkpt>
      <trkpt lat="42.69098" lon="-0.03408">
        <ele>2799</ele>
        <time>2015-05-09T09:03:35Z</time>
      </trkpt>
      <trkpt lat="42.69097" lon="-0.03406">
        <ele>2798</ele>
        <time>2015-05-09T09:03:52Z</time>
      </trkpt>
      <trkpt lat="42.69098" lon="-0.03404">
        <ele>2799</ele>
        <time>2015-05-09T09:04:17Z</time>
      </trkpt>
      <trkpt lat="42.69098" lon="-0.03405">
        <ele>2799</ele>
        <time>2015-05-09T09:04:49Z</time>
      </trkpt>
      <trkpt lat="42.69099" lon="-0.03403">
        <ele>2799</ele>
        <time>2015-05-09T09:05:19Z</time>
      </trkpt>
      <trkpt lat="42.69102" lon="-0.03402">
        <ele>2799</ele>
        <time>2015-05-09T09:05:52Z</time>
      </trkpt>
      <trkpt lat="42.69097" lon="-0.03405">
        <ele>2799</ele>
        <time>2015-05-09T09:06:16Z</time>
      </trkpt>
      <trkpt lat="42.69097" lon="-0.0341">
        <ele>2799</ele>
        <time>2015-05-09T09:06:40Z</time>
      </trkpt>
      <trkpt lat="42.69094" lon="-0.03415">
        <ele>2797</ele>
        <time>2015-05-09T09:07:00Z</time>
      </trkpt>
      <trkpt lat="42.69089" lon="-0.03407">
        <ele>2794</ele>
        <time>2015-05-09T09:07:13Z</time>
      </trkpt>
      <trkpt lat="42.69088" lon="-0.03404">
        <ele>2792</ele>
        <time>2015-05-09T09:07:30Z</time>
      </trkpt>
      <trkpt lat="42.69088" lon="-0.03407">
        <ele>2790</ele>
        <time>2015-05-09T09:07:42Z</time>
      </trkpt>
      <trkpt lat="42.69083" lon="-0.03416">
        <ele>2787</ele>
        <time>2015-05-09T09:07:55Z</time>
      </trkpt>
      <trkpt lat="42.69079" lon="-0.03411">
        <ele>2787</ele>
        <time>2015-05-09T09:08:11Z</time>
      </trkpt>
      <trkpt lat="42.69071" lon="-0.03416">
        <ele>2787</ele>
        <time>2015-05-09T09:08:33Z</time>
      </trkpt>
      <trkpt lat="42.69057" lon="-0.03421">
        <ele>2787</ele>
        <time>2015-05-09T09:08:54Z</time>
      </trkpt>
      <trkpt lat="42.69062" lon="-0.0343">
        <ele>2787</ele>
        <time>2015-05-09T09:09:17Z</time>
      </trkpt>
      <trkpt lat="42.69062" lon="-0.03428">
        <ele>2788</ele>
        <time>2015-05-09T09:09:40Z</time>
      </trkpt>
      <trkpt lat="42.69064" lon="-0.03427">
        <ele>2788</ele>
        <time>2015-05-09T09:10:06Z</time>
      </trkpt>
      <trkpt lat="42.69066" lon="-0.03428">
        <ele>2788</ele>
        <time>2015-05-09T09:10:28Z</time>
      </trkpt>
      <trkpt lat="42.69066" lon="-0.0343">
        <ele>2789</ele>
        <time>2015-05-09T09:10:39Z</time>
      </trkpt>
      <trkpt lat="42.69069" lon="-0.03446">
        <ele>2789</ele>
        <time>2015-05-09T09:10:57Z</time>
      </trkpt>
      <trkpt lat="42.69069" lon="-0.03451">
        <ele>2790</ele>
        <time>2015-05-09T09:11:18Z</time>
      </trkpt>
      <trkpt lat="42.69071" lon="-0.03468">
        <ele>2792</ele>
        <time>2015-05-09T09:11:34Z</time>
      </trkpt>
      <trkpt lat="42.69068" lon="-0.03481">
        <ele>2792</ele>
        <time>2015-05-09T09:11:47Z</time>
      </trkpt>
      <trkpt lat="42.69065" lon="-0.03494">
        <ele>2793</ele>
        <time>2015-05-09T09:12:01Z</time>
      </trkpt>
      <trkpt lat="42.69064" lon="-0.03505">
        <ele>2794</ele>
        <time>2015-05-09T09:12:15Z</time>
      </trkpt>
      <trkpt lat="42.69063" lon="-0.03506">
        <ele>2795</ele>
        <time>2015-05-09T09:12:34Z</time>
      </trkpt>
      <trkpt lat="42.6906" lon="-0.03514">
        <ele>2797</ele>
        <time>2015-05-09T09:12:48Z</time>
      </trkpt>
      <trkpt lat="42.69052" lon="-0.03521">
        <ele>2797</ele>
        <time>2015-05-09T09:13:03Z</time>
      </trkpt>
      <trkpt lat="42.69053" lon="-0.03527">
        <ele>2797</ele>
        <time>2015-05-09T09:13:27Z</time>
      </trkpt>
      <trkpt lat="42.69058" lon="-0.03526">
        <ele>2797</ele>
        <time>2015-05-09T09:13:50Z</time>
      </trkpt>
      <trkpt lat="42.69057" lon="-0.03526">
        <ele>2797</ele>
        <time>2015-05-09T09:14:13Z</time>
      </trkpt>
      <trkpt lat="42.69059" lon="-0.03532">
        <ele>2798</ele>
        <time>2015-05-09T09:14:32Z</time>
      </trkpt>
      <trkpt lat="42.69062" lon="-0.03529">
        <ele>2798</ele>
        <time>2015-05-09T09:14:48Z</time>
      </trkpt>
      <trkpt lat="42.69064" lon="-0.03522">
        <ele>2799</ele>
        <time>2015-05-09T09:15:00Z</time>
      </trkpt>
      <trkpt lat="42.6907" lon="-0.03515">
        <ele>2801</ele>
        <time>2015-05-09T09:15:12Z</time>
      </trkpt>
      <trkpt lat="42.69071" lon="-0.03515">
        <ele>2802</ele>
        <time>2015-05-09T09:15:19Z</time>
      </trkpt>
      <trkpt lat="42.69072" lon="-0.03528">
        <ele>2804</ele>
        <time>2015-05-09T09:15:35Z</time>
      </trkpt>
      <trkpt lat="42.69071" lon="-0.03542">
        <ele>2807</ele>
        <time>2015-05-09T09:15:54Z</time>
      </trkpt>
      <trkpt lat="42.6907" lon="-0.03544">
        <ele>2808</ele>
        <time>2015-05-09T09:15:56Z</time>
      </trkpt>
      <trkpt lat="42.69066" lon="-0.03563">
        <ele>2808</ele>
        <time>2015-05-09T09:16:14Z</time>
      </trkpt>
      <trkpt lat="42.69068" lon="-0.0357">
        <ele>2808</ele>
        <time>2015-05-09T09:16:18Z</time>
      </trkpt>
      <trkpt lat="42.69086" lon="-0.03605">
        <ele>2808</ele>
        <time>2015-05-09T09:16:32Z</time>
      </trkpt>
      <trkpt lat="42.69079" lon="-0.03633">
        <ele>2808</ele>
        <time>2015-05-09T09:16:49Z</time>
      </trkpt>
      <trkpt lat="42.6907" lon="-0.03653">
        <ele>2808</ele>
        <time>2015-05-09T09:17:03Z</time>
      </trkpt>
      <trkpt lat="42.69072" lon="-0.03679">
        <ele>2809</ele>
        <time>2015-05-09T09:17:16Z</time>
      </trkpt>
      <trkpt lat="42.69068" lon="-0.037">
        <ele>2809</ele>
        <time>2015-05-09T09:17:30Z</time>
      </trkpt>
      <trkpt lat="42.6905" lon="-0.03702">
        <ele>2811</ele>
        <time>2015-05-09T09:17:44Z</time>
      </trkpt>
      <trkpt lat="42.69046" lon="-0.03714">
        <ele>2813</ele>
        <time>2015-05-09T09:18:02Z</time>
      </trkpt>
      <trkpt lat="42.69041" lon="-0.03715">
        <ele>2813</ele>
        <time>2015-05-09T09:18:24Z</time>
      </trkpt>
      <trkpt lat="42.69041" lon="-0.03728">
        <ele>2814</ele>
        <time>2015-05-09T09:18:39Z</time>
      </trkpt>
      <trkpt lat="42.69041" lon="-0.03738">
        <ele>2812</ele>
        <time>2015-05-09T09:18:55Z</time>
      </trkpt>
      <trkpt lat="42.69039" lon="-0.03748">
        <ele>2813</ele>
        <time>2015-05-09T09:19:12Z</time>
      </trkpt>
      <trkpt lat="42.69039" lon="-0.03768">
        <ele>2813</ele>
        <time>2015-05-09T09:19:30Z</time>
      </trkpt>
      <trkpt lat="42.69037" lon="-0.03782">
        <ele>2814</ele>
        <time>2015-05-09T09:19:45Z</time>
      </trkpt>
      <trkpt lat="42.69037" lon="-0.03801">
        <ele>2815</ele>
        <time>2015-05-09T09:20:02Z</time>
      </trkpt>
      <trkpt lat="42.69035" lon="-0.0382">
        <ele>2815</ele>
        <time>2015-05-09T09:20:18Z</time>
      </trkpt>
      <trkpt lat="42.69035" lon="-0.03835">
        <ele>2817</ele>
        <time>2015-05-09T09:20:35Z</time>
      </trkpt>
      <trkpt lat="42.69034" lon="-0.03855">
        <ele>2817</ele>
        <time>2015-05-09T09:20:57Z</time>
      </trkpt>
      <trkpt lat="42.69035" lon="-0.03873">
        <ele>2820</ele>
        <time>2015-05-09T09:21:16Z</time>
      </trkpt>
      <trkpt lat="42.69036" lon="-0.03888">
        <ele>2821</ele>
        <time>2015-05-09T09:21:37Z</time>
      </trkpt>
      <trkpt lat="42.69034" lon="-0.03898">
        <ele>2823</ele>
        <time>2015-05-09T09:21:54Z</time>
      </trkpt>
      <trkpt lat="42.69033" lon="-0.03913">
        <ele>2826</ele>
        <time>2015-05-09T09:22:14Z</time>
      </trkpt>
      <trkpt lat="42.69034" lon="-0.03929">
        <ele>2826</ele>
        <time>2015-05-09T09:22:33Z</time>
      </trkpt>
      <trkpt lat="42.69034" lon="-0.03941">
        <ele>2828</ele>
        <time>2015-05-09T09:22:52Z</time>
      </trkpt>
      <trkpt lat="42.69033" lon="-0.03953">
        <ele>2829</ele>
        <time>2015-05-09T09:23:11Z</time>
      </trkpt>
      <trkpt lat="42.69032" lon="-0.03971">
        <ele>2830</ele>
        <time>2015-05-09T09:23:31Z</time>
      </trkpt>
      <trkpt lat="42.69033" lon="-0.03984">
        <ele>2830</ele>
        <time>2015-05-09T09:23:49Z</time>
      </trkpt>
      <trkpt lat="42.69031" lon="-0.03988">
        <ele>2830</ele>
        <time>2015-05-09T09:24:07Z</time>
      </trkpt>
      <trkpt lat="42.69031" lon="-0.04002">
        <ele>2831</ele>
        <time>2015-05-09T09:24:23Z</time>
      </trkpt>
      <trkpt lat="42.69031" lon="-0.04017">
        <ele>2832</ele>
        <time>2015-05-09T09:24:39Z</time>
      </trkpt>
      <trkpt lat="42.69032" lon="-0.04026">
        <ele>2833</ele>
        <time>2015-05-09T09:24:54Z</time>
      </trkpt>
      <trkpt lat="42.69034" lon="-0.04045">
        <ele>2834</ele>
        <time>2015-05-09T09:25:12Z</time>
      </trkpt>
      <trkpt lat="42.69036" lon="-0.04061">
        <ele>2834</ele>
        <time>2015-05-09T09:25:27Z</time>
      </trkpt>
      <trkpt lat="42.69037" lon="-0.04075">
        <ele>2836</ele>
        <time>2015-05-09T09:25:41Z</time>
      </trkpt>
      <trkpt lat="42.6904" lon="-0.04087">
        <ele>2837</ele>
        <time>2015-05-09T09:25:55Z</time>
      </trkpt>
      <trkpt lat="42.69038" lon="-0.04103">
        <ele>2839</ele>
        <time>2015-05-09T09:26:10Z</time>
      </trkpt>
      <trkpt lat="42.69037" lon="-0.04118">
        <ele>2841</ele>
        <time>2015-05-09T09:26:27Z</time>
      </trkpt>
      <trkpt lat="42.69035" lon="-0.04124">
        <ele>2841</ele>
        <time>2015-05-09T09:26:38Z</time>
      </trkpt>
      <trkpt lat="42.69034" lon="-0.04125">
        <ele>2841</ele>
        <time>2015-05-09T09:26:53Z</time>
      </trkpt>
      <trkpt lat="42.69036" lon="-0.04128">
        <ele>2842</ele>
        <time>2015-05-09T09:27:08Z</time>
      </trkpt>
      <trkpt lat="42.69033" lon="-0.04125">
        <ele>2842</ele>
        <time>2015-05-09T09:27:37Z</time>
      </trkpt>
      <trkpt lat="42.69034" lon="-0.04125">
        <ele>2842</ele>
        <time>2015-05-09T09:28:00Z</time>
      </trkpt>
      <trkpt lat="42.69034" lon="-0.04123">
        <ele>2842</ele>
        <time>2015-05-09T09:28:28Z</time>
      </trkpt>
      <trkpt lat="42.69035" lon="-0.04125">
        <ele>2842</ele>
        <time>2015-05-09T09:28:54Z</time>
      </trkpt>
      <trkpt lat="42.69034" lon="-0.04126">
        <ele>2843</ele>
        <time>2015-05-09T09:29:20Z</time>
      </trkpt>
      <trkpt lat="42.69034" lon="-0.04124">
        <ele>2843</ele>
        <time>2015-05-09T09:29:40Z</time>
      </trkpt>
      <trkpt lat="42.69035" lon="-0.04126">
        <ele>2843</ele>
        <time>2015-05-09T09:30:05Z</time>
      </trkpt>
      <trkpt lat="42.69035" lon="-0.04128">
        <ele>2843</ele>
        <time>2015-05-09T09:30:33Z</time>
      </trkpt>
      <trkpt lat="42.69036" lon="-0.04124">
        <ele>2844</ele>
        <time>2015-05-09T09:30:51Z</time>
      </trkpt>
      <trkpt lat="42.69034" lon="-0.04123">
        <ele>2844</ele>
        <time>2015-05-09T09:31:10Z</time>
      </trkpt>
      <trkpt lat="42.69033" lon="-0.04126">
        <ele>2845</ele>
        <time>2015-05-09T09:31:30Z</time>
      </trkpt>
      <trkpt lat="42.69029" lon="-0.04128">
        <ele>2842</ele>
        <time>2015-05-09T09:31:42Z</time>
      </trkpt>
      <trkpt lat="42.69027" lon="-0.04136">
        <ele>2840</ele>
        <time>2015-05-09T09:31:55Z</time>
      </trkpt>
      <trkpt lat="42.69028" lon="-0.04138">
        <ele>2839</ele>
        <time>2015-05-09T09:31:57Z</time>
      </trkpt>
      <trkpt lat="42.69037" lon="-0.04148">
        <ele>2838</ele>
        <time>2015-05-09T09:32:11Z</time>
      </trkpt>
      <trkpt lat="42.69044" lon="-0.04171">
        <ele>2835</ele>
        <time>2015-05-09T09:32:25Z</time>
      </trkpt>
      <trkpt lat="42.69038" lon="-0.04202">
        <ele>2832</ele>
        <time>2015-05-09T09:32:37Z</time>
      </trkpt>
      <trkpt lat="42.69028" lon="-0.04228">
        <ele>2830</ele>
        <time>2015-05-09T09:32:53Z</time>
      </trkpt>
      <trkpt lat="42.69021" lon="-0.04249">
        <ele>2829</ele>
        <time>2015-05-09T09:33:06Z</time>
      </trkpt>
      <trkpt lat="42.69018" lon="-0.04265">
        <ele>2829</ele>
        <time>2015-05-09T09:33:17Z</time>
      </trkpt>
      <trkpt lat="42.69018" lon="-0.04268">
        <ele>2829</ele>
        <time>2015-05-09T09:33:19Z</time>
      </trkpt>
      <trkpt lat="42.69019" lon="-0.04272">
        <ele>2829</ele>
        <time>2015-05-09T09:33:32Z</time>
      </trkpt>
      <trkpt lat="42.69018" lon="-0.04277">
        <ele>2829</ele>
        <time>2015-05-09T09:33:37Z</time>
      </trkpt>
      <trkpt lat="42.69015" lon="-0.04297">
        <ele>2828</ele>
        <time>2015-05-09T09:33:52Z</time>
      </trkpt>
      <trkpt lat="42.69014" lon="-0.04301">
        <ele>2828</ele>
        <time>2015-05-09T09:33:55Z</time>
      </trkpt>
      <trkpt lat="42.69014" lon="-0.04303">
        <ele>2828</ele>
        <time>2015-05-09T09:33:57Z</time>
      </trkpt>
      <trkpt lat="42.69014" lon="-0.04316">
        <ele>2827</ele>
        <time>2015-05-09T09:34:06Z</time>
      </trkpt>
      <trkpt lat="42.69014" lon="-0.04324">
        <ele>2827</ele>
        <time>2015-05-09T09:34:11Z</time>
      </trkpt>
      <trkpt lat="42.69013" lon="-0.04335">
        <ele>2827</ele>
        <time>2015-05-09T09:34:19Z</time>
      </trkpt>
      <trkpt lat="42.6901" lon="-0.04361">
        <ele>2826</ele>
        <time>2015-05-09T09:34:34Z</time>
      </trkpt>
      <trkpt lat="42.6901" lon="-0.04364">
        <ele>2825</ele>
        <time>2015-05-09T09:34:36Z</time>
      </trkpt>
      <trkpt lat="42.68995" lon="-0.04385">
        <ele>2824</ele>
        <time>2015-05-09T09:34:53Z</time>
      </trkpt>
      <trkpt lat="42.68991" lon="-0.04393">
        <ele>2824</ele>
        <time>2015-05-09T09:35:08Z</time>
      </trkpt>
      <trkpt lat="42.68986" lon="-0.04403">
        <ele>2822</ele>
        <time>2015-05-09T09:35:17Z</time>
      </trkpt>
      <trkpt lat="42.68985" lon="-0.04406">
        <ele>2822</ele>
        <time>2015-05-09T09:35:19Z</time>
      </trkpt>
      <trkpt lat="42.68978" lon="-0.04422">
        <ele>2821</ele>
        <time>2015-05-09T09:35:29Z</time>
      </trkpt>
      <trkpt lat="42.68972" lon="-0.04429">
        <ele>2822</ele>
        <time>2015-05-09T09:35:37Z</time>
      </trkpt>
      <trkpt lat="42.68969" lon="-0.04443">
        <ele>2823</ele>
        <time>2015-05-09T09:35:48Z</time>
      </trkpt>
      <trkpt lat="42.6897" lon="-0.04449">
        <ele>2823</ele>
        <time>2015-05-09T09:35:53Z</time>
      </trkpt>
      <trkpt lat="42.6897" lon="-0.04457">
        <ele>2824</ele>
        <time>2015-05-09T09:35:59Z</time>
      </trkpt>
      <trkpt lat="42.68969" lon="-0.0446">
        <ele>2824</ele>
        <time>2015-05-09T09:36:01Z</time>
      </trkpt>
      <trkpt lat="42.68969" lon="-0.0447">
        <ele>2824</ele>
        <time>2015-05-09T09:36:09Z</time>
      </trkpt>
      <trkpt lat="42.6897" lon="-0.04473">
        <ele>2824</ele>
        <time>2015-05-09T09:36:11Z</time>
      </trkpt>
      <trkpt lat="42.68972" lon="-0.0448">
        <ele>2824</ele>
        <time>2015-05-09T09:36:16Z</time>
      </trkpt>
      <trkpt lat="42.68973" lon="-0.0449">
        <ele>2826</ele>
        <time>2015-05-09T09:36:30Z</time>
      </trkpt>
      <trkpt lat="42.68974" lon="-0.04493">
        <ele>2827</ele>
        <time>2015-05-09T09:36:36Z</time>
      </trkpt>
      <trkpt lat="42.68978" lon="-0.0451">
        <ele>2829</ele>
        <time>2015-05-09T09:36:51Z</time>
      </trkpt>
      <trkpt lat="42.6898" lon="-0.0452">
        <ele>2830</ele>
        <time>2015-05-09T09:37:01Z</time>
      </trkpt>
      <trkpt lat="42.68981" lon="-0.04533">
        <ele>2830</ele>
        <time>2015-05-09T09:37:13Z</time>
      </trkpt>
      <trkpt lat="42.68978" lon="-0.04528">
        <ele>2831</ele>
        <time>2015-05-09T09:37:34Z</time>
      </trkpt>
      <trkpt lat="42.68978" lon="-0.04528">
        <ele>2831</ele>
        <time>2015-05-09T09:37:35Z</time>
      </trkpt>
      <trkpt lat="42.68981" lon="-0.04541">
        <ele>2832</ele>
        <time>2015-05-09T09:37:48Z</time>
      </trkpt>
      <trkpt lat="42.68983" lon="-0.04547">
        <ele>2833</ele>
        <time>2015-05-09T09:37:53Z</time>
      </trkpt>
      <trkpt lat="42.68988" lon="-0.04566">
        <ele>2835</ele>
        <time>2015-05-09T09:38:11Z</time>
      </trkpt>
      <trkpt lat="42.6899" lon="-0.04577">
        <ele>2835</ele>
        <time>2015-05-09T09:38:28Z</time>
      </trkpt>
      <trkpt lat="42.68992" lon="-0.0459">
        <ele>2837</ele>
        <time>2015-05-09T09:38:43Z</time>
      </trkpt>
      <trkpt lat="42.68992" lon="-0.04595">
        <ele>2838</ele>
        <time>2015-05-09T09:38:58Z</time>
      </trkpt>
      <trkpt lat="42.68992" lon="-0.04605">
        <ele>2839</ele>
        <time>2015-05-09T09:39:11Z</time>
      </trkpt>
      <trkpt lat="42.68994" lon="-0.04615">
        <ele>2841</ele>
        <time>2015-05-09T09:39:25Z</time>
      </trkpt>
      <trkpt lat="42.68995" lon="-0.04627">
        <ele>2842</ele>
        <time>2015-05-09T09:39:38Z</time>
      </trkpt>
      <trkpt lat="42.68998" lon="-0.04642">
        <ele>2844</ele>
        <time>2015-05-09T09:39:54Z</time>
      </trkpt>
      <trkpt lat="42.68997" lon="-0.04644">
        <ele>2844</ele>
        <time>2015-05-09T09:40:09Z</time>
      </trkpt>
      <trkpt lat="42.69001" lon="-0.04659">
        <ele>2846</ele>
        <time>2015-05-09T09:40:23Z</time>
      </trkpt>
      <trkpt lat="42.69003" lon="-0.04672">
        <ele>2848</ele>
        <time>2015-05-09T09:40:38Z</time>
      </trkpt>
      <trkpt lat="42.69007" lon="-0.04687">
        <ele>2850</ele>
        <time>2015-05-09T09:40:56Z</time>
      </trkpt>
      <trkpt lat="42.6901" lon="-0.04701">
        <ele>2852</ele>
        <time>2015-05-09T09:41:13Z</time>
      </trkpt>
      <trkpt lat="42.69012" lon="-0.04712">
        <ele>2854</ele>
        <time>2015-05-09T09:41:28Z</time>
      </trkpt>
      <trkpt lat="42.69015" lon="-0.04724">
        <ele>2856</ele>
        <time>2015-05-09T09:41:42Z</time>
      </trkpt>
      <trkpt lat="42.69018" lon="-0.04736">
        <ele>2858</ele>
        <time>2015-05-09T09:41:58Z</time>
      </trkpt>
      <trkpt lat="42.69019" lon="-0.04747">
        <ele>2860</ele>
        <time>2015-05-09T09:42:14Z</time>
      </trkpt>
      <trkpt lat="42.69022" lon="-0.04758">
        <ele>2861</ele>
        <time>2015-05-09T09:42:30Z</time>
      </trkpt>
      <trkpt lat="42.69023" lon="-0.0477">
        <ele>2864</ele>
        <time>2015-05-09T09:42:45Z</time>
      </trkpt>
      <trkpt lat="42.69027" lon="-0.04782">
        <ele>2865</ele>
        <time>2015-05-09T09:43:01Z</time>
      </trkpt>
      <trkpt lat="42.69031" lon="-0.04793">
        <ele>2869</ele>
        <time>2015-05-09T09:43:17Z</time>
      </trkpt>
      <trkpt lat="42.69035" lon="-0.04803">
        <ele>2870</ele>
        <time>2015-05-09T09:43:31Z</time>
      </trkpt>
      <trkpt lat="42.69037" lon="-0.04813">
        <ele>2873</ele>
        <time>2015-05-09T09:43:44Z</time>
      </trkpt>
      <trkpt lat="42.6904" lon="-0.04824">
        <ele>2874</ele>
        <time>2015-05-09T09:44:00Z</time>
      </trkpt>
      <trkpt lat="42.69042" lon="-0.04835">
        <ele>2876</ele>
        <time>2015-05-09T09:44:15Z</time>
      </trkpt>
      <trkpt lat="42.69045" lon="-0.04847">
        <ele>2879</ele>
        <time>2015-05-09T09:44:30Z</time>
      </trkpt>
      <trkpt lat="42.69041" lon="-0.04853">
        <ele>2882</ele>
        <time>2015-05-09T09:44:44Z</time>
      </trkpt>
      <trkpt lat="42.69029" lon="-0.04851">
        <ele>2883</ele>
        <time>2015-05-09T09:45:00Z</time>
      </trkpt>
      <trkpt lat="42.69023" lon="-0.04853">
        <ele>2886</ele>
        <time>2015-05-09T09:45:13Z</time>
      </trkpt>
      <trkpt lat="42.69025" lon="-0.04867">
        <ele>2887</ele>
        <time>2015-05-09T09:45:29Z</time>
      </trkpt>
      <trkpt lat="42.6903" lon="-0.04878">
        <ele>2890</ele>
        <time>2015-05-09T09:45:44Z</time>
      </trkpt>
      <trkpt lat="42.69031" lon="-0.04883">
        <ele>2893</ele>
        <time>2015-05-09T09:45:55Z</time>
      </trkpt>
      <trkpt lat="42.69029" lon="-0.04886">
        <ele>2893</ele>
        <time>2015-05-09T09:46:00Z</time>
      </trkpt>
      <trkpt lat="42.69021" lon="-0.04893">
        <ele>2895</ele>
        <time>2015-05-09T09:46:15Z</time>
      </trkpt>
      <trkpt lat="42.69022" lon="-0.04902">
        <ele>2897</ele>
        <time>2015-05-09T09:46:29Z</time>
      </trkpt>
      <trkpt lat="42.69026" lon="-0.04911">
        <ele>2899</ele>
        <time>2015-05-09T09:46:43Z</time>
      </trkpt>
      <trkpt lat="42.69032" lon="-0.04917">
        <ele>2901</ele>
        <time>2015-05-09T09:46:57Z</time>
      </trkpt>
      <trkpt lat="42.69039" lon="-0.04927">
        <ele>2904</ele>
        <time>2015-05-09T09:47:13Z</time>
      </trkpt>
      <trkpt lat="42.69036" lon="-0.04932">
        <ele>2906</ele>
        <time>2015-05-09T09:47:24Z</time>
      </trkpt>
      <trkpt lat="42.69028" lon="-0.04941">
        <ele>2907</ele>
        <time>2015-05-09T09:47:38Z</time>
      </trkpt>
      <trkpt lat="42.69022" lon="-0.04952">
        <ele>2910</ele>
        <time>2015-05-09T09:47:53Z</time>
      </trkpt>
      <trkpt lat="42.69024" lon="-0.04962">
        <ele>2912</ele>
        <time>2015-05-09T09:48:06Z</time>
      </trkpt>
      <trkpt lat="42.69028" lon="-0.04973">
        <ele>2915</ele>
        <time>2015-05-09T09:48:24Z</time>
      </trkpt>
      <trkpt lat="42.69031" lon="-0.0498">
        <ele>2917</ele>
        <time>2015-05-09T09:48:41Z</time>
      </trkpt>
      <trkpt lat="42.69036" lon="-0.04985">
        <ele>2919</ele>
        <time>2015-05-09T09:48:54Z</time>
      </trkpt>
      <trkpt lat="42.69038" lon="-0.04992">
        <ele>2921</ele>
        <time>2015-05-09T09:49:08Z</time>
      </trkpt>
      <trkpt lat="42.69035" lon="-0.05005">
        <ele>2923</ele>
        <time>2015-05-09T09:49:22Z</time>
      </trkpt>
      <trkpt lat="42.69034" lon="-0.05007">
        <ele>2923</ele>
        <time>2015-05-09T09:49:24Z</time>
      </trkpt>
      <trkpt lat="42.69031" lon="-0.05016">
        <ele>2926</ele>
        <time>2015-05-09T09:49:37Z</time>
      </trkpt>
      <trkpt lat="42.69025" lon="-0.05025">
        <ele>2928</ele>
        <time>2015-05-09T09:49:53Z</time>
      </trkpt>
      <trkpt lat="42.6902" lon="-0.05034">
        <ele>2932</ele>
        <time>2015-05-09T09:50:10Z</time>
      </trkpt>
      <trkpt lat="42.69024" lon="-0.05047">
        <ele>2934</ele>
        <time>2015-05-09T09:50:29Z</time>
      </trkpt>
      <trkpt lat="42.69026" lon="-0.05055">
        <ele>2936</ele>
        <time>2015-05-09T09:50:43Z</time>
      </trkpt>
      <trkpt lat="42.69035" lon="-0.05064">
        <ele>2938</ele>
        <time>2015-05-09T09:51:01Z</time>
      </trkpt>
      <trkpt lat="42.69039" lon="-0.0507">
        <ele>2940</ele>
        <time>2015-05-09T09:51:12Z</time>
      </trkpt>
      <trkpt lat="42.69044" lon="-0.05077">
        <ele>2942</ele>
        <time>2015-05-09T09:51:28Z</time>
      </trkpt>
      <trkpt lat="42.69049" lon="-0.05083">
        <ele>2945</ele>
        <time>2015-05-09T09:51:41Z</time>
      </trkpt>
      <trkpt lat="42.69052" lon="-0.05094">
        <ele>2948</ele>
        <time>2015-05-09T09:52:00Z</time>
      </trkpt>
      <trkpt lat="42.69052" lon="-0.05103">
        <ele>2949</ele>
        <time>2015-05-09T09:52:15Z</time>
      </trkpt>
      <trkpt lat="42.69052" lon="-0.05114">
        <ele>2952</ele>
        <time>2015-05-09T09:52:29Z</time>
      </trkpt>
      <trkpt lat="42.69047" lon="-0.05125">
        <ele>2955</ele>
        <time>2015-05-09T09:52:45Z</time>
      </trkpt>
      <trkpt lat="42.69043" lon="-0.05134">
        <ele>2957</ele>
        <time>2015-05-09T09:53:01Z</time>
      </trkpt>
      <trkpt lat="42.69046" lon="-0.05147">
        <ele>2960</ele>
        <time>2015-05-09T09:53:20Z</time>
      </trkpt>
      <trkpt lat="42.69054" lon="-0.05155">
        <ele>2963</ele>
        <time>2015-05-09T09:53:35Z</time>
      </trkpt>
      <trkpt lat="42.6906" lon="-0.0516">
        <ele>2965</ele>
        <time>2015-05-09T09:53:50Z</time>
      </trkpt>
      <trkpt lat="42.69058" lon="-0.05175">
        <ele>2967</ele>
        <time>2015-05-09T09:54:09Z</time>
      </trkpt>
      <trkpt lat="42.69059" lon="-0.0518">
        <ele>2968</ele>
        <time>2015-05-09T09:54:17Z</time>
      </trkpt>
      <trkpt lat="42.69066" lon="-0.05184">
        <ele>2970</ele>
        <time>2015-05-09T09:54:30Z</time>
      </trkpt>
      <trkpt lat="42.69075" lon="-0.0518">
        <ele>2973</ele>
        <time>2015-05-09T09:54:49Z</time>
      </trkpt>
      <trkpt lat="42.69084" lon="-0.05175">
        <ele>2975</ele>
        <time>2015-05-09T09:55:06Z</time>
      </trkpt>
      <trkpt lat="42.69093" lon="-0.05169">
        <ele>2977</ele>
        <time>2015-05-09T09:55:24Z</time>
      </trkpt>
      <trkpt lat="42.691" lon="-0.05163">
        <ele>2979</ele>
        <time>2015-05-09T09:55:39Z</time>
      </trkpt>
      <trkpt lat="42.69106" lon="-0.05157">
        <ele>2981</ele>
        <time>2015-05-09T09:55:56Z</time>
      </trkpt>
      <trkpt lat="42.69106" lon="-0.05157">
        <ele>2981</ele>
        <time>2015-05-09T09:55:57Z</time>
      </trkpt>
      <trkpt lat="42.69107" lon="-0.05165">
        <ele>2982</ele>
        <time>2015-05-09T09:56:07Z</time>
      </trkpt>
      <trkpt lat="42.69106" lon="-0.05178">
        <ele>2985</ele>
        <time>2015-05-09T09:56:23Z</time>
      </trkpt>
      <trkpt lat="42.69106" lon="-0.0519">
        <ele>2986</ele>
        <time>2015-05-09T09:56:40Z</time>
      </trkpt>
      <trkpt lat="42.69105" lon="-0.05206">
        <ele>2989</ele>
        <time>2015-05-09T09:56:58Z</time>
      </trkpt>
      <trkpt lat="42.69105" lon="-0.05217">
        <ele>2992</ele>
        <time>2015-05-09T09:57:15Z</time>
      </trkpt>
      <trkpt lat="42.6911" lon="-0.05215">
        <ele>2993</ele>
        <time>2015-05-09T09:57:33Z</time>
      </trkpt>
      <trkpt lat="42.69118" lon="-0.05208">
        <ele>2996</ele>
        <time>2015-05-09T09:57:51Z</time>
      </trkpt>
      <trkpt lat="42.69122" lon="-0.05206">
        <ele>2998</ele>
        <time>2015-05-09T09:58:07Z</time>
      </trkpt>
      <trkpt lat="42.69123" lon="-0.05216">
        <ele>2999</ele>
        <time>2015-05-09T09:58:22Z</time>
      </trkpt>
      <trkpt lat="42.69122" lon="-0.05228">
        <ele>3002</ele>
        <time>2015-05-09T09:58:40Z</time>
      </trkpt>
      <trkpt lat="42.69122" lon="-0.05239">
        <ele>3004</ele>
        <time>2015-05-09T09:58:54Z</time>
      </trkpt>
      <trkpt lat="42.69121" lon="-0.05249">
        <ele>3006</ele>
        <time>2015-05-09T09:59:07Z</time>
      </trkpt>
      <trkpt lat="42.69121" lon="-0.05262">
        <ele>3008</ele>
        <time>2015-05-09T09:59:23Z</time>
      </trkpt>
      <trkpt lat="42.69122" lon="-0.05273">
        <ele>3010</ele>
        <time>2015-05-09T09:59:35Z</time>
      </trkpt>
      <trkpt lat="42.69122" lon="-0.05279">
        <ele>3011</ele>
        <time>2015-05-09T09:59:54Z</time>
      </trkpt>
      <trkpt lat="42.69121" lon="-0.05287">
        <ele>3014</ele>
        <time>2015-05-09T10:00:08Z</time>
      </trkpt>
      <trkpt lat="42.69119" lon="-0.05296">
        <ele>3015</ele>
        <time>2015-05-09T10:00:24Z</time>
      </trkpt>
      <trkpt lat="42.69119" lon="-0.05298">
        <ele>3015</ele>
        <time>2015-05-09T10:00:39Z</time>
      </trkpt>
      <trkpt lat="42.69127" lon="-0.05292">
        <ele>3018</ele>
        <time>2015-05-09T10:00:57Z</time>
      </trkpt>
      <trkpt lat="42.69133" lon="-0.05285">
        <ele>3020</ele>
        <time>2015-05-09T10:01:17Z</time>
      </trkpt>
      <trkpt lat="42.69134" lon="-0.05284">
        <ele>3020</ele>
        <time>2015-05-09T10:01:18Z</time>
      </trkpt>
      <trkpt lat="42.69142" lon="-0.05276">
        <ele>3022</ele>
        <time>2015-05-09T10:01:34Z</time>
      </trkpt>
      <trkpt lat="42.69142" lon="-0.05275">
        <ele>3023</ele>
        <time>2015-05-09T10:01:44Z</time>
      </trkpt>
      <trkpt lat="42.69142" lon="-0.05282">
        <ele>3025</ele>
        <time>2015-05-09T10:01:56Z</time>
      </trkpt>
      <trkpt lat="42.6914" lon="-0.0529">
        <ele>3025</ele>
        <time>2015-05-09T10:02:08Z</time>
      </trkpt>
      <trkpt lat="42.6914" lon="-0.05301">
        <ele>3027</ele>
        <time>2015-05-09T10:02:23Z</time>
      </trkpt>
      <trkpt lat="42.69139" lon="-0.05309">
        <ele>3028</ele>
        <time>2015-05-09T10:02:40Z</time>
      </trkpt>
      <trkpt lat="42.69143" lon="-0.05306">
        <ele>3030</ele>
        <time>2015-05-09T10:02:53Z</time>
      </trkpt>
      <trkpt lat="42.69147" lon="-0.05302">
        <ele>3033</ele>
        <time>2015-05-09T10:03:05Z</time>
      </trkpt>
      <trkpt lat="42.69154" lon="-0.05292">
        <ele>3035</ele>
        <time>2015-05-09T10:03:23Z</time>
      </trkpt>
      <trkpt lat="42.69155" lon="-0.05291">
        <ele>3035</ele>
        <time>2015-05-09T10:03:37Z</time>
      </trkpt>
      <trkpt lat="42.69156" lon="-0.05298">
        <ele>3037</ele>
        <time>2015-05-09T10:03:49Z</time>
      </trkpt>
      <trkpt lat="42.69155" lon="-0.05305">
        <ele>3038</ele>
        <time>2015-05-09T10:04:03Z</time>
      </trkpt>
      <trkpt lat="42.69154" lon="-0.05309">
        <ele>3038</ele>
        <time>2015-05-09T10:04:16Z</time>
      </trkpt>
      <trkpt lat="42.69153" lon="-0.0531">
        <ele>3039</ele>
        <time>2015-05-09T10:04:32Z</time>
      </trkpt>
      <trkpt lat="42.69156" lon="-0.05305">
        <ele>3039</ele>
        <time>2015-05-09T10:04:47Z</time>
      </trkpt>
      <trkpt lat="42.69157" lon="-0.05302">
        <ele>3039</ele>
        <time>2015-05-09T10:05:00Z</time>
      </trkpt>
      <trkpt lat="42.69159" lon="-0.053">
        <ele>3040</ele>
        <time>2015-05-09T10:05:18Z</time>
      </trkpt>
      <trkpt lat="42.69162" lon="-0.05294">
        <ele>3041</ele>
        <time>2015-05-09T10:05:30Z</time>
      </trkpt>
      <trkpt lat="42.69166" lon="-0.05288">
        <ele>3043</ele>
        <time>2015-05-09T10:05:44Z</time>
      </trkpt>
      <trkpt lat="42.69172" lon="-0.05283">
        <ele>3044</ele>
        <time>2015-05-09T10:05:56Z</time>
      </trkpt>
      <trkpt lat="42.69175" lon="-0.05285">
        <ele>3046</ele>
        <time>2015-05-09T10:06:07Z</time>
      </trkpt>
      <trkpt lat="42.69174" lon="-0.05292">
        <ele>3048</ele>
        <time>2015-05-09T10:06:18Z</time>
      </trkpt>
      <trkpt lat="42.69173" lon="-0.05302">
        <ele>3050</ele>
        <time>2015-05-09T10:06:31Z</time>
      </trkpt>
      <trkpt lat="42.69172" lon="-0.05306">
        <ele>3051</ele>
        <time>2015-05-09T10:06:48Z</time>
      </trkpt>
      <trkpt lat="42.69172" lon="-0.05306">
        <ele>3050</ele>
        <time>2015-05-09T10:07:12Z</time>
      </trkpt>
      <trkpt lat="42.69171" lon="-0.05318">
        <ele>3053</ele>
        <time>2015-05-09T10:07:26Z</time>
      </trkpt>
      <trkpt lat="42.69171" lon="-0.05327">
        <ele>3055</ele>
        <time>2015-05-09T10:07:39Z</time>
      </trkpt>
      <trkpt lat="42.6917" lon="-0.0533">
        <ele>3055</ele>
        <time>2015-05-09T10:07:54Z</time>
      </trkpt>
      <trkpt lat="42.69171" lon="-0.05329">
        <ele>3055</ele>
        <time>2015-05-09T10:08:11Z</time>
      </trkpt>
      <trkpt lat="42.69175" lon="-0.05323">
        <ele>3056</ele>
        <time>2015-05-09T10:08:24Z</time>
      </trkpt>
      <trkpt lat="42.69179" lon="-0.05317">
        <ele>3057</ele>
        <time>2015-05-09T10:08:38Z</time>
      </trkpt>
      <trkpt lat="42.69185" lon="-0.0531">
        <ele>3059</ele>
        <time>2015-05-09T10:08:52Z</time>
      </trkpt>
      <trkpt lat="42.69191" lon="-0.05305">
        <ele>3060</ele>
        <time>2015-05-09T10:09:08Z</time>
      </trkpt>
      <trkpt lat="42.69196" lon="-0.053">
        <ele>3062</ele>
        <time>2015-05-09T10:09:21Z</time>
      </trkpt>
      <trkpt lat="42.69202" lon="-0.05294">
        <ele>3063</ele>
        <time>2015-05-09T10:09:36Z</time>
      </trkpt>
      <trkpt lat="42.69206" lon="-0.05293">
        <ele>3065</ele>
        <time>2015-05-09T10:09:59Z</time>
      </trkpt>
      <trkpt lat="42.69213" lon="-0.05292">
        <ele>3067</ele>
        <time>2015-05-09T10:10:12Z</time>
      </trkpt>
      <trkpt lat="42.6922" lon="-0.05288">
        <ele>3069</ele>
        <time>2015-05-09T10:10:28Z</time>
      </trkpt>
      <trkpt lat="42.69226" lon="-0.05284">
        <ele>3071</ele>
        <time>2015-05-09T10:10:44Z</time>
      </trkpt>
      <trkpt lat="42.69231" lon="-0.05282">
        <ele>3072</ele>
        <time>2015-05-09T10:11:00Z</time>
      </trkpt>
      <trkpt lat="42.69237" lon="-0.05278">
        <ele>3074</ele>
        <time>2015-05-09T10:11:13Z</time>
      </trkpt>
      <trkpt lat="42.69241" lon="-0.05274">
        <ele>3075</ele>
        <time>2015-05-09T10:11:27Z</time>
      </trkpt>
      <trkpt lat="42.69246" lon="-0.05269">
        <ele>3078</ele>
        <time>2015-05-09T10:11:38Z</time>
      </trkpt>
      <trkpt lat="42.69247" lon="-0.05266">
        <ele>3078</ele>
        <time>2015-05-09T10:11:51Z</time>
      </trkpt>
      <trkpt lat="42.69248" lon="-0.05267">
        <ele>3077</ele>
        <time>2015-05-09T10:12:10Z</time>
      </trkpt>
      <trkpt lat="42.69248" lon="-0.05277">
        <ele>3080</ele>
        <time>2015-05-09T10:12:22Z</time>
      </trkpt>
      <trkpt lat="42.69246" lon="-0.05289">
        <ele>3082</ele>
        <time>2015-05-09T10:12:38Z</time>
      </trkpt>
      <trkpt lat="42.69245" lon="-0.05299">
        <ele>3084</ele>
        <time>2015-05-09T10:12:52Z</time>
      </trkpt>
      <trkpt lat="42.69244" lon="-0.0531">
        <ele>3085</ele>
        <time>2015-05-09T10:13:02Z</time>
      </trkpt>
      <trkpt lat="42.69242" lon="-0.05312">
        <ele>3087</ele>
        <time>2015-05-09T10:13:17Z</time>
      </trkpt>
      <trkpt lat="42.69239" lon="-0.05325">
        <ele>3088</ele>
        <time>2015-05-09T10:13:31Z</time>
      </trkpt>
      <trkpt lat="42.69239" lon="-0.05332">
        <ele>3090</ele>
        <time>2015-05-09T10:13:47Z</time>
      </trkpt>
      <trkpt lat="42.69246" lon="-0.05331">
        <ele>3092</ele>
        <time>2015-05-09T10:13:59Z</time>
      </trkpt>
      <trkpt lat="42.69253" lon="-0.05329">
        <ele>3093</ele>
        <time>2015-05-09T10:14:12Z</time>
      </trkpt>
      <trkpt lat="42.6926" lon="-0.05324">
        <ele>3095</ele>
        <time>2015-05-09T10:14:26Z</time>
      </trkpt>
      <trkpt lat="42.69267" lon="-0.05321">
        <ele>3097</ele>
        <time>2015-05-09T10:14:40Z</time>
      </trkpt>
      <trkpt lat="42.69273" lon="-0.05318">
        <ele>3099</ele>
        <time>2015-05-09T10:14:54Z</time>
      </trkpt>
      <trkpt lat="42.69278" lon="-0.0531">
        <ele>3101</ele>
        <time>2015-05-09T10:15:09Z</time>
      </trkpt>
      <trkpt lat="42.69284" lon="-0.05298">
        <ele>3103</ele>
        <time>2015-05-09T10:15:29Z</time>
      </trkpt>
      <trkpt lat="42.6929" lon="-0.05288">
        <ele>3105</ele>
        <time>2015-05-09T10:15:45Z</time>
      </trkpt>
      <trkpt lat="42.69294" lon="-0.05279">
        <ele>3107</ele>
        <time>2015-05-09T10:16:03Z</time>
      </trkpt>
      <trkpt lat="42.69296" lon="-0.05277">
        <ele>3108</ele>
        <time>2015-05-09T10:16:33Z</time>
      </trkpt>
      <trkpt lat="42.69299" lon="-0.05268">
        <ele>3110</ele>
        <time>2015-05-09T10:16:49Z</time>
      </trkpt>
      <trkpt lat="42.69305" lon="-0.05255">
        <ele>3111</ele>
        <time>2015-05-09T10:17:07Z</time>
      </trkpt>
      <trkpt lat="42.6931" lon="-0.05245">
        <ele>3115</ele>
        <time>2015-05-09T10:17:22Z</time>
      </trkpt>
      <trkpt lat="42.69313" lon="-0.05234">
        <ele>3116</ele>
        <time>2015-05-09T10:17:36Z</time>
      </trkpt>
      <trkpt lat="42.69316" lon="-0.05224">
        <ele>3118</ele>
        <time>2015-05-09T10:17:49Z</time>
      </trkpt>
      <trkpt lat="42.69318" lon="-0.05217">
        <ele>3121</ele>
        <time>2015-05-09T10:17:58Z</time>
      </trkpt>
      <trkpt lat="42.6932" lon="-0.05208">
        <ele>3121</ele>
        <time>2015-05-09T10:18:12Z</time>
      </trkpt>
      <trkpt lat="42.69324" lon="-0.052">
        <ele>3124</ele>
        <time>2015-05-09T10:18:23Z</time>
      </trkpt>
      <trkpt lat="42.69329" lon="-0.05188">
        <ele>3126</ele>
        <time>2015-05-09T10:18:41Z</time>
      </trkpt>
      <trkpt lat="42.6933" lon="-0.05184">
        <ele>3127</ele>
        <time>2015-05-09T10:18:46Z</time>
      </trkpt>
      <trkpt lat="42.69335" lon="-0.05172">
        <ele>3129</ele>
        <time>2015-05-09T10:19:07Z</time>
      </trkpt>
      <trkpt lat="42.69338" lon="-0.05163">
        <ele>3133</ele>
        <time>2015-05-09T10:19:20Z</time>
      </trkpt>
      <trkpt lat="42.6934" lon="-0.05159">
        <ele>3133</ele>
        <time>2015-05-09T10:19:35Z</time>
      </trkpt>
      <trkpt lat="42.69343" lon="-0.05165">
        <ele>3134</ele>
        <time>2015-05-09T10:19:47Z</time>
      </trkpt>
      <trkpt lat="42.69347" lon="-0.05159">
        <ele>3136</ele>
        <time>2015-05-09T10:19:59Z</time>
      </trkpt>
      <trkpt lat="42.69353" lon="-0.05151">
        <ele>3140</ele>
        <time>2015-05-09T10:20:14Z</time>
      </trkpt>
      <trkpt lat="42.69353" lon="-0.05151">
        <ele>3139</ele>
        <time>2015-05-09T10:20:15Z</time>
      </trkpt>
      <trkpt lat="42.69356" lon="-0.05149">
        <ele>3140</ele>
        <time>2015-05-09T10:20:22Z</time>
      </trkpt>
      <trkpt lat="42.69362" lon="-0.05144">
        <ele>3141</ele>
        <time>2015-05-09T10:20:36Z</time>
      </trkpt>
      <trkpt lat="42.69363" lon="-0.05141">
        <ele>3141</ele>
        <time>2015-05-09T10:20:59Z</time>
      </trkpt>
      <trkpt lat="42.69365" lon="-0.05132">
        <ele>3144</ele>
        <time>2015-05-09T10:21:13Z</time>
      </trkpt>
      <trkpt lat="42.69365" lon="-0.0513">
        <ele>3145</ele>
        <time>2015-05-09T10:21:17Z</time>
      </trkpt>
      <trkpt lat="42.69369" lon="-0.05126">
        <ele>3147</ele>
        <time>2015-05-09T10:21:29Z</time>
      </trkpt>
      <trkpt lat="42.69369" lon="-0.05125">
        <ele>3147</ele>
        <time>2015-05-09T10:21:43Z</time>
      </trkpt>
      <trkpt lat="42.69367" lon="-0.05128">
        <ele>3145</ele>
        <time>2015-05-09T10:21:53Z</time>
      </trkpt>
      <trkpt lat="42.69366" lon="-0.05131">
        <ele>3143</ele>
        <time>2015-05-09T10:22:02Z</time>
      </trkpt>
      <trkpt lat="42.69363" lon="-0.05126">
        <ele>3143</ele>
        <time>2015-05-09T10:22:13Z</time>
      </trkpt>
      <trkpt lat="42.69362" lon="-0.05129">
        <ele>3142</ele>
        <time>2015-05-09T10:22:20Z</time>
      </trkpt>
      <trkpt lat="42.69361" lon="-0.05131">
        <ele>3141</ele>
        <time>2015-05-09T10:22:40Z</time>
      </trkpt>
      <trkpt lat="42.69361" lon="-0.05133">
        <ele>3141</ele>
        <time>2015-05-09T10:22:58Z</time>
      </trkpt>
      <trkpt lat="42.69361" lon="-0.05133">
        <ele>3140</ele>
        <time>2015-05-09T10:23:27Z</time>
      </trkpt>
      <trkpt lat="42.69361" lon="-0.05133">
        <ele>3140</ele>
        <time>2015-05-09T10:23:33Z</time>
      </trkpt>
      <trkpt lat="42.69361" lon="-0.05134">
        <ele>3139</ele>
        <time>2015-05-09T10:24:02Z</time>
      </trkpt>
      <trkpt lat="42.6936" lon="-0.05134">
        <ele>3139</ele>
        <time>2015-05-09T10:24:38Z</time>
      </trkpt>
      <trkpt lat="42.6936" lon="-0.05134">
        <ele>3140</ele>
        <time>2015-05-09T10:25:18Z</time>
      </trkpt>
      <trkpt lat="42.69361" lon="-0.05134">
        <ele>3140</ele>
        <time>2015-05-09T10:25:47Z</time>
      </trkpt>
      <trkpt lat="42.6936" lon="-0.05133">
        <ele>3140</ele>
        <time>2015-05-09T10:26:23Z</time>
      </trkpt>
      <trkpt lat="42.6936" lon="-0.05133">
        <ele>3141</ele>
        <time>2015-05-09T10:27:06Z</time>
      </trkpt>
      <trkpt lat="42.6936" lon="-0.05134">
        <ele>3141</ele>
        <time>2015-05-09T10:27:33Z</time>
      </trkpt>
      <trkpt lat="42.69359" lon="-0.05134">
        <ele>3140</ele>
        <time>2015-05-09T10:28:04Z</time>
      </trkpt>
      <trkpt lat="42.69359" lon="-0.05135">
        <ele>3141</ele>
        <time>2015-05-09T10:28:44Z</time>
      </trkpt>
      <trkpt lat="42.6936" lon="-0.05135">
        <ele>3140</ele>
        <time>2015-05-09T10:29:24Z</time>
      </trkpt>
      <trkpt lat="42.6936" lon="-0.05134">
        <ele>3139</ele>
        <time>2015-05-09T10:29:47Z</time>
      </trkpt>
      <trkpt lat="42.6936" lon="-0.05133">
        <ele>3140</ele>
        <time>2015-05-09T10:30:25Z</time>
      </trkpt>
      <trkpt lat="42.69358" lon="-0.05134">
        <ele>3139</ele>
        <time>2015-05-09T10:30:52Z</time>
      </trkpt>
      <trkpt lat="42.69358" lon="-0.05134">
        <ele>3141</ele>
        <time>2015-05-09T10:31:17Z</time>
      </trkpt>
      <trkpt lat="42.69357" lon="-0.05133">
        <ele>3140</ele>
        <time>2015-05-09T10:31:53Z</time>
      </trkpt>
      <trkpt lat="42.69358" lon="-0.05133">
        <ele>3141</ele>
        <time>2015-05-09T10:32:43Z</time>
      </trkpt>
      <trkpt lat="42.6936" lon="-0.05133">
        <ele>3142</ele>
        <time>2015-05-09T10:33:25Z</time>
      </trkpt>
      <trkpt lat="42.69358" lon="-0.05134">
        <ele>3141</ele>
        <time>2015-05-09T10:34:00Z</time>
      </trkpt>
      <trkpt lat="42.69359" lon="-0.05133">
        <ele>3141</ele>
        <time>2015-05-09T10:34:46Z</time>
      </trkpt>
      <trkpt lat="42.69358" lon="-0.05133">
        <ele>3141</ele>
        <time>2015-05-09T10:35:23Z</time>
      </trkpt>
      <trkpt lat="42.69358" lon="-0.05133">
        <ele>3141</ele>
        <time>2015-05-09T10:36:15Z</time>
      </trkpt>
      <trkpt lat="42.6936" lon="-0.05134">
        <ele>3142</ele>
        <time>2015-05-09T10:36:47Z</time>
      </trkpt>
      <trkpt lat="42.6936" lon="-0.05134">
        <ele>3141</ele>
        <time>2015-05-09T10:37:24Z</time>
      </trkpt>
      <trkpt lat="42.6936" lon="-0.05134">
        <ele>3140</ele>
        <time>2015-05-09T10:38:03Z</time>
      </trkpt>
      <trkpt lat="42.6936" lon="-0.05133">
        <ele>3140</ele>
        <time>2015-05-09T10:38:56Z</time>
      </trkpt>
      <trkpt lat="42.69359" lon="-0.05133">
        <ele>3140</ele>
        <time>2015-05-09T10:39:42Z</time>
      </trkpt>
      <trkpt lat="42.69359" lon="-0.05134">
        <ele>3139</ele>
        <time>2015-05-09T10:40:33Z</time>
      </trkpt>
      <trkpt lat="42.69359" lon="-0.05134">
        <ele>3139</ele>
        <time>2015-05-09T10:41:28Z</time>
      </trkpt>
      <trkpt lat="42.69359" lon="-0.05134">
        <ele>3139</ele>
        <time>2015-05-09T10:42:15Z</time>
      </trkpt>
      <trkpt lat="42.69359" lon="-0.05134">
        <ele>3140</ele>
        <time>2015-05-09T10:43:12Z</time>
      </trkpt>
      <trkpt lat="42.69359" lon="-0.05134">
        <ele>3140</ele>
        <time>2015-05-09T10:44:16Z</time>
      </trkpt>
      <trkpt lat="42.69359" lon="-0.05134">
        <ele>3140</ele>
        <time>2015-05-09T10:44:59Z</time>
      </trkpt>
      <trkpt lat="42.69359" lon="-0.05133">
        <ele>3141</ele>
        <time>2015-05-09T10:45:17Z</time>
      </trkpt>
      <trkpt lat="42.69359" lon="-0.05134">
        <ele>3140</ele>
        <time>2015-05-09T10:46:19Z</time>
      </trkpt>
      <trkpt lat="42.69359" lon="-0.05134">
        <ele>3139</ele>
        <time>2015-05-09T10:47:28Z</time>
      </trkpt>
      <trkpt lat="42.69359" lon="-0.05134">
        <ele>3140</ele>
        <time>2015-05-09T10:48:19Z</time>
      </trkpt>
      <trkpt lat="42.69359" lon="-0.05134">
        <ele>3140</ele>
        <time>2015-05-09T10:49:20Z</time>
      </trkpt>
      <trkpt lat="42.69359" lon="-0.05134">
        <ele>3141</ele>
        <time>2015-05-09T10:50:07Z</time>
      </trkpt>
      <trkpt lat="42.69359" lon="-0.05134">
        <ele>3141</ele>
        <time>2015-05-09T10:51:03Z</time>
      </trkpt>
      <trkpt lat="42.69359" lon="-0.05134">
        <ele>3141</ele>
        <time>2015-05-09T10:51:53Z</time>
      </trkpt>
      <trkpt lat="42.69359" lon="-0.05134">
        <ele>3141</ele>
        <time>2015-05-09T10:52:26Z</time>
      </trkpt>
      <trkpt lat="42.6936" lon="-0.05134">
        <ele>3142</ele>
        <time>2015-05-09T10:53:21Z</time>
      </trkpt>
      <trkpt lat="42.69359" lon="-0.05134">
        <ele>3141</ele>
        <time>2015-05-09T10:53:58Z</time>
      </trkpt>
      <trkpt lat="42.69359" lon="-0.05133">
        <ele>3141</ele>
        <time>2015-05-09T10:54:41Z</time>
      </trkpt>
      <trkpt lat="42.6936" lon="-0.05133">
        <ele>3142</ele>
        <time>2015-05-09T10:55:26Z</time>
      </trkpt>
      <trkpt lat="42.69359" lon="-0.05133">
        <ele>3142</ele>
        <time>2015-05-09T10:56:18Z</time>
      </trkpt>
      <trkpt lat="42.69359" lon="-0.05133">
        <ele>3141</ele>
        <time>2015-05-09T10:57:04Z</time>
      </trkpt>
      <trkpt lat="42.69359" lon="-0.05133">
        <ele>3142</ele>
        <time>2015-05-09T10:57:54Z</time>
      </trkpt>
      <trkpt lat="42.6936" lon="-0.05133">
        <ele>3141</ele>
        <time>2015-05-09T10:58:44Z</time>
      </trkpt>
      <trkpt lat="42.69359" lon="-0.05133">
        <ele>3142</ele>
        <time>2015-05-09T10:59:27Z</time>
      </trkpt>
      <trkpt lat="42.69359" lon="-0.05133">
        <ele>3142</ele>
        <time>2015-05-09T10:59:44Z</time>
      </trkpt>
      <trkpt lat="42.69359" lon="-0.05133">
        <ele>3141</ele>
        <time>2015-05-09T11:00:18Z</time>
      </trkpt>
      <trkpt lat="42.69359" lon="-0.05132">
        <ele>3141</ele>
        <time>2015-05-09T11:00:58Z</time>
      </trkpt>
      <trkpt lat="42.69359" lon="-0.05132">
        <ele>3141</ele>
        <time>2015-05-09T11:01:30Z</time>
      </trkpt>
      <trkpt lat="42.69359" lon="-0.05132">
        <ele>3142</ele>
        <time>2015-05-09T11:02:10Z</time>
      </trkpt>
      <trkpt lat="42.69357" lon="-0.05132">
        <ele>3142</ele>
        <time>2015-05-09T11:02:50Z</time>
      </trkpt>
      <trkpt lat="42.69358" lon="-0.05134">
        <ele>3142</ele>
        <time>2015-05-09T11:03:11Z</time>
      </trkpt>
      <trkpt lat="42.69358" lon="-0.05134">
        <ele>3142</ele>
        <time>2015-05-09T11:03:34Z</time>
      </trkpt>
      <trkpt lat="42.69357" lon="-0.05132">
        <ele>3142</ele>
        <time>2015-05-09T11:03:51Z</time>
      </trkpt>
      <trkpt lat="42.69358" lon="-0.05134">
        <ele>3142</ele>
        <time>2015-05-09T11:04:01Z</time>
      </trkpt>
      <trkpt lat="42.69359" lon="-0.05145">
        <ele>3143</ele>
        <time>2015-05-09T11:04:14Z</time>
      </trkpt>
      <trkpt lat="42.69359" lon="-0.05148">
        <ele>3143</ele>
        <time>2015-05-09T11:04:35Z</time>
      </trkpt>
      <trkpt lat="42.69358" lon="-0.05147">
        <ele>3143</ele>
        <time>2015-05-09T11:04:50Z</time>
      </trkpt>
      <trkpt lat="42.6936" lon="-0.05147">
        <ele>3143</ele>
        <time>2015-05-09T11:05:06Z</time>
      </trkpt>
      <trkpt lat="42.69358" lon="-0.05146">
        <ele>3143</ele>
        <time>2015-05-09T11:05:22Z</time>
      </trkpt>
      <trkpt lat="42.69351" lon="-0.05151">
        <ele>3140</ele>
        <time>2015-05-09T11:05:28Z</time>
      </trkpt>
      <trkpt lat="42.6935" lon="-0.05152">
        <ele>3139</ele>
        <time>2015-05-09T11:05:29Z</time>
      </trkpt>
      <trkpt lat="42.69344" lon="-0.05157">
        <ele>3135</ele>
        <time>2015-05-09T11:05:37Z</time>
      </trkpt>
      <trkpt lat="42.69338" lon="-0.05167">
        <ele>3132</ele>
        <time>2015-05-09T11:05:43Z</time>
      </trkpt>
      <trkpt lat="42.69333" lon="-0.05178">
        <ele>3130</ele>
        <time>2015-05-09T11:05:46Z</time>
      </trkpt>
      <trkpt lat="42.6933" lon="-0.05182">
        <ele>3128</ele>
        <time>2015-05-09T11:05:48Z</time>
      </trkpt>
      <trkpt lat="42.69325" lon="-0.05191">
        <ele>3125</ele>
        <time>2015-05-09T11:05:51Z</time>
      </trkpt>
      <trkpt lat="42.6932" lon="-0.05201">
        <ele>3122</ele>
        <time>2015-05-09T11:05:54Z</time>
      </trkpt>
      <trkpt lat="42.69316" lon="-0.05211">
        <ele>3120</ele>
        <time>2015-05-09T11:05:57Z</time>
      </trkpt>
      <trkpt lat="42.69307" lon="-0.05224">
        <ele>3117</ele>
        <time>2015-05-09T11:06:02Z</time>
      </trkpt>
      <trkpt lat="42.69305" lon="-0.05227">
        <ele>3114</ele>
        <time>2015-05-09T11:06:05Z</time>
      </trkpt>
      <trkpt lat="42.69296" lon="-0.05245">
        <ele>3110</ele>
        <time>2015-05-09T11:06:21Z</time>
      </trkpt>
      <trkpt lat="42.6929" lon="-0.05255">
        <ele>3108</ele>
        <time>2015-05-09T11:06:25Z</time>
      </trkpt>
      <trkpt lat="42.6929" lon="-0.05256">
        <ele>3107</ele>
        <time>2015-05-09T11:06:26Z</time>
      </trkpt>
      <trkpt lat="42.6929" lon="-0.05257">
        <ele>3107</ele>
        <time>2015-05-09T11:06:28Z</time>
      </trkpt>
      <trkpt lat="42.69276" lon="-0.0526">
        <ele>3103</ele>
        <time>2015-05-09T11:06:33Z</time>
      </trkpt>
      <trkpt lat="42.69269" lon="-0.05259">
        <ele>3098</ele>
        <time>2015-05-09T11:06:35Z</time>
      </trkpt>
      <trkpt lat="42.6926" lon="-0.05261">
        <ele>3093</ele>
        <time>2015-05-09T11:06:37Z</time>
      </trkpt>
      <trkpt lat="42.69251" lon="-0.05258">
        <ele>3087</ele>
        <time>2015-05-09T11:06:39Z</time>
      </trkpt>
      <trkpt lat="42.69246" lon="-0.05257">
        <ele>3082</ele>
        <time>2015-05-09T11:06:40Z</time>
      </trkpt>
      <trkpt lat="42.69243" lon="-0.05259">
        <ele>3079</ele>
        <time>2015-05-09T11:06:41Z</time>
      </trkpt>
      <trkpt lat="42.69238" lon="-0.05263">
        <ele>3076</ele>
        <time>2015-05-09T11:06:44Z</time>
      </trkpt>
      <trkpt lat="42.69234" lon="-0.05274">
        <ele>3076</ele>
        <time>2015-05-09T11:06:58Z</time>
      </trkpt>
      <trkpt lat="42.6923" lon="-0.05278">
        <ele>3075</ele>
        <time>2015-05-09T11:07:00Z</time>
      </trkpt>
      <trkpt lat="42.69216" lon="-0.0529">
        <ele>3072</ele>
        <time>2015-05-09T11:07:04Z</time>
      </trkpt>
      <trkpt lat="42.69213" lon="-0.05294">
        <ele>3071</ele>
        <time>2015-05-09T11:07:05Z</time>
      </trkpt>
      <trkpt lat="42.692" lon="-0.05304">
        <ele>3068</ele>
        <time>2015-05-09T11:07:09Z</time>
      </trkpt>
      <trkpt lat="42.69195" lon="-0.0531">
        <ele>3066</ele>
        <time>2015-05-09T11:07:12Z</time>
      </trkpt>
      <trkpt lat="42.69194" lon="-0.05309">
        <ele>3065</ele>
        <time>2015-05-09T11:07:22Z</time>
      </trkpt>
      <trkpt lat="42.69195" lon="-0.05308">
        <ele>3065</ele>
        <time>2015-05-09T11:07:35Z</time>
      </trkpt>
      <trkpt lat="42.69185" lon="-0.05314">
        <ele>3064</ele>
        <time>2015-05-09T11:07:40Z</time>
      </trkpt>
      <trkpt lat="42.69178" lon="-0.05319">
        <ele>3061</ele>
        <time>2015-05-09T11:07:43Z</time>
      </trkpt>
      <trkpt lat="42.69164" lon="-0.05334">
        <ele>3057</ele>
        <time>2015-05-09T11:07:48Z</time>
      </trkpt>
      <trkpt lat="42.69162" lon="-0.05336">
        <ele>3056</ele>
        <time>2015-05-09T11:07:49Z</time>
      </trkpt>
      <trkpt lat="42.69157" lon="-0.05337">
        <ele>3055</ele>
        <time>2015-05-09T11:07:51Z</time>
      </trkpt>
      <trkpt lat="42.69155" lon="-0.05329">
        <ele>3051</ele>
        <time>2015-05-09T11:07:53Z</time>
      </trkpt>
      <trkpt lat="42.69147" lon="-0.05324">
        <ele>3046</ele>
        <time>2015-05-09T11:07:56Z</time>
      </trkpt>
      <trkpt lat="42.69143" lon="-0.05324">
        <ele>3042</ele>
        <time>2015-05-09T11:07:57Z</time>
      </trkpt>
      <trkpt lat="42.69138" lon="-0.05319">
        <ele>3036</ele>
        <time>2015-05-09T11:07:59Z</time>
      </trkpt>
      <trkpt lat="42.69131" lon="-0.05314">
        <ele>3031</ele>
        <time>2015-05-09T11:08:01Z</time>
      </trkpt>
      <trkpt lat="42.69126" lon="-0.0531">
        <ele>3027</ele>
        <time>2015-05-09T11:08:03Z</time>
      </trkpt>
      <trkpt lat="42.69119" lon="-0.05304">
        <ele>3023</ele>
        <time>2015-05-09T11:08:05Z</time>
      </trkpt>
      <trkpt lat="42.69111" lon="-0.053">
        <ele>3018</ele>
        <time>2015-05-09T11:08:07Z</time>
      </trkpt>
      <trkpt lat="42.69108" lon="-0.05297">
        <ele>3015</ele>
        <time>2015-05-09T11:08:08Z</time>
      </trkpt>
      <trkpt lat="42.69102" lon="-0.05293">
        <ele>3011</ele>
        <time>2015-05-09T11:08:10Z</time>
      </trkpt>
      <trkpt lat="42.691" lon="-0.0529">
        <ele>3008</ele>
        <time>2015-05-09T11:08:11Z</time>
      </trkpt>
      <trkpt lat="42.69095" lon="-0.05287">
        <ele>3005</ele>
        <time>2015-05-09T11:08:13Z</time>
      </trkpt>
      <trkpt lat="42.69093" lon="-0.0529">
        <ele>3003</ele>
        <time>2015-05-09T11:08:14Z</time>
      </trkpt>
      <trkpt lat="42.69062" lon="-0.05307">
        <ele>3000</ele>
        <time>2015-05-09T11:08:25Z</time>
      </trkpt>
      <trkpt lat="42.69058" lon="-0.05299">
        <ele>2997</ele>
        <time>2015-05-09T11:08:29Z</time>
      </trkpt>
      <trkpt lat="42.69059" lon="-0.053">
        <ele>2997</ele>
        <time>2015-05-09T11:08:48Z</time>
      </trkpt>
      <trkpt lat="42.69061" lon="-0.05301">
        <ele>2997</ele>
        <time>2015-05-09T11:09:14Z</time>
      </trkpt>
      <trkpt lat="42.69059" lon="-0.05301">
        <ele>2997</ele>
        <time>2015-05-09T11:09:34Z</time>
      </trkpt>
      <trkpt lat="42.69059" lon="-0.05301">
        <ele>2997</ele>
        <time>2015-05-09T11:10:06Z</time>
      </trkpt>
      <trkpt lat="42.69058" lon="-0.053">
        <ele>2997</ele>
        <time>2015-05-09T11:10:32Z</time>
      </trkpt>
      <trkpt lat="42.69057" lon="-0.05301">
        <ele>2998</ele>
        <time>2015-05-09T11:10:55Z</time>
      </trkpt>
      <trkpt lat="42.69058" lon="-0.05301">
        <ele>2998</ele>
        <time>2015-05-09T11:11:03Z</time>
      </trkpt>
      <trkpt lat="42.69051" lon="-0.0528">
        <ele>2993</ele>
        <time>2015-05-09T11:11:09Z</time>
      </trkpt>
      <trkpt lat="42.69045" lon="-0.05263">
        <ele>2989</ele>
        <time>2015-05-09T11:11:12Z</time>
      </trkpt>
      <trkpt lat="42.69041" lon="-0.0525">
        <ele>2985</ele>
        <time>2015-05-09T11:11:14Z</time>
      </trkpt>
      <trkpt lat="42.69032" lon="-0.05223">
        <ele>2978</ele>
        <time>2015-05-09T11:11:18Z</time>
      </trkpt>
      <trkpt lat="42.69026" lon="-0.05209">
        <ele>2974</ele>
        <time>2015-05-09T11:11:20Z</time>
      </trkpt>
      <trkpt lat="42.69019" lon="-0.05188">
        <ele>2969</ele>
        <time>2015-05-09T11:11:23Z</time>
      </trkpt>
      <trkpt lat="42.69012" lon="-0.05169">
        <ele>2965</ele>
        <time>2015-05-09T11:11:26Z</time>
      </trkpt>
      <trkpt lat="42.69011" lon="-0.05145">
        <ele>2962</ele>
        <time>2015-05-09T11:11:30Z</time>
      </trkpt>
      <trkpt lat="42.69005" lon="-0.05121">
        <ele>2959</ele>
        <time>2015-05-09T11:11:34Z</time>
      </trkpt>
      <trkpt lat="42.69002" lon="-0.05101">
        <ele>2955</ele>
        <time>2015-05-09T11:11:38Z</time>
      </trkpt>
      <trkpt lat="42.68999" lon="-0.05084">
        <ele>2950</ele>
        <time>2015-05-09T11:11:41Z</time>
      </trkpt>
      <trkpt lat="42.69002" lon="-0.05061">
        <ele>2944</ele>
        <time>2015-05-09T11:11:44Z</time>
      </trkpt>
      <trkpt lat="42.69003" lon="-0.05052">
        <ele>2940</ele>
        <time>2015-05-09T11:11:45Z</time>
      </trkpt>
      <trkpt lat="42.69001" lon="-0.05043">
        <ele>2937</ele>
        <time>2015-05-09T11:11:46Z</time>
      </trkpt>
      <trkpt lat="42.68991" lon="-0.05031">
        <ele>2934</ele>
        <time>2015-05-09T11:11:48Z</time>
      </trkpt>
      <trkpt lat="42.68985" lon="-0.05012">
        <ele>2930</ele>
        <time>2015-05-09T11:11:51Z</time>
      </trkpt>
      <trkpt lat="42.68985" lon="-0.04995">
        <ele>2926</ele>
        <time>2015-05-09T11:11:53Z</time>
      </trkpt>
      <trkpt lat="42.68981" lon="-0.04968">
        <ele>2924</ele>
        <time>2015-05-09T11:11:57Z</time>
      </trkpt>
      <trkpt lat="42.6898" lon="-0.04963">
        <ele>2923</ele>
        <time>2015-05-09T11:11:59Z</time>
      </trkpt>
      <trkpt lat="42.6898" lon="-0.04962">
        <ele>2923</ele>
        <time>2015-05-09T11:12:15Z</time>
      </trkpt>
      <trkpt lat="42.6898" lon="-0.0496">
        <ele>2923</ele>
        <time>2015-05-09T11:12:28Z</time>
      </trkpt>
      <trkpt lat="42.68978" lon="-0.04944">
        <ele>2920</ele>
        <time>2015-05-09T11:12:38Z</time>
      </trkpt>
      <trkpt lat="42.68976" lon="-0.04935">
        <ele>2918</ele>
        <time>2015-05-09T11:12:40Z</time>
      </trkpt>
      <trkpt lat="42.68973" lon="-0.0491">
        <ele>2914</ele>
        <time>2015-05-09T11:12:45Z</time>
      </trkpt>
      <trkpt lat="42.68972" lon="-0.04891">
        <ele>2910</ele>
        <time>2015-05-09T11:12:48Z</time>
      </trkpt>
      <trkpt lat="42.68973" lon="-0.04869">
        <ele>2904</ele>
        <time>2015-05-09T11:12:52Z</time>
      </trkpt>
      <trkpt lat="42.68972" lon="-0.0485">
        <ele>2900</ele>
        <time>2015-05-09T11:12:55Z</time>
      </trkpt>
      <trkpt lat="42.68969" lon="-0.04826">
        <ele>2897</ele>
        <time>2015-05-09T11:12:58Z</time>
      </trkpt>
      <trkpt lat="42.68966" lon="-0.04799">
        <ele>2892</ele>
        <time>2015-05-09T11:13:02Z</time>
      </trkpt>
      <trkpt lat="42.68966" lon="-0.04793">
        <ele>2891</ele>
        <time>2015-05-09T11:13:03Z</time>
      </trkpt>
      <trkpt lat="42.68965" lon="-0.04779">
        <ele>2890</ele>
        <time>2015-05-09T11:13:05Z</time>
      </trkpt>
      <trkpt lat="42.68962" lon="-0.04756">
        <ele>2888</ele>
        <time>2015-05-09T11:13:09Z</time>
      </trkpt>
      <trkpt lat="42.68961" lon="-0.04751">
        <ele>2886</ele>
        <time>2015-05-09T11:13:12Z</time>
      </trkpt>
      <trkpt lat="42.68959" lon="-0.04749">
        <ele>2887</ele>
        <time>2015-05-09T11:13:37Z</time>
      </trkpt>
      <trkpt lat="42.6896" lon="-0.04751">
        <ele>2887</ele>
        <time>2015-05-09T11:13:59Z</time>
      </trkpt>
      <trkpt lat="42.6896" lon="-0.04751">
        <ele>2887</ele>
        <time>2015-05-09T11:14:26Z</time>
      </trkpt>
      <trkpt lat="42.6896" lon="-0.04751">
        <ele>2887</ele>
        <time>2015-05-09T11:14:29Z</time>
      </trkpt>
      <trkpt lat="42.68962" lon="-0.04731">
        <ele>2883</ele>
        <time>2015-05-09T11:14:36Z</time>
      </trkpt>
      <trkpt lat="42.68973" lon="-0.04729">
        <ele>2878</ele>
        <time>2015-05-09T11:14:39Z</time>
      </trkpt>
      <trkpt lat="42.68975" lon="-0.04716">
        <ele>2875</ele>
        <time>2015-05-09T11:14:41Z</time>
      </trkpt>
      <trkpt lat="42.6897" lon="-0.04678">
        <ele>2868</ele>
        <time>2015-05-09T11:14:45Z</time>
      </trkpt>
      <trkpt lat="42.68969" lon="-0.0467">
        <ele>2866</ele>
        <time>2015-05-09T11:14:46Z</time>
      </trkpt>
      <trkpt lat="42.68973" lon="-0.04657">
        <ele>2862</ele>
        <time>2015-05-09T11:14:48Z</time>
      </trkpt>
      <trkpt lat="42.68977" lon="-0.04647">
        <ele>2857</ele>
        <time>2015-05-09T11:14:50Z</time>
      </trkpt>
      <trkpt lat="42.68976" lon="-0.04639">
        <ele>2857</ele>
        <time>2015-05-09T11:14:51Z</time>
      </trkpt>
      <trkpt lat="42.68968" lon="-0.04612">
        <ele>2852</ele>
        <time>2015-05-09T11:14:54Z</time>
      </trkpt>
      <trkpt lat="42.68961" lon="-0.04577">
        <ele>2848</ele>
        <time>2015-05-09T11:14:57Z</time>
      </trkpt>
      <trkpt lat="42.68956" lon="-0.0454">
        <ele>2844</ele>
        <time>2015-05-09T11:15:00Z</time>
      </trkpt>
      <trkpt lat="42.68951" lon="-0.04504">
        <ele>2840</ele>
        <time>2015-05-09T11:15:03Z</time>
      </trkpt>
      <trkpt lat="42.68949" lon="-0.0448">
        <ele>2837</ele>
        <time>2015-05-09T11:15:05Z</time>
      </trkpt>
      <trkpt lat="42.68947" lon="-0.04455">
        <ele>2833</ele>
        <time>2015-05-09T11:15:07Z</time>
      </trkpt>
      <trkpt lat="42.68947" lon="-0.04443">
        <ele>2833</ele>
        <time>2015-05-09T11:15:08Z</time>
      </trkpt>
      <trkpt lat="42.68946" lon="-0.0442">
        <ele>2830</ele>
        <time>2015-05-09T11:15:10Z</time>
      </trkpt>
      <trkpt lat="42.68947" lon="-0.04392">
        <ele>2827</ele>
        <time>2015-05-09T11:15:13Z</time>
      </trkpt>
      <trkpt lat="42.68946" lon="-0.04381">
        <ele>2826</ele>
        <time>2015-05-09T11:15:15Z</time>
      </trkpt>
      <trkpt lat="42.68943" lon="-0.04382">
        <ele>2825</ele>
        <time>2015-05-09T11:15:25Z</time>
      </trkpt>
      <trkpt lat="42.68942" lon="-0.04382">
        <ele>2826</ele>
        <time>2015-05-09T11:15:51Z</time>
      </trkpt>
      <trkpt lat="42.68942" lon="-0.0438">
        <ele>2825</ele>
        <time>2015-05-09T11:15:57Z</time>
      </trkpt>
      <trkpt lat="42.68938" lon="-0.04344">
        <ele>2822</ele>
        <time>2015-05-09T11:16:04Z</time>
      </trkpt>
      <trkpt lat="42.68937" lon="-0.04334">
        <ele>2820</ele>
        <time>2015-05-09T11:16:05Z</time>
      </trkpt>
      <trkpt lat="42.68925" lon="-0.04295">
        <ele>2815</ele>
        <time>2015-05-09T11:16:09Z</time>
      </trkpt>
      <trkpt lat="42.68917" lon="-0.04264">
        <ele>2811</ele>
        <time>2015-05-09T11:16:12Z</time>
      </trkpt>
      <trkpt lat="42.68912" lon="-0.04244">
        <ele>2810</ele>
        <time>2015-05-09T11:16:14Z</time>
      </trkpt>
      <trkpt lat="42.68903" lon="-0.04219">
        <ele>2806</ele>
        <time>2015-05-09T11:16:17Z</time>
      </trkpt>
      <trkpt lat="42.68901" lon="-0.04213">
        <ele>2806</ele>
        <time>2015-05-09T11:16:18Z</time>
      </trkpt>
      <trkpt lat="42.68894" lon="-0.04198">
        <ele>2803</ele>
        <time>2015-05-09T11:16:21Z</time>
      </trkpt>
      <trkpt lat="42.68896" lon="-0.04189">
        <ele>2801</ele>
        <time>2015-05-09T11:16:23Z</time>
      </trkpt>
      <trkpt lat="42.68895" lon="-0.0417">
        <ele>2797</ele>
        <time>2015-05-09T11:16:26Z</time>
      </trkpt>
      <trkpt lat="42.68892" lon="-0.04166">
        <ele>2794</ele>
        <time>2015-05-09T11:16:28Z</time>
      </trkpt>
      <trkpt lat="42.68889" lon="-0.04161">
        <ele>2793</ele>
        <time>2015-05-09T11:16:30Z</time>
      </trkpt>
      <trkpt lat="42.68895" lon="-0.04144">
        <ele>2788</ele>
        <time>2015-05-09T11:16:34Z</time>
      </trkpt>
      <trkpt lat="42.68903" lon="-0.04135">
        <ele>2787</ele>
        <time>2015-05-09T11:16:36Z</time>
      </trkpt>
      <trkpt lat="42.68911" lon="-0.04119">
        <ele>2785</ele>
        <time>2015-05-09T11:16:39Z</time>
      </trkpt>
      <trkpt lat="42.68923" lon="-0.04083">
        <ele>2782</ele>
        <time>2015-05-09T11:16:45Z</time>
      </trkpt>
      <trkpt lat="42.68939" lon="-0.04031">
        <ele>2778</ele>
        <time>2015-05-09T11:16:56Z</time>
      </trkpt>
      <trkpt lat="42.68948" lon="-0.03996">
        <ele>2775</ele>
        <time>2015-05-09T11:17:02Z</time>
      </trkpt>
      <trkpt lat="42.68952" lon="-0.03963">
        <ele>2772</ele>
        <time>2015-05-09T11:17:09Z</time>
      </trkpt>
      <trkpt lat="42.68953" lon="-0.03936">
        <ele>2770</ele>
        <time>2015-05-09T11:17:14Z</time>
      </trkpt>
      <trkpt lat="42.68953" lon="-0.03883">
        <ele>2766</ele>
        <time>2015-05-09T11:17:26Z</time>
      </trkpt>
      <trkpt lat="42.68953" lon="-0.03879">
        <ele>2766</ele>
        <time>2015-05-09T11:17:27Z</time>
      </trkpt>
      <trkpt lat="42.68952" lon="-0.03828">
        <ele>2763</ele>
        <time>2015-05-09T11:17:40Z</time>
      </trkpt>
      <trkpt lat="42.68952" lon="-0.03781">
        <ele>2761</ele>
        <time>2015-05-09T11:17:53Z</time>
      </trkpt>
      <trkpt lat="42.68951" lon="-0.03779">
        <ele>2761</ele>
        <time>2015-05-09T11:17:56Z</time>
      </trkpt>
      <trkpt lat="42.6895" lon="-0.03777">
        <ele>2761</ele>
        <time>2015-05-09T11:17:58Z</time>
      </trkpt>
      <trkpt lat="42.6895" lon="-0.0376">
        <ele>2761</ele>
        <time>2015-05-09T11:18:11Z</time>
      </trkpt>
      <trkpt lat="42.68949" lon="-0.03758">
        <ele>2760</ele>
        <time>2015-05-09T11:18:13Z</time>
      </trkpt>
      <trkpt lat="42.68949" lon="-0.03745">
        <ele>2761</ele>
        <time>2015-05-09T11:18:26Z</time>
      </trkpt>
      <trkpt lat="42.68953" lon="-0.03709">
        <ele>2759</ele>
        <time>2015-05-09T11:18:38Z</time>
      </trkpt>
      <trkpt lat="42.68956" lon="-0.03701">
        <ele>2758</ele>
        <time>2015-05-09T11:18:40Z</time>
      </trkpt>
      <trkpt lat="42.6896" lon="-0.03687">
        <ele>2757</ele>
        <time>2015-05-09T11:18:49Z</time>
      </trkpt>
      <trkpt lat="42.68963" lon="-0.0368">
        <ele>2759</ele>
        <time>2015-05-09T11:19:00Z</time>
      </trkpt>
      <trkpt lat="42.68964" lon="-0.03675">
        <ele>2759</ele>
        <time>2015-05-09T11:19:12Z</time>
      </trkpt>
      <trkpt lat="42.68963" lon="-0.03676">
        <ele>2759</ele>
        <time>2015-05-09T11:19:33Z</time>
      </trkpt>
      <trkpt lat="42.68964" lon="-0.03674">
        <ele>2758</ele>
        <time>2015-05-09T11:19:52Z</time>
      </trkpt>
      <trkpt lat="42.68963" lon="-0.03671">
        <ele>2758</ele>
        <time>2015-05-09T11:20:18Z</time>
      </trkpt>
      <trkpt lat="42.68962" lon="-0.03672">
        <ele>2758</ele>
        <time>2015-05-09T11:20:45Z</time>
      </trkpt>
      <trkpt lat="42.68965" lon="-0.03672">
        <ele>2759</ele>
        <time>2015-05-09T11:21:12Z</time>
      </trkpt>
      <trkpt lat="42.68969" lon="-0.03672">
        <ele>2758</ele>
        <time>2015-05-09T11:21:38Z</time>
      </trkpt>
      <trkpt lat="42.68973" lon="-0.03669">
        <ele>2758</ele>
        <time>2015-05-09T11:22:14Z</time>
      </trkpt>
      <trkpt lat="42.68975" lon="-0.03665">
        <ele>2759</ele>
        <time>2015-05-09T11:22:42Z</time>
      </trkpt>
      <trkpt lat="42.68965" lon="-0.0367">
        <ele>2759</ele>
        <time>2015-05-09T11:23:07Z</time>
      </trkpt>
      <trkpt lat="42.68965" lon="-0.03669">
        <ele>2759</ele>
        <time>2015-05-09T11:23:25Z</time>
      </trkpt>
      <trkpt lat="42.68964" lon="-0.03673">
        <ele>2759</ele>
        <time>2015-05-09T11:23:45Z</time>
      </trkpt>
      <trkpt lat="42.68964" lon="-0.03672">
        <ele>2759</ele>
        <time>2015-05-09T11:23:59Z</time>
      </trkpt>
      <trkpt lat="42.68966" lon="-0.03669">
        <ele>2760</ele>
        <time>2015-05-09T11:24:16Z</time>
      </trkpt>
      <trkpt lat="42.6897" lon="-0.03663">
        <ele>2760</ele>
        <time>2015-05-09T11:24:31Z</time>
      </trkpt>
      <trkpt lat="42.68975" lon="-0.03654">
        <ele>2762</ele>
        <time>2015-05-09T11:24:46Z</time>
      </trkpt>
      <trkpt lat="42.68982" lon="-0.03644">
        <ele>2763</ele>
        <time>2015-05-09T11:25:02Z</time>
      </trkpt>
      <trkpt lat="42.68988" lon="-0.03636">
        <ele>2764</ele>
        <time>2015-05-09T11:25:18Z</time>
      </trkpt>
      <trkpt lat="42.68994" lon="-0.03627">
        <ele>2766</ele>
        <time>2015-05-09T11:25:36Z</time>
      </trkpt>
      <trkpt lat="42.68998" lon="-0.03623">
        <ele>2767</ele>
        <time>2015-05-09T11:25:52Z</time>
      </trkpt>
      <trkpt lat="42.68999" lon="-0.0362">
        <ele>2768</ele>
        <time>2015-05-09T11:26:06Z</time>
      </trkpt>
      <trkpt lat="42.69" lon="-0.03616">
        <ele>2768</ele>
        <time>2015-05-09T11:26:20Z</time>
      </trkpt>
      <trkpt lat="42.69004" lon="-0.03607">
        <ele>2769</ele>
        <time>2015-05-09T11:26:36Z</time>
      </trkpt>
      <trkpt lat="42.69007" lon="-0.03599">
        <ele>2771</ele>
        <time>2015-05-09T11:26:53Z</time>
      </trkpt>
      <trkpt lat="42.6901" lon="-0.03592">
        <ele>2771</ele>
        <time>2015-05-09T11:27:11Z</time>
      </trkpt>
      <trkpt lat="42.69011" lon="-0.03588">
        <ele>2772</ele>
        <time>2015-05-09T11:27:24Z</time>
      </trkpt>
      <trkpt lat="42.69015" lon="-0.0358">
        <ele>2773</ele>
        <time>2015-05-09T11:27:41Z</time>
      </trkpt>
      <trkpt lat="42.69017" lon="-0.03574">
        <ele>2775</ele>
        <time>2015-05-09T11:27:55Z</time>
      </trkpt>
      <trkpt lat="42.69019" lon="-0.03568">
        <ele>2776</ele>
        <time>2015-05-09T11:28:08Z</time>
      </trkpt>
      <trkpt lat="42.69022" lon="-0.03561">
        <ele>2778</ele>
        <time>2015-05-09T11:28:21Z</time>
      </trkpt>
      <trkpt lat="42.69026" lon="-0.03552">
        <ele>2779</ele>
        <time>2015-05-09T11:28:37Z</time>
      </trkpt>
      <trkpt lat="42.69027" lon="-0.03548">
        <ele>2780</ele>
        <time>2015-05-09T11:28:50Z</time>
      </trkpt>
      <trkpt lat="42.6903" lon="-0.03541">
        <ele>2781</ele>
        <time>2015-05-09T11:29:06Z</time>
      </trkpt>
      <trkpt lat="42.69033" lon="-0.03533">
        <ele>2782</ele>
        <time>2015-05-09T11:29:24Z</time>
      </trkpt>
      <trkpt lat="42.69035" lon="-0.03525">
        <ele>2782</ele>
        <time>2015-05-09T11:29:40Z</time>
      </trkpt>
      <trkpt lat="42.69038" lon="-0.03519">
        <ele>2784</ele>
        <time>2015-05-09T11:29:56Z</time>
      </trkpt>
      <trkpt lat="42.69039" lon="-0.03514">
        <ele>2784</ele>
        <time>2015-05-09T11:30:09Z</time>
      </trkpt>
      <trkpt lat="42.69041" lon="-0.03509">
        <ele>2785</ele>
        <time>2015-05-09T11:30:25Z</time>
      </trkpt>
      <trkpt lat="42.69043" lon="-0.03504">
        <ele>2786</ele>
        <time>2015-05-09T11:30:37Z</time>
      </trkpt>
      <trkpt lat="42.69047" lon="-0.03492">
        <ele>2787</ele>
        <time>2015-05-09T11:30:56Z</time>
      </trkpt>
      <trkpt lat="42.69048" lon="-0.03487">
        <ele>2787</ele>
        <time>2015-05-09T11:31:11Z</time>
      </trkpt>
      <trkpt lat="42.69053" lon="-0.03474">
        <ele>2789</ele>
        <time>2015-05-09T11:31:32Z</time>
      </trkpt>
      <trkpt lat="42.69059" lon="-0.03461">
        <ele>2790</ele>
        <time>2015-05-09T11:31:50Z</time>
      </trkpt>
      <trkpt lat="42.69063" lon="-0.0345">
        <ele>2792</ele>
        <time>2015-05-09T11:32:09Z</time>
      </trkpt>
      <trkpt lat="42.69064" lon="-0.03444">
        <ele>2793</ele>
        <time>2015-05-09T11:32:23Z</time>
      </trkpt>
      <trkpt lat="42.69066" lon="-0.03441">
        <ele>2794</ele>
        <time>2015-05-09T11:32:36Z</time>
      </trkpt>
      <trkpt lat="42.69069" lon="-0.03443">
        <ele>2796</ele>
        <time>2015-05-09T11:32:51Z</time>
      </trkpt>
      <trkpt lat="42.69071" lon="-0.03442">
        <ele>2797</ele>
        <time>2015-05-09T11:33:05Z</time>
      </trkpt>
      <trkpt lat="42.69073" lon="-0.03438">
        <ele>2799</ele>
        <time>2015-05-09T11:33:18Z</time>
      </trkpt>
      <trkpt lat="42.69074" lon="-0.03438">
        <ele>2800</ele>
        <time>2015-05-09T11:33:23Z</time>
      </trkpt>
      <trkpt lat="42.69076" lon="-0.03439">
        <ele>2801</ele>
        <time>2015-05-09T11:33:34Z</time>
      </trkpt>
      <trkpt lat="42.6908" lon="-0.03437">
        <ele>2803</ele>
        <time>2015-05-09T11:33:45Z</time>
      </trkpt>
      <trkpt lat="42.69082" lon="-0.03437">
        <ele>2803</ele>
        <time>2015-05-09T11:33:48Z</time>
      </trkpt>
      <trkpt lat="42.69086" lon="-0.03433">
        <ele>2806</ele>
        <time>2015-05-09T11:34:03Z</time>
      </trkpt>
      <trkpt lat="42.69088" lon="-0.03426">
        <ele>2806</ele>
        <time>2015-05-09T11:34:15Z</time>
      </trkpt>
      <trkpt lat="42.6909" lon="-0.03421">
        <ele>2809</ele>
        <time>2015-05-09T11:34:28Z</time>
      </trkpt>
      <trkpt lat="42.69094" lon="-0.03415">
        <ele>2810</ele>
        <time>2015-05-09T11:34:40Z</time>
      </trkpt>
      <trkpt lat="42.691" lon="-0.03407">
        <ele>2811</ele>
        <time>2015-05-09T11:34:53Z</time>
      </trkpt>
      <trkpt lat="42.69102" lon="-0.03405">
        <ele>2812</ele>
        <time>2015-05-09T11:35:09Z</time>
      </trkpt>
      <trkpt lat="42.69102" lon="-0.03407">
        <ele>2813</ele>
        <time>2015-05-09T11:35:35Z</time>
      </trkpt>
      <trkpt lat="42.69103" lon="-0.03402">
        <ele>2812</ele>
        <time>2015-05-09T11:36:01Z</time>
      </trkpt>
      <trkpt lat="42.69103" lon="-0.03402">
        <ele>2812</ele>
        <time>2015-05-09T11:36:17Z</time>
      </trkpt>
      <trkpt lat="42.69104" lon="-0.03403">
        <ele>2812</ele>
        <time>2015-05-09T11:36:45Z</time>
      </trkpt>
      <trkpt lat="42.69104" lon="-0.03403">
        <ele>2812</ele>
        <time>2015-05-09T11:36:58Z</time>
      </trkpt>
      <trkpt lat="42.69105" lon="-0.03405">
        <ele>2811</ele>
        <time>2015-05-09T11:37:09Z</time>
      </trkpt>
      <trkpt lat="42.69107" lon="-0.03406">
        <ele>2810</ele>
        <time>2015-05-09T11:37:23Z</time>
      </trkpt>
      <trkpt lat="42.69108" lon="-0.03411">
        <ele>2811</ele>
        <time>2015-05-09T11:37:36Z</time>
      </trkpt>
      <trkpt lat="42.69111" lon="-0.03416">
        <ele>2811</ele>
        <time>2015-05-09T11:37:50Z</time>
      </trkpt>
      <trkpt lat="42.69113" lon="-0.0342">
        <ele>2811</ele>
        <time>2015-05-09T11:38:05Z</time>
      </trkpt>
      <trkpt lat="42.69115" lon="-0.0342">
        <ele>2810</ele>
        <time>2015-05-09T11:38:23Z</time>
      </trkpt>
      <trkpt lat="42.69114" lon="-0.03413">
        <ele>2807</ele>
        <time>2015-05-09T11:38:35Z</time>
      </trkpt>
      <trkpt lat="42.69113" lon="-0.0341">
        <ele>2806</ele>
        <time>2015-05-09T11:38:47Z</time>
      </trkpt>
      <trkpt lat="42.69112" lon="-0.03405">
        <ele>2805</ele>
        <time>2015-05-09T11:39:03Z</time>
      </trkpt>
      <trkpt lat="42.69115" lon="-0.03404">
        <ele>2804</ele>
        <time>2015-05-09T11:39:18Z</time>
      </trkpt>
      <trkpt lat="42.69117" lon="-0.03401">
        <ele>2802</ele>
        <time>2015-05-09T11:39:31Z</time>
      </trkpt>
      <trkpt lat="42.69119" lon="-0.03401">
        <ele>2801</ele>
        <time>2015-05-09T11:39:47Z</time>
      </trkpt>
      <trkpt lat="42.6912" lon="-0.03402">
        <ele>2799</ele>
        <time>2015-05-09T11:40:03Z</time>
      </trkpt>
      <trkpt lat="42.69122" lon="-0.03405">
        <ele>2800</ele>
        <time>2015-05-09T11:40:17Z</time>
      </trkpt>
      <trkpt lat="42.69124" lon="-0.03411">
        <ele>2799</ele>
        <time>2015-05-09T11:40:32Z</time>
      </trkpt>
      <trkpt lat="42.69126" lon="-0.03415">
        <ele>2798</ele>
        <time>2015-05-09T11:40:47Z</time>
      </trkpt>
      <trkpt lat="42.69127" lon="-0.03414">
        <ele>2797</ele>
        <time>2015-05-09T11:41:10Z</time>
      </trkpt>
      <trkpt lat="42.69126" lon="-0.03416">
        <ele>2798</ele>
        <time>2015-05-09T11:41:30Z</time>
      </trkpt>
      <trkpt lat="42.69125" lon="-0.03418">
        <ele>2798</ele>
        <time>2015-05-09T11:41:49Z</time>
      </trkpt>
      <trkpt lat="42.69125" lon="-0.03423">
        <ele>2797</ele>
        <time>2015-05-09T11:42:10Z</time>
      </trkpt>
      <trkpt lat="42.69123" lon="-0.03417">
        <ele>2797</ele>
        <time>2015-05-09T11:42:26Z</time>
      </trkpt>
      <trkpt lat="42.69124" lon="-0.03416">
        <ele>2797</ele>
        <time>2015-05-09T11:42:50Z</time>
      </trkpt>
      <trkpt lat="42.69127" lon="-0.03416">
        <ele>2797</ele>
        <time>2015-05-09T11:43:05Z</time>
      </trkpt>
      <trkpt lat="42.69127" lon="-0.03415">
        <ele>2797</ele>
        <time>2015-05-09T11:43:22Z</time>
      </trkpt>
      <trkpt lat="42.69127" lon="-0.03416">
        <ele>2797</ele>
        <time>2015-05-09T11:43:40Z</time>
      </trkpt>
      <trkpt lat="42.69129" lon="-0.03415">
        <ele>2797</ele>
        <time>2015-05-09T11:43:55Z</time>
      </trkpt>
      <trkpt lat="42.69127" lon="-0.03415">
        <ele>2796</ele>
        <time>2015-05-09T11:44:15Z</time>
      </trkpt>
      <trkpt lat="42.69125" lon="-0.03415">
        <ele>2797</ele>
        <time>2015-05-09T11:44:38Z</time>
      </trkpt>
      <trkpt lat="42.69125" lon="-0.03412">
        <ele>2796</ele>
        <time>2015-05-09T11:45:06Z</time>
      </trkpt>
      <trkpt lat="42.69125" lon="-0.03413">
        <ele>2796</ele>
        <time>2015-05-09T11:45:32Z</time>
      </trkpt>
      <trkpt lat="42.69127" lon="-0.03413">
        <ele>2795</ele>
        <time>2015-05-09T11:45:50Z</time>
      </trkpt>
      <trkpt lat="42.69126" lon="-0.03414">
        <ele>2797</ele>
        <time>2015-05-09T11:45:53Z</time>
      </trkpt>
      <trkpt lat="42.69131" lon="-0.03421">
        <ele>2793</ele>
        <time>2015-05-09T11:45:58Z</time>
      </trkpt>
      <trkpt lat="42.69134" lon="-0.03425">
        <ele>2792</ele>
        <time>2015-05-09T11:46:00Z</time>
      </trkpt>
      <trkpt lat="42.69138" lon="-0.03419">
        <ele>2788</ele>
        <time>2015-05-09T11:46:04Z</time>
      </trkpt>
      <trkpt lat="42.69138" lon="-0.03414">
        <ele>2787</ele>
        <time>2015-05-09T11:46:05Z</time>
      </trkpt>
      <trkpt lat="42.69137" lon="-0.03403">
        <ele>2786</ele>
        <time>2015-05-09T11:46:07Z</time>
      </trkpt>
      <trkpt lat="42.69133" lon="-0.03378">
        <ele>2783</ele>
        <time>2015-05-09T11:46:12Z</time>
      </trkpt>
      <trkpt lat="42.69141" lon="-0.03378">
        <ele>2779</ele>
        <time>2015-05-09T11:46:15Z</time>
      </trkpt>
      <trkpt lat="42.69144" lon="-0.03378">
        <ele>2776</ele>
        <time>2015-05-09T11:46:16Z</time>
      </trkpt>
      <trkpt lat="42.69145" lon="-0.03367">
        <ele>2772</ele>
        <time>2015-05-09T11:46:18Z</time>
      </trkpt>
      <trkpt lat="42.69147" lon="-0.03354">
        <ele>2771</ele>
        <time>2015-05-09T11:46:20Z</time>
      </trkpt>
      <trkpt lat="42.6915" lon="-0.03351">
        <ele>2768</ele>
        <time>2015-05-09T11:46:21Z</time>
      </trkpt>
      <trkpt lat="42.69153" lon="-0.03355">
        <ele>2765</ele>
        <time>2015-05-09T11:46:22Z</time>
      </trkpt>
      <trkpt lat="42.69158" lon="-0.03366">
        <ele>2761</ele>
        <time>2015-05-09T11:46:24Z</time>
      </trkpt>
      <trkpt lat="42.69168" lon="-0.03368">
        <ele>2757</ele>
        <time>2015-05-09T11:46:27Z</time>
      </trkpt>
      <trkpt lat="42.69169" lon="-0.03363">
        <ele>2754</ele>
        <time>2015-05-09T11:46:28Z</time>
      </trkpt>
      <trkpt lat="42.69167" lon="-0.03317">
        <ele>2749</ele>
        <time>2015-05-09T11:46:37Z</time>
      </trkpt>
      <trkpt lat="42.69168" lon="-0.03287">
        <ele>2746</ele>
        <time>2015-05-09T11:46:42Z</time>
      </trkpt>
      <trkpt lat="42.69169" lon="-0.03283">
        <ele>2746</ele>
        <time>2015-05-09T11:46:43Z</time>
      </trkpt>
      <trkpt lat="42.69175" lon="-0.03253">
        <ele>2741</ele>
        <time>2015-05-09T11:46:50Z</time>
      </trkpt>
      <trkpt lat="42.69192" lon="-0.03252">
        <ele>2737</ele>
        <time>2015-05-09T11:46:53Z</time>
      </trkpt>
      <trkpt lat="42.69202" lon="-0.03253">
        <ele>2736</ele>
        <time>2015-05-09T11:46:54Z</time>
      </trkpt>
      <trkpt lat="42.6923" lon="-0.03252">
        <ele>2730</ele>
        <time>2015-05-09T11:46:57Z</time>
      </trkpt>
      <trkpt lat="42.69237" lon="-0.03252">
        <ele>2729</ele>
        <time>2015-05-09T11:46:58Z</time>
      </trkpt>
      <trkpt lat="42.69259" lon="-0.03254">
        <ele>2727</ele>
        <time>2015-05-09T11:47:02Z</time>
      </trkpt>
      <trkpt lat="42.69268" lon="-0.03253">
        <ele>2726</ele>
        <time>2015-05-09T11:47:05Z</time>
      </trkpt>
      <trkpt lat="42.69276" lon="-0.03258">
        <ele>2727</ele>
        <time>2015-05-09T11:47:16Z</time>
      </trkpt>
      <trkpt lat="42.69284" lon="-0.03264">
        <ele>2726</ele>
        <time>2015-05-09T11:47:28Z</time>
      </trkpt>
      <trkpt lat="42.69296" lon="-0.0327">
        <ele>2727</ele>
        <time>2015-05-09T11:47:42Z</time>
      </trkpt>
      <trkpt lat="42.69306" lon="-0.03277">
        <ele>2726</ele>
        <time>2015-05-09T11:47:55Z</time>
      </trkpt>
      <trkpt lat="42.69308" lon="-0.03279">
        <ele>2727</ele>
        <time>2015-05-09T11:47:59Z</time>
      </trkpt>
      <trkpt lat="42.69311" lon="-0.03284">
        <ele>2726</ele>
        <time>2015-05-09T11:48:12Z</time>
      </trkpt>
      <trkpt lat="42.69311" lon="-0.03284">
        <ele>2726</ele>
        <time>2015-05-09T11:48:35Z</time>
      </trkpt>
      <trkpt lat="42.69311" lon="-0.03284">
        <ele>2725</ele>
        <time>2015-05-09T11:48:58Z</time>
      </trkpt>
      <trkpt lat="42.69311" lon="-0.03284">
        <ele>2725</ele>
        <time>2015-05-09T11:49:18Z</time>
      </trkpt>
      <trkpt lat="42.69311" lon="-0.03285">
        <ele>2725</ele>
        <time>2015-05-09T11:49:44Z</time>
      </trkpt>
      <trkpt lat="42.6931" lon="-0.03285">
        <ele>2725</ele>
        <time>2015-05-09T11:50:07Z</time>
      </trkpt>
      <trkpt lat="42.69311" lon="-0.03284">
        <ele>2724</ele>
        <time>2015-05-09T11:50:29Z</time>
      </trkpt>
      <trkpt lat="42.69311" lon="-0.03284">
        <ele>2724</ele>
        <time>2015-05-09T11:51:02Z</time>
      </trkpt>
      <trkpt lat="42.69311" lon="-0.03284">
        <ele>2724</ele>
        <time>2015-05-09T11:51:34Z</time>
      </trkpt>
      <trkpt lat="42.69311" lon="-0.03285">
        <ele>2724</ele>
        <time>2015-05-09T11:52:04Z</time>
      </trkpt>
      <trkpt lat="42.6931" lon="-0.03285">
        <ele>2724</ele>
        <time>2015-05-09T11:52:33Z</time>
      </trkpt>
      <trkpt lat="42.69308" lon="-0.03286">
        <ele>2724</ele>
        <time>2015-05-09T11:52:53Z</time>
      </trkpt>
      <trkpt lat="42.6931" lon="-0.03286">
        <ele>2724</ele>
        <time>2015-05-09T11:53:11Z</time>
      </trkpt>
      <trkpt lat="42.6931" lon="-0.03287">
        <ele>2724</ele>
        <time>2015-05-09T11:53:13Z</time>
      </trkpt>
      <trkpt lat="42.69316" lon="-0.03285">
        <ele>2721</ele>
        <time>2015-05-09T11:53:17Z</time>
      </trkpt>
      <trkpt lat="42.69319" lon="-0.03283">
        <ele>2721</ele>
        <time>2015-05-09T11:53:18Z</time>
      </trkpt>
      <trkpt lat="42.69323" lon="-0.03287">
        <ele>2718</ele>
        <time>2015-05-09T11:53:20Z</time>
      </trkpt>
      <trkpt lat="42.69328" lon="-0.03294">
        <ele>2712</ele>
        <time>2015-05-09T11:53:23Z</time>
      </trkpt>
      <trkpt lat="42.69335" lon="-0.03294">
        <ele>2711</ele>
        <time>2015-05-09T11:53:25Z</time>
      </trkpt>
      <trkpt lat="42.69336" lon="-0.03298">
        <ele>2707</ele>
        <time>2015-05-09T11:53:26Z</time>
      </trkpt>
      <trkpt lat="42.69342" lon="-0.03301">
        <ele>2702</ele>
        <time>2015-05-09T11:53:28Z</time>
      </trkpt>
      <trkpt lat="42.69347" lon="-0.03307">
        <ele>2699</ele>
        <time>2015-05-09T11:53:30Z</time>
      </trkpt>
      <trkpt lat="42.69353" lon="-0.03311">
        <ele>2693</ele>
        <time>2015-05-09T11:53:32Z</time>
      </trkpt>
      <trkpt lat="42.69358" lon="-0.03313">
        <ele>2688</ele>
        <time>2015-05-09T11:53:34Z</time>
      </trkpt>
      <trkpt lat="42.69363" lon="-0.03315">
        <ele>2685</ele>
        <time>2015-05-09T11:53:36Z</time>
      </trkpt>
      <trkpt lat="42.6937" lon="-0.03314">
        <ele>2680</ele>
        <time>2015-05-09T11:53:38Z</time>
      </trkpt>
      <trkpt lat="42.69375" lon="-0.03318">
        <ele>2675</ele>
        <time>2015-05-09T11:53:40Z</time>
      </trkpt>
      <trkpt lat="42.6938" lon="-0.03313">
        <ele>2673</ele>
        <time>2015-05-09T11:53:42Z</time>
      </trkpt>
      <trkpt lat="42.69383" lon="-0.03315">
        <ele>2669</ele>
        <time>2015-05-09T11:53:43Z</time>
      </trkpt>
      <trkpt lat="42.6939" lon="-0.03323">
        <ele>2667</ele>
        <time>2015-05-09T11:53:45Z</time>
      </trkpt>
      <trkpt lat="42.69396" lon="-0.03337">
        <ele>2665</ele>
        <time>2015-05-09T11:53:47Z</time>
      </trkpt>
      <trkpt lat="42.69405" lon="-0.03355">
        <ele>2661</ele>
        <time>2015-05-09T11:53:50Z</time>
      </trkpt>
      <trkpt lat="42.69407" lon="-0.0336">
        <ele>2660</ele>
        <time>2015-05-09T11:53:51Z</time>
      </trkpt>
      <trkpt lat="42.69423" lon="-0.03379">
        <ele>2656</ele>
        <time>2015-05-09T11:53:55Z</time>
      </trkpt>
      <trkpt lat="42.69433" lon="-0.03389">
        <ele>2653</ele>
        <time>2015-05-09T11:53:57Z</time>
      </trkpt>
      <trkpt lat="42.6945" lon="-0.03409">
        <ele>2650</ele>
        <time>2015-05-09T11:54:03Z</time>
      </trkpt>
      <trkpt lat="42.69455" lon="-0.03417">
        <ele>2648</ele>
        <time>2015-05-09T11:54:05Z</time>
      </trkpt>
      <trkpt lat="42.69466" lon="-0.03419">
        <ele>2642</ele>
        <time>2015-05-09T11:54:09Z</time>
      </trkpt>
      <trkpt lat="42.69474" lon="-0.03416">
        <ele>2639</ele>
        <time>2015-05-09T11:54:11Z</time>
      </trkpt>
      <trkpt lat="42.69482" lon="-0.03421">
        <ele>2635</ele>
        <time>2015-05-09T11:54:13Z</time>
      </trkpt>
      <trkpt lat="42.69487" lon="-0.03412">
        <ele>2631</ele>
        <time>2015-05-09T11:54:15Z</time>
      </trkpt>
      <trkpt lat="42.69493" lon="-0.034">
        <ele>2629</ele>
        <time>2015-05-09T11:54:17Z</time>
      </trkpt>
      <trkpt lat="42.69499" lon="-0.03398">
        <ele>2625</ele>
        <time>2015-05-09T11:54:18Z</time>
      </trkpt>
      <trkpt lat="42.69507" lon="-0.03392">
        <ele>2621</ele>
        <time>2015-05-09T11:54:20Z</time>
      </trkpt>
      <trkpt lat="42.69524" lon="-0.03387">
        <ele>2616</ele>
        <time>2015-05-09T11:54:23Z</time>
      </trkpt>
      <trkpt lat="42.69542" lon="-0.03381">
        <ele>2613</ele>
        <time>2015-05-09T11:54:26Z</time>
      </trkpt>
      <trkpt lat="42.69549" lon="-0.03378">
        <ele>2613</ele>
        <time>2015-05-09T11:54:27Z</time>
      </trkpt>
      <trkpt lat="42.69563" lon="-0.03373">
        <ele>2610</ele>
        <time>2015-05-09T11:54:29Z</time>
      </trkpt>
      <trkpt lat="42.69571" lon="-0.03369">
        <ele>2608</ele>
        <time>2015-05-09T11:54:30Z</time>
      </trkpt>
      <trkpt lat="42.6959" lon="-0.03356">
        <ele>2605</ele>
        <time>2015-05-09T11:54:34Z</time>
      </trkpt>
      <trkpt lat="42.69592" lon="-0.03351">
        <ele>2603</ele>
        <time>2015-05-09T11:54:38Z</time>
      </trkpt>
      <trkpt lat="42.69591" lon="-0.03357">
        <ele>2603</ele>
        <time>2015-05-09T11:54:57Z</time>
      </trkpt>
      <trkpt lat="42.69591" lon="-0.03358">
        <ele>2602</ele>
        <time>2015-05-09T11:55:16Z</time>
      </trkpt>
      <trkpt lat="42.69589" lon="-0.03356">
        <ele>2603</ele>
        <time>2015-05-09T11:55:35Z</time>
      </trkpt>
      <trkpt lat="42.69588" lon="-0.03357">
        <ele>2602</ele>
        <time>2015-05-09T11:56:02Z</time>
      </trkpt>
      <trkpt lat="42.69587" lon="-0.03354">
        <ele>2602</ele>
        <time>2015-05-09T11:56:36Z</time>
      </trkpt>
      <trkpt lat="42.69588" lon="-0.03355">
        <ele>2602</ele>
        <time>2015-05-09T11:56:58Z</time>
      </trkpt>
      <trkpt lat="42.69589" lon="-0.03353">
        <ele>2602</ele>
        <time>2015-05-09T11:57:23Z</time>
      </trkpt>
      <trkpt lat="42.6959" lon="-0.0335">
        <ele>2602</ele>
        <time>2015-05-09T11:57:50Z</time>
      </trkpt>
      <trkpt lat="42.69589" lon="-0.03351">
        <ele>2602</ele>
        <time>2015-05-09T11:58:19Z</time>
      </trkpt>
      <trkpt lat="42.69588" lon="-0.0335">
        <ele>2602</ele>
        <time>2015-05-09T11:58:45Z</time>
      </trkpt>
      <trkpt lat="42.69589" lon="-0.03352">
        <ele>2602</ele>
        <time>2015-05-09T11:59:07Z</time>
      </trkpt>
      <trkpt lat="42.69588" lon="-0.03349">
        <ele>2602</ele>
        <time>2015-05-09T11:59:30Z</time>
      </trkpt>
      <trkpt lat="42.69587" lon="-0.0335">
        <ele>2603</ele>
        <time>2015-05-09T11:59:55Z</time>
      </trkpt>
      <trkpt lat="42.69587" lon="-0.0335">
        <ele>2603</ele>
        <time>2015-05-09T12:00:22Z</time>
      </trkpt>
      <trkpt lat="42.69587" lon="-0.0335">
        <ele>2603</ele>
        <time>2015-05-09T12:00:48Z</time>
      </trkpt>
      <trkpt lat="42.69588" lon="-0.03348">
        <ele>2603</ele>
        <time>2015-05-09T12:01:16Z</time>
      </trkpt>
      <trkpt lat="42.69587" lon="-0.03349">
        <ele>2604</ele>
        <time>2015-05-09T12:01:35Z</time>
      </trkpt>
      <trkpt lat="42.69586" lon="-0.03349">
        <ele>2603</ele>
        <time>2015-05-09T12:02:01Z</time>
      </trkpt>
      <trkpt lat="42.69585" lon="-0.0335">
        <ele>2603</ele>
        <time>2015-05-09T12:02:30Z</time>
      </trkpt>
      <trkpt lat="42.69586" lon="-0.0335">
        <ele>2603</ele>
        <time>2015-05-09T12:02:57Z</time>
      </trkpt>
      <trkpt lat="42.6959" lon="-0.03351">
        <ele>2602</ele>
        <time>2015-05-09T12:03:09Z</time>
      </trkpt>
      <trkpt lat="42.69593" lon="-0.03353">
        <ele>2602</ele>
        <time>2015-05-09T12:03:14Z</time>
      </trkpt>
      <trkpt lat="42.69606" lon="-0.03356">
        <ele>2600</ele>
        <time>2015-05-09T12:03:21Z</time>
      </trkpt>
      <trkpt lat="42.69608" lon="-0.03356">
        <ele>2599</ele>
        <time>2015-05-09T12:03:23Z</time>
      </trkpt>
      <trkpt lat="42.69611" lon="-0.03358">
        <ele>2598</ele>
        <time>2015-05-09T12:03:33Z</time>
      </trkpt>
      <trkpt lat="42.69614" lon="-0.03362">
        <ele>2599</ele>
        <time>2015-05-09T12:03:46Z</time>
      </trkpt>
      <trkpt lat="42.69618" lon="-0.03366">
        <ele>2599</ele>
        <time>2015-05-09T12:03:59Z</time>
      </trkpt>
      <trkpt lat="42.69621" lon="-0.03368">
        <ele>2599</ele>
        <time>2015-05-09T12:04:16Z</time>
      </trkpt>
      <trkpt lat="42.69626" lon="-0.03375">
        <ele>2599</ele>
        <time>2015-05-09T12:04:26Z</time>
      </trkpt>
      <trkpt lat="42.6963" lon="-0.03379">
        <ele>2600</ele>
        <time>2015-05-09T12:04:38Z</time>
      </trkpt>
      <trkpt lat="42.69634" lon="-0.03384">
        <ele>2600</ele>
        <time>2015-05-09T12:04:51Z</time>
      </trkpt>
      <trkpt lat="42.69637" lon="-0.03388">
        <ele>2600</ele>
        <time>2015-05-09T12:04:58Z</time>
      </trkpt>
      <trkpt lat="42.69642" lon="-0.03394">
        <ele>2600</ele>
        <time>2015-05-09T12:05:09Z</time>
      </trkpt>
      <trkpt lat="42.69647" lon="-0.03399">
        <ele>2601</ele>
        <time>2015-05-09T12:05:20Z</time>
      </trkpt>
      <trkpt lat="42.69651" lon="-0.03403">
        <ele>2601</ele>
        <time>2015-05-09T12:05:27Z</time>
      </trkpt>
      <trkpt lat="42.69657" lon="-0.03411">
        <ele>2602</ele>
        <time>2015-05-09T12:05:39Z</time>
      </trkpt>
      <trkpt lat="42.69664" lon="-0.0342">
        <ele>2602</ele>
        <time>2015-05-09T12:05:49Z</time>
      </trkpt>
      <trkpt lat="42.69677" lon="-0.03439">
        <ele>2603</ele>
        <time>2015-05-09T12:06:03Z</time>
      </trkpt>
      <trkpt lat="42.69695" lon="-0.03463">
        <ele>2601</ele>
        <time>2015-05-09T12:06:15Z</time>
      </trkpt>
      <trkpt lat="42.69718" lon="-0.03481">
        <ele>2600</ele>
        <time>2015-05-09T12:06:27Z</time>
      </trkpt>
      <trkpt lat="42.69719" lon="-0.03483">
        <ele>2600</ele>
        <time>2015-05-09T12:06:40Z</time>
      </trkpt>
      <trkpt lat="42.6972" lon="-0.03482">
        <ele>2600</ele>
        <time>2015-05-09T12:06:56Z</time>
      </trkpt>
      <trkpt lat="42.69721" lon="-0.03483">
        <ele>2600</ele>
        <time>2015-05-09T12:07:21Z</time>
      </trkpt>
      <trkpt lat="42.69719" lon="-0.03482">
        <ele>2600</ele>
        <time>2015-05-09T12:07:57Z</time>
      </trkpt>
      <trkpt lat="42.69719" lon="-0.03488">
        <ele>2599</ele>
        <time>2015-05-09T12:08:07Z</time>
      </trkpt>
      <trkpt lat="42.69713" lon="-0.03498">
        <ele>2595</ele>
        <time>2015-05-09T12:08:10Z</time>
      </trkpt>
      <trkpt lat="42.69701" lon="-0.03513">
        <ele>2591</ele>
        <time>2015-05-09T12:08:13Z</time>
      </trkpt>
      <trkpt lat="42.69701" lon="-0.03524">
        <ele>2588</ele>
        <time>2015-05-09T12:08:16Z</time>
      </trkpt>
      <trkpt lat="42.69701" lon="-0.0352">
        <ele>2586</ele>
        <time>2015-05-09T12:08:26Z</time>
      </trkpt>
      <trkpt lat="42.697" lon="-0.03521">
        <ele>2585</ele>
        <time>2015-05-09T12:08:54Z</time>
      </trkpt>
      <trkpt lat="42.697" lon="-0.03521">
        <ele>2586</ele>
        <time>2015-05-09T12:08:55Z</time>
      </trkpt>
      <trkpt lat="42.6971" lon="-0.03535">
        <ele>2582</ele>
        <time>2015-05-09T12:09:00Z</time>
      </trkpt>
      <trkpt lat="42.69716" lon="-0.03539">
        <ele>2579</ele>
        <time>2015-05-09T12:09:05Z</time>
      </trkpt>
      <trkpt lat="42.69712" lon="-0.03539">
        <ele>2579</ele>
        <time>2015-05-09T12:09:23Z</time>
      </trkpt>
      <trkpt lat="42.69709" lon="-0.03538">
        <ele>2579</ele>
        <time>2015-05-09T12:09:42Z</time>
      </trkpt>
      <trkpt lat="42.69735" lon="-0.03562">
        <ele>2575</ele>
        <time>2015-05-09T12:09:50Z</time>
      </trkpt>
      <trkpt lat="42.69742" lon="-0.03579">
        <ele>2570</ele>
        <time>2015-05-09T12:09:52Z</time>
      </trkpt>
      <trkpt lat="42.69756" lon="-0.036">
        <ele>2564</ele>
        <time>2015-05-09T12:09:55Z</time>
      </trkpt>
      <trkpt lat="42.69764" lon="-0.03604">
        <ele>2559</ele>
        <time>2015-05-09T12:09:58Z</time>
      </trkpt>
      <trkpt lat="42.69765" lon="-0.03604">
        <ele>2559</ele>
        <time>2015-05-09T12:10:03Z</time>
      </trkpt>
      <trkpt lat="42.69783" lon="-0.03609">
        <ele>2556</ele>
        <time>2015-05-09T12:10:08Z</time>
      </trkpt>
      <trkpt lat="42.69799" lon="-0.03613">
        <ele>2551</ele>
        <time>2015-05-09T12:10:11Z</time>
      </trkpt>
      <trkpt lat="42.69812" lon="-0.03622">
        <ele>2547</ele>
        <time>2015-05-09T12:10:14Z</time>
      </trkpt>
      <trkpt lat="42.69825" lon="-0.03623">
        <ele>2542</ele>
        <time>2015-05-09T12:10:17Z</time>
      </trkpt>
      <trkpt lat="42.69829" lon="-0.03628">
        <ele>2540</ele>
        <time>2015-05-09T12:10:20Z</time>
      </trkpt>
      <trkpt lat="42.69827" lon="-0.0363">
        <ele>2540</ele>
        <time>2015-05-09T12:10:37Z</time>
      </trkpt>
      <trkpt lat="42.6984" lon="-0.03631">
        <ele>2537</ele>
        <time>2015-05-09T12:10:42Z</time>
      </trkpt>
      <trkpt lat="42.69855" lon="-0.0365">
        <ele>2528</ele>
        <time>2015-05-09T12:10:46Z</time>
      </trkpt>
      <trkpt lat="42.6986" lon="-0.03661">
        <ele>2525</ele>
        <time>2015-05-09T12:10:48Z</time>
      </trkpt>
      <trkpt lat="42.6987" lon="-0.03648">
        <ele>2520</ele>
        <time>2015-05-09T12:10:52Z</time>
      </trkpt>
      <trkpt lat="42.69878" lon="-0.03649">
        <ele>2516</ele>
        <time>2015-05-09T12:10:54Z</time>
      </trkpt>
      <trkpt lat="42.69886" lon="-0.03648">
        <ele>2512</ele>
        <time>2015-05-09T12:10:56Z</time>
      </trkpt>
      <trkpt lat="42.69889" lon="-0.03652">
        <ele>2509</ele>
        <time>2015-05-09T12:10:57Z</time>
      </trkpt>
      <trkpt lat="42.69896" lon="-0.03658">
        <ele>2503</ele>
        <time>2015-05-09T12:10:59Z</time>
      </trkpt>
      <trkpt lat="42.69903" lon="-0.03651">
        <ele>2498</ele>
        <time>2015-05-09T12:11:01Z</time>
      </trkpt>
      <trkpt lat="42.69917" lon="-0.03648">
        <ele>2494</ele>
        <time>2015-05-09T12:11:04Z</time>
      </trkpt>
      <trkpt lat="42.69922" lon="-0.03649">
        <ele>2491</ele>
        <time>2015-05-09T12:11:05Z</time>
      </trkpt>
      <trkpt lat="42.69926" lon="-0.03659">
        <ele>2486</ele>
        <time>2015-05-09T12:11:08Z</time>
      </trkpt>
      <trkpt lat="42.69925" lon="-0.03668">
        <ele>2483</ele>
        <time>2015-05-09T12:11:10Z</time>
      </trkpt>
      <trkpt lat="42.69929" lon="-0.03678">
        <ele>2479</ele>
        <time>2015-05-09T12:11:13Z</time>
      </trkpt>
      <trkpt lat="42.69936" lon="-0.03679">
        <ele>2476</ele>
        <time>2015-05-09T12:11:15Z</time>
      </trkpt>
      <trkpt lat="42.69938" lon="-0.03683">
        <ele>2473</ele>
        <time>2015-05-09T12:11:16Z</time>
      </trkpt>
      <trkpt lat="42.6994" lon="-0.03688">
        <ele>2470</ele>
        <time>2015-05-09T12:11:17Z</time>
      </trkpt>
      <trkpt lat="42.69947" lon="-0.03691">
        <ele>2465</ele>
        <time>2015-05-09T12:11:19Z</time>
      </trkpt>
      <trkpt lat="42.69951" lon="-0.03697">
        <ele>2461</ele>
        <time>2015-05-09T12:11:21Z</time>
      </trkpt>
      <trkpt lat="42.69951" lon="-0.03699">
        <ele>2461</ele>
        <time>2015-05-09T12:11:22Z</time>
      </trkpt>
      <trkpt lat="42.69951" lon="-0.037">
        <ele>2461</ele>
        <time>2015-05-09T12:11:34Z</time>
      </trkpt>
      <trkpt lat="42.69951" lon="-0.037">
        <ele>2461</ele>
        <time>2015-05-09T12:11:45Z</time>
      </trkpt>
      <trkpt lat="42.69957" lon="-0.03696">
        <ele>2457</ele>
        <time>2015-05-09T12:11:48Z</time>
      </trkpt>
      <trkpt lat="42.69968" lon="-0.03693">
        <ele>2451</ele>
        <time>2015-05-09T12:11:52Z</time>
      </trkpt>
      <trkpt lat="42.69976" lon="-0.03693">
        <ele>2447</ele>
        <time>2015-05-09T12:11:54Z</time>
      </trkpt>
      <trkpt lat="42.69985" lon="-0.03696">
        <ele>2442</ele>
        <time>2015-05-09T12:11:56Z</time>
      </trkpt>
      <trkpt lat="42.69989" lon="-0.03701">
        <ele>2438</ele>
        <time>2015-05-09T12:11:57Z</time>
      </trkpt>
      <trkpt lat="42.69993" lon="-0.03707">
        <ele>2438</ele>
        <time>2015-05-09T12:11:58Z</time>
      </trkpt>
      <trkpt lat="42.70008" lon="-0.03713">
        <ele>2429</ele>
        <time>2015-05-09T12:12:01Z</time>
      </trkpt>
      <trkpt lat="42.70018" lon="-0.03716">
        <ele>2424</ele>
        <time>2015-05-09T12:12:03Z</time>
      </trkpt>
      <trkpt lat="42.7003" lon="-0.03718">
        <ele>2419</ele>
        <time>2015-05-09T12:12:05Z</time>
      </trkpt>
      <trkpt lat="42.70036" lon="-0.03723">
        <ele>2416</ele>
        <time>2015-05-09T12:12:06Z</time>
      </trkpt>
      <trkpt lat="42.70051" lon="-0.03723">
        <ele>2408</ele>
        <time>2015-05-09T12:12:09Z</time>
      </trkpt>
      <trkpt lat="42.70062" lon="-0.03723">
        <ele>2402</ele>
        <time>2015-05-09T12:12:11Z</time>
      </trkpt>
      <trkpt lat="42.70069" lon="-0.03724">
        <ele>2397</ele>
        <time>2015-05-09T12:12:13Z</time>
      </trkpt>
      <trkpt lat="42.7007" lon="-0.03727">
        <ele>2396</ele>
        <time>2015-05-09T12:12:26Z</time>
      </trkpt>
      <trkpt lat="42.70068" lon="-0.03721">
        <ele>2396</ele>
        <time>2015-05-09T12:12:48Z</time>
      </trkpt>
      <trkpt lat="42.70069" lon="-0.03713">
        <ele>2396</ele>
        <time>2015-05-09T12:13:10Z</time>
      </trkpt>
      <trkpt lat="42.70075" lon="-0.03695">
        <ele>2393</ele>
        <time>2015-05-09T12:13:13Z</time>
      </trkpt>
      <trkpt lat="42.70077" lon="-0.03688">
        <ele>2392</ele>
        <time>2015-05-09T12:13:14Z</time>
      </trkpt>
      <trkpt lat="42.70085" lon="-0.03674">
        <ele>2390</ele>
        <time>2015-05-09T12:13:17Z</time>
      </trkpt>
      <trkpt lat="42.701" lon="-0.03664">
        <ele>2387</ele>
        <time>2015-05-09T12:13:22Z</time>
      </trkpt>
      <trkpt lat="42.70108" lon="-0.03665">
        <ele>2381</ele>
        <time>2015-05-09T12:13:24Z</time>
      </trkpt>
      <trkpt lat="42.70118" lon="-0.03669">
        <ele>2376</ele>
        <time>2015-05-09T12:13:26Z</time>
      </trkpt>
      <trkpt lat="42.70123" lon="-0.0367">
        <ele>2372</ele>
        <time>2015-05-09T12:13:27Z</time>
      </trkpt>
      <trkpt lat="42.70128" lon="-0.03667">
        <ele>2368</ele>
        <time>2015-05-09T12:13:28Z</time>
      </trkpt>
      <trkpt lat="42.70138" lon="-0.03667">
        <ele>2364</ele>
        <time>2015-05-09T12:13:30Z</time>
      </trkpt>
      <trkpt lat="42.70143" lon="-0.03668">
        <ele>2359</ele>
        <time>2015-05-09T12:13:31Z</time>
      </trkpt>
      <trkpt lat="42.70149" lon="-0.03666">
        <ele>2355</ele>
        <time>2015-05-09T12:13:32Z</time>
      </trkpt>
      <trkpt lat="42.7016" lon="-0.03664">
        <ele>2349</ele>
        <time>2015-05-09T12:13:34Z</time>
      </trkpt>
      <trkpt lat="42.70165" lon="-0.03664">
        <ele>2345</ele>
        <time>2015-05-09T12:13:35Z</time>
      </trkpt>
      <trkpt lat="42.7017" lon="-0.03661">
        <ele>2342</ele>
        <time>2015-05-09T12:13:36Z</time>
      </trkpt>
      <trkpt lat="42.70174" lon="-0.03656">
        <ele>2339</ele>
        <time>2015-05-09T12:13:37Z</time>
      </trkpt>
      <trkpt lat="42.70182" lon="-0.03654">
        <ele>2334</ele>
        <time>2015-05-09T12:13:39Z</time>
      </trkpt>
      <trkpt lat="42.70191" lon="-0.03655">
        <ele>2328</ele>
        <time>2015-05-09T12:13:41Z</time>
      </trkpt>
      <trkpt lat="42.702" lon="-0.03653">
        <ele>2323</ele>
        <time>2015-05-09T12:13:43Z</time>
      </trkpt>
      <trkpt lat="42.70218" lon="-0.03656">
        <ele>2314</ele>
        <time>2015-05-09T12:13:47Z</time>
      </trkpt>
      <trkpt lat="42.70223" lon="-0.03665">
        <ele>2309</ele>
        <time>2015-05-09T12:13:49Z</time>
      </trkpt>
      <trkpt lat="42.7023" lon="-0.03677">
        <ele>2307</ele>
        <time>2015-05-09T12:13:51Z</time>
      </trkpt>
      <trkpt lat="42.70241" lon="-0.03694">
        <ele>2303</ele>
        <time>2015-05-09T12:13:54Z</time>
      </trkpt>
      <trkpt lat="42.7025" lon="-0.03704">
        <ele>2299</ele>
        <time>2015-05-09T12:13:57Z</time>
      </trkpt>
      <trkpt lat="42.70249" lon="-0.03706">
        <ele>2298</ele>
        <time>2015-05-09T12:14:06Z</time>
      </trkpt>
      <trkpt lat="42.70249" lon="-0.03703">
        <ele>2298</ele>
        <time>2015-05-09T12:14:21Z</time>
      </trkpt>
      <trkpt lat="42.70259" lon="-0.03703">
        <ele>2294</ele>
        <time>2015-05-09T12:14:25Z</time>
      </trkpt>
      <trkpt lat="42.7027" lon="-0.03704">
        <ele>2289</ele>
        <time>2015-05-09T12:14:28Z</time>
      </trkpt>
      <trkpt lat="42.70277" lon="-0.03699">
        <ele>2286</ele>
        <time>2015-05-09T12:14:30Z</time>
      </trkpt>
      <trkpt lat="42.70286" lon="-0.037">
        <ele>2281</ele>
        <time>2015-05-09T12:14:32Z</time>
      </trkpt>
      <trkpt lat="42.70291" lon="-0.03693">
        <ele>2277</ele>
        <time>2015-05-09T12:14:34Z</time>
      </trkpt>
      <trkpt lat="42.70292" lon="-0.03682">
        <ele>2275</ele>
        <time>2015-05-09T12:14:36Z</time>
      </trkpt>
      <trkpt lat="42.70298" lon="-0.03649">
        <ele>2269</ele>
        <time>2015-05-09T12:14:42Z</time>
      </trkpt>
      <trkpt lat="42.7031" lon="-0.03634">
        <ele>2266</ele>
        <time>2015-05-09T12:14:45Z</time>
      </trkpt>
      <trkpt lat="42.70329" lon="-0.03604">
        <ele>2261</ele>
        <time>2015-05-09T12:14:52Z</time>
      </trkpt>
      <trkpt lat="42.70331" lon="-0.036">
        <ele>2259</ele>
        <time>2015-05-09T12:14:53Z</time>
      </trkpt>
      <trkpt lat="42.70347" lon="-0.03601">
        <ele>2254</ele>
        <time>2015-05-09T12:14:57Z</time>
      </trkpt>
      <trkpt lat="42.70351" lon="-0.036">
        <ele>2250</ele>
        <time>2015-05-09T12:14:59Z</time>
      </trkpt>
      <trkpt lat="42.7035" lon="-0.03594">
        <ele>2249</ele>
        <time>2015-05-09T12:15:10Z</time>
      </trkpt>
      <trkpt lat="42.70348" lon="-0.03587">
        <ele>2251</ele>
        <time>2015-05-09T12:15:21Z</time>
      </trkpt>
      <trkpt lat="42.70346" lon="-0.03583">
        <ele>2252</ele>
        <time>2015-05-09T12:15:30Z</time>
      </trkpt>
      <trkpt lat="42.70347" lon="-0.0358">
        <ele>2251</ele>
        <time>2015-05-09T12:15:40Z</time>
      </trkpt>
      <trkpt lat="42.70347" lon="-0.03579">
        <ele>2251</ele>
        <time>2015-05-09T12:15:53Z</time>
      </trkpt>
      <trkpt lat="42.70347" lon="-0.03576">
        <ele>2251</ele>
        <time>2015-05-09T12:15:56Z</time>
      </trkpt>
      <trkpt lat="42.70358" lon="-0.03569">
        <ele>2246</ele>
        <time>2015-05-09T12:16:02Z</time>
      </trkpt>
      <trkpt lat="42.70365" lon="-0.03567">
        <ele>2241</ele>
        <time>2015-05-09T12:16:04Z</time>
      </trkpt>
      <trkpt lat="42.70371" lon="-0.0357">
        <ele>2237</ele>
        <time>2015-05-09T12:16:06Z</time>
      </trkpt>
      <trkpt lat="42.70376" lon="-0.03575">
        <ele>2233</ele>
        <time>2015-05-09T12:16:08Z</time>
      </trkpt>
      <trkpt lat="42.70385" lon="-0.0358">
        <ele>2227</ele>
        <time>2015-05-09T12:16:11Z</time>
      </trkpt>
      <trkpt lat="42.70387" lon="-0.03585">
        <ele>2227</ele>
        <time>2015-05-09T12:16:12Z</time>
      </trkpt>
      <trkpt lat="42.70389" lon="-0.03595">
        <ele>2223</ele>
        <time>2015-05-09T12:16:15Z</time>
      </trkpt>
      <trkpt lat="42.70391" lon="-0.03596">
        <ele>2223</ele>
        <time>2015-05-09T12:16:16Z</time>
      </trkpt>
      <trkpt lat="42.70395" lon="-0.03604">
        <ele>2218</ele>
        <time>2015-05-09T12:16:18Z</time>
      </trkpt>
      <trkpt lat="42.70393" lon="-0.03618">
        <ele>2215</ele>
        <time>2015-05-09T12:16:20Z</time>
      </trkpt>
      <trkpt lat="42.70394" lon="-0.03641">
        <ele>2213</ele>
        <time>2015-05-09T12:16:24Z</time>
      </trkpt>
      <trkpt lat="42.70392" lon="-0.03641">
        <ele>2213</ele>
        <time>2015-05-09T12:16:34Z</time>
      </trkpt>
      <trkpt lat="42.70391" lon="-0.03639">
        <ele>2213</ele>
        <time>2015-05-09T12:16:51Z</time>
      </trkpt>
      <trkpt lat="42.70399" lon="-0.03638">
        <ele>2208</ele>
        <time>2015-05-09T12:16:55Z</time>
      </trkpt>
      <trkpt lat="42.7041" lon="-0.03644">
        <ele>2204</ele>
        <time>2015-05-09T12:17:00Z</time>
      </trkpt>
      <trkpt lat="42.70421" lon="-0.03642">
        <ele>2200</ele>
        <time>2015-05-09T12:17:03Z</time>
      </trkpt>
      <trkpt lat="42.7043" lon="-0.03646">
        <ele>2196</ele>
        <time>2015-05-09T12:17:05Z</time>
      </trkpt>
      <trkpt lat="42.70438" lon="-0.0365">
        <ele>2193</ele>
        <time>2015-05-09T12:17:07Z</time>
      </trkpt>
      <trkpt lat="42.70445" lon="-0.03642">
        <ele>2189</ele>
        <time>2015-05-09T12:17:09Z</time>
      </trkpt>
      <trkpt lat="42.70459" lon="-0.03639">
        <ele>2184</ele>
        <time>2015-05-09T12:17:12Z</time>
      </trkpt>
      <trkpt lat="42.70469" lon="-0.03629">
        <ele>2180</ele>
        <time>2015-05-09T12:17:15Z</time>
      </trkpt>
      <trkpt lat="42.70477" lon="-0.03631">
        <ele>2177</ele>
        <time>2015-05-09T12:17:17Z</time>
      </trkpt>
      <trkpt lat="42.70481" lon="-0.0363">
        <ele>2174</ele>
        <time>2015-05-09T12:17:18Z</time>
      </trkpt>
      <trkpt lat="42.70497" lon="-0.03622">
        <ele>2167</ele>
        <time>2015-05-09T12:17:22Z</time>
      </trkpt>
      <trkpt lat="42.70502" lon="-0.03634">
        <ele>2164</ele>
        <time>2015-05-09T12:17:25Z</time>
      </trkpt>
      <trkpt lat="42.70503" lon="-0.03634">
        <ele>2162</ele>
        <time>2015-05-09T12:17:31Z</time>
      </trkpt>
      <trkpt lat="42.70502" lon="-0.03636">
        <ele>2162</ele>
        <time>2015-05-09T12:17:48Z</time>
      </trkpt>
      <trkpt lat="42.70516" lon="-0.03631">
        <ele>2159</ele>
        <time>2015-05-09T12:17:53Z</time>
      </trkpt>
      <trkpt lat="42.70524" lon="-0.03626">
        <ele>2156</ele>
        <time>2015-05-09T12:17:55Z</time>
      </trkpt>
      <trkpt lat="42.70534" lon="-0.03627">
        <ele>2152</ele>
        <time>2015-05-09T12:17:57Z</time>
      </trkpt>
      <trkpt lat="42.70543" lon="-0.03636">
        <ele>2148</ele>
        <time>2015-05-09T12:17:59Z</time>
      </trkpt>
      <trkpt lat="42.70554" lon="-0.03639">
        <ele>2144</ele>
        <time>2015-05-09T12:18:02Z</time>
      </trkpt>
      <trkpt lat="42.70568" lon="-0.03636">
        <ele>2139</ele>
        <time>2015-05-09T12:18:05Z</time>
      </trkpt>
      <trkpt lat="42.70577" lon="-0.03641">
        <ele>2136</ele>
        <time>2015-05-09T12:18:07Z</time>
      </trkpt>
      <trkpt lat="42.70583" lon="-0.03633">
        <ele>2132</ele>
        <time>2015-05-09T12:18:09Z</time>
      </trkpt>
      <trkpt lat="42.70598" lon="-0.03635">
        <ele>2128</ele>
        <time>2015-05-09T12:18:12Z</time>
      </trkpt>
      <trkpt lat="42.70602" lon="-0.03639">
        <ele>2128</ele>
        <time>2015-05-09T12:18:13Z</time>
      </trkpt>
      <trkpt lat="42.70611" lon="-0.03651">
        <ele>2125</ele>
        <time>2015-05-09T12:18:16Z</time>
      </trkpt>
      <trkpt lat="42.70624" lon="-0.03657">
        <ele>2120</ele>
        <time>2015-05-09T12:18:20Z</time>
      </trkpt>
      <trkpt lat="42.70631" lon="-0.03668">
        <ele>2118</ele>
        <time>2015-05-09T12:18:24Z</time>
      </trkpt>
      <trkpt lat="42.70636" lon="-0.03659">
        <ele>2116</ele>
        <time>2015-05-09T12:18:28Z</time>
      </trkpt>
      <trkpt lat="42.70636" lon="-0.03657">
        <ele>2115</ele>
        <time>2015-05-09T12:18:29Z</time>
      </trkpt>
      <trkpt lat="42.70636" lon="-0.03625">
        <ele>2114</ele>
        <time>2015-05-09T12:18:41Z</time>
      </trkpt>
      <trkpt lat="42.70636" lon="-0.03615">
        <ele>2112</ele>
        <time>2015-05-09T12:18:44Z</time>
      </trkpt>
      <trkpt lat="42.70634" lon="-0.03606">
        <ele>2111</ele>
        <time>2015-05-09T12:18:46Z</time>
      </trkpt>
      <trkpt lat="42.70634" lon="-0.03593">
        <ele>2109</ele>
        <time>2015-05-09T12:18:48Z</time>
      </trkpt>
      <trkpt lat="42.70639" lon="-0.03572">
        <ele>2107</ele>
        <time>2015-05-09T12:18:51Z</time>
      </trkpt>
      <trkpt lat="42.70646" lon="-0.03559">
        <ele>2105</ele>
        <time>2015-05-09T12:18:54Z</time>
      </trkpt>
      <trkpt lat="42.70662" lon="-0.03541">
        <ele>2102</ele>
        <time>2015-05-09T12:19:00Z</time>
      </trkpt>
      <trkpt lat="42.70676" lon="-0.03531">
        <ele>2098</ele>
        <time>2015-05-09T12:19:04Z</time>
      </trkpt>
      <trkpt lat="42.70689" lon="-0.03524">
        <ele>2095</ele>
        <time>2015-05-09T12:19:08Z</time>
      </trkpt>
      <trkpt lat="42.70696" lon="-0.03527">
        <ele>2092</ele>
        <time>2015-05-09T12:19:10Z</time>
      </trkpt>
      <trkpt lat="42.70702" lon="-0.03531">
        <ele>2088</ele>
        <time>2015-05-09T12:19:12Z</time>
      </trkpt>
      <trkpt lat="42.70712" lon="-0.03535">
        <ele>2084</ele>
        <time>2015-05-09T12:19:15Z</time>
      </trkpt>
      <trkpt lat="42.70715" lon="-0.03546">
        <ele>2079</ele>
        <time>2015-05-09T12:19:17Z</time>
      </trkpt>
      <trkpt lat="42.70713" lon="-0.0355">
        <ele>2078</ele>
        <time>2015-05-09T12:19:18Z</time>
      </trkpt>
      <trkpt lat="42.70709" lon="-0.03558">
        <ele>2076</ele>
        <time>2015-05-09T12:19:20Z</time>
      </trkpt>
      <trkpt lat="42.7071" lon="-0.03561">
        <ele>2073</ele>
        <time>2015-05-09T12:19:23Z</time>
      </trkpt>
      <trkpt lat="42.70714" lon="-0.03561">
        <ele>2072</ele>
        <time>2015-05-09T12:19:24Z</time>
      </trkpt>
      <trkpt lat="42.70719" lon="-0.03564">
        <ele>2069</ele>
        <time>2015-05-09T12:19:27Z</time>
      </trkpt>
      <trkpt lat="42.70727" lon="-0.03572">
        <ele>2066</ele>
        <time>2015-05-09T12:19:32Z</time>
      </trkpt>
      <trkpt lat="42.70732" lon="-0.03577">
        <ele>2062</ele>
        <time>2015-05-09T12:19:34Z</time>
      </trkpt>
      <trkpt lat="42.70739" lon="-0.03582">
        <ele>2059</ele>
        <time>2015-05-09T12:19:36Z</time>
      </trkpt>
      <trkpt lat="42.70746" lon="-0.03598">
        <ele>2053</ele>
        <time>2015-05-09T12:19:41Z</time>
      </trkpt>
      <trkpt lat="42.70746" lon="-0.03619">
        <ele>2048</ele>
        <time>2015-05-09T12:19:44Z</time>
      </trkpt>
      <trkpt lat="42.70751" lon="-0.03633">
        <ele>2046</ele>
        <time>2015-05-09T12:19:46Z</time>
      </trkpt>
      <trkpt lat="42.70764" lon="-0.03644">
        <ele>2041</ele>
        <time>2015-05-09T12:19:51Z</time>
      </trkpt>
      <trkpt lat="42.70762" lon="-0.03637">
        <ele>2041</ele>
        <time>2015-05-09T12:20:02Z</time>
      </trkpt>
      <trkpt lat="42.70765" lon="-0.03636">
        <ele>2040</ele>
        <time>2015-05-09T12:20:10Z</time>
      </trkpt>
      <trkpt lat="42.70768" lon="-0.03631">
        <ele>2038</ele>
        <time>2015-05-09T12:20:14Z</time>
      </trkpt>
      <trkpt lat="42.70769" lon="-0.03628">
        <ele>2038</ele>
        <time>2015-05-09T12:20:30Z</time>
      </trkpt>
      <trkpt lat="42.70777" lon="-0.0363">
        <ele>2035</ele>
        <time>2015-05-09T12:20:34Z</time>
      </trkpt>
      <trkpt lat="42.70781" lon="-0.03632">
        <ele>2034</ele>
        <time>2015-05-09T12:20:37Z</time>
      </trkpt>
      <trkpt lat="42.7078" lon="-0.03632">
        <ele>2032</ele>
        <time>2015-05-09T12:20:55Z</time>
      </trkpt>
      <trkpt lat="42.70781" lon="-0.03634">
        <ele>2032</ele>
        <time>2015-05-09T12:21:13Z</time>
      </trkpt>
      <trkpt lat="42.70782" lon="-0.03636">
        <ele>2033</ele>
        <time>2015-05-09T12:21:28Z</time>
      </trkpt>
      <trkpt lat="42.70783" lon="-0.03636">
        <ele>2032</ele>
        <time>2015-05-09T12:21:38Z</time>
      </trkpt>
      <trkpt lat="42.70784" lon="-0.03639">
        <ele>2031</ele>
        <time>2015-05-09T12:21:51Z</time>
      </trkpt>
      <trkpt lat="42.70786" lon="-0.0364">
        <ele>2030</ele>
        <time>2015-05-09T12:22:09Z</time>
      </trkpt>
      <trkpt lat="42.70783" lon="-0.03638">
        <ele>2031</ele>
        <time>2015-05-09T12:22:24Z</time>
      </trkpt>
      <trkpt lat="42.70783" lon="-0.03636">
        <ele>2032</ele>
        <time>2015-05-09T12:22:42Z</time>
      </trkpt>
      <trkpt lat="42.70783" lon="-0.03636">
        <ele>2032</ele>
        <time>2015-05-09T12:23:06Z</time>
      </trkpt>
      <trkpt lat="42.70782" lon="-0.03637">
        <ele>2030</ele>
        <time>2015-05-09T12:23:27Z</time>
      </trkpt>
      <trkpt lat="42.70781" lon="-0.03637">
        <ele>2029</ele>
        <time>2015-05-09T12:23:53Z</time>
      </trkpt>
      <trkpt lat="42.70783" lon="-0.03637">
        <ele>2030</ele>
        <time>2015-05-09T12:24:24Z</time>
      </trkpt>
      <trkpt lat="42.70784" lon="-0.03636">
        <ele>2030</ele>
        <time>2015-05-09T12:24:54Z</time>
      </trkpt>
      <trkpt lat="42.70783" lon="-0.03634">
        <ele>2029</ele>
        <time>2015-05-09T12:25:16Z</time>
      </trkpt>
      <trkpt lat="42.70781" lon="-0.03634">
        <ele>2029</ele>
        <time>2015-05-09T12:25:42Z</time>
      </trkpt>
      <trkpt lat="42.70784" lon="-0.03637">
        <ele>2029</ele>
        <time>2015-05-09T12:26:08Z</time>
      </trkpt>
      <trkpt lat="42.70783" lon="-0.03635">
        <ele>2028</ele>
        <time>2015-05-09T12:26:38Z</time>
      </trkpt>
      <trkpt lat="42.70781" lon="-0.03636">
        <ele>2028</ele>
        <time>2015-05-09T12:27:15Z</time>
      </trkpt>
      <trkpt lat="42.7078" lon="-0.03636">
        <ele>2028</ele>
        <time>2015-05-09T12:27:45Z</time>
      </trkpt>
      <trkpt lat="42.7078" lon="-0.03639">
        <ele>2028</ele>
        <time>2015-05-09T12:28:14Z</time>
      </trkpt>
      <trkpt lat="42.70783" lon="-0.03638">
        <ele>2028</ele>
        <time>2015-05-09T12:28:29Z</time>
      </trkpt>
      <trkpt lat="42.70782" lon="-0.03638">
        <ele>2029</ele>
        <time>2015-05-09T12:28:51Z</time>
      </trkpt>
      <trkpt lat="42.70777" lon="-0.0364">
        <ele>2030</ele>
        <time>2015-05-09T12:29:07Z</time>
      </trkpt>
      <trkpt lat="42.70771" lon="-0.03648">
        <ele>2033</ele>
        <time>2015-05-09T12:29:21Z</time>
      </trkpt>
      <trkpt lat="42.70769" lon="-0.03656">
        <ele>2034</ele>
        <time>2015-05-09T12:29:35Z</time>
      </trkpt>
      <trkpt lat="42.70769" lon="-0.03672">
        <ele>2035</ele>
        <time>2015-05-09T12:29:51Z</time>
      </trkpt>
      <trkpt lat="42.70769" lon="-0.03685">
        <ele>2037</ele>
        <time>2015-05-09T12:30:06Z</time>
      </trkpt>
      <trkpt lat="42.70771" lon="-0.03696">
        <ele>2038</ele>
        <time>2015-05-09T12:30:21Z</time>
      </trkpt>
      <trkpt lat="42.70771" lon="-0.03703">
        <ele>2041</ele>
        <time>2015-05-09T12:30:36Z</time>
      </trkpt>
      <trkpt lat="42.70771" lon="-0.03704">
        <ele>2040</ele>
        <time>2015-05-09T12:30:37Z</time>
      </trkpt>
      <trkpt lat="42.70766" lon="-0.03715">
        <ele>2042</ele>
        <time>2015-05-09T12:30:51Z</time>
      </trkpt>
      <trkpt lat="42.70764" lon="-0.0373">
        <ele>2043</ele>
        <time>2015-05-09T12:31:04Z</time>
      </trkpt>
      <trkpt lat="42.70761" lon="-0.03741">
        <ele>2044</ele>
        <time>2015-05-09T12:31:16Z</time>
      </trkpt>
      <trkpt lat="42.70757" lon="-0.03753">
        <ele>2045</ele>
        <time>2015-05-09T12:31:29Z</time>
      </trkpt>
      <trkpt lat="42.70757" lon="-0.03767">
        <ele>2047</ele>
        <time>2015-05-09T12:31:43Z</time>
      </trkpt>
      <trkpt lat="42.70761" lon="-0.03781">
        <ele>2047</ele>
        <time>2015-05-09T12:31:59Z</time>
      </trkpt>
      <trkpt lat="42.70764" lon="-0.03786">
        <ele>2047</ele>
        <time>2015-05-09T12:32:05Z</time>
      </trkpt>
      <trkpt lat="42.70768" lon="-0.03794">
        <ele>2048</ele>
        <time>2015-05-09T12:32:20Z</time>
      </trkpt>
      <trkpt lat="42.70767" lon="-0.03802">
        <ele>2047</ele>
        <time>2015-05-09T12:32:31Z</time>
      </trkpt>
      <trkpt lat="42.70768" lon="-0.0381">
        <ele>2047</ele>
        <time>2015-05-09T12:32:46Z</time>
      </trkpt>
      <trkpt lat="42.70765" lon="-0.03813">
        <ele>2047</ele>
        <time>2015-05-09T12:33:08Z</time>
      </trkpt>
      <trkpt lat="42.70763" lon="-0.03815">
        <ele>2048</ele>
        <time>2015-05-09T12:33:21Z</time>
      </trkpt>
      <trkpt lat="42.70761" lon="-0.03821">
        <ele>2049</ele>
        <time>2015-05-09T12:33:34Z</time>
      </trkpt>
      <trkpt lat="42.70762" lon="-0.03832">
        <ele>2049</ele>
        <time>2015-05-09T12:33:47Z</time>
      </trkpt>
      <trkpt lat="42.70761" lon="-0.03836">
        <ele>2047</ele>
        <time>2015-05-09T12:34:08Z</time>
      </trkpt>
      <trkpt lat="42.70763" lon="-0.03837">
        <ele>2045</ele>
        <time>2015-05-09T12:34:13Z</time>
      </trkpt>
      <trkpt lat="42.70766" lon="-0.03842">
        <ele>2043</ele>
        <time>2015-05-09T12:34:25Z</time>
      </trkpt>
      <trkpt lat="42.70771" lon="-0.03847">
        <ele>2040</ele>
        <time>2015-05-09T12:34:41Z</time>
      </trkpt>
      <trkpt lat="42.70774" lon="-0.0385">
        <ele>2036</ele>
        <time>2015-05-09T12:34:50Z</time>
      </trkpt>
      <trkpt lat="42.70779" lon="-0.03853">
        <ele>2033</ele>
        <time>2015-05-09T12:34:55Z</time>
      </trkpt>
      <trkpt lat="42.70782" lon="-0.03853">
        <ele>2031</ele>
        <time>2015-05-09T12:34:59Z</time>
      </trkpt>
      <trkpt lat="42.70786" lon="-0.03854">
        <ele>2029</ele>
        <time>2015-05-09T12:35:04Z</time>
      </trkpt>
      <trkpt lat="42.70789" lon="-0.03855">
        <ele>2027</ele>
        <time>2015-05-09T12:35:09Z</time>
      </trkpt>
      <trkpt lat="42.70792" lon="-0.03856">
        <ele>2023</ele>
        <time>2015-05-09T12:35:17Z</time>
      </trkpt>
      <trkpt lat="42.70796" lon="-0.03858">
        <ele>2021</ele>
        <time>2015-05-09T12:35:25Z</time>
      </trkpt>
      <trkpt lat="42.70803" lon="-0.03862">
        <ele>2019</ele>
        <time>2015-05-09T12:35:38Z</time>
      </trkpt>
      <trkpt lat="42.70808" lon="-0.03862">
        <ele>2016</ele>
        <time>2015-05-09T12:35:49Z</time>
      </trkpt>
      <trkpt lat="42.70813" lon="-0.03873">
        <ele>2014</ele>
        <time>2015-05-09T12:36:03Z</time>
      </trkpt>
      <trkpt lat="42.70815" lon="-0.03877">
        <ele>2013</ele>
        <time>2015-05-09T12:36:15Z</time>
      </trkpt>
      <trkpt lat="42.7082" lon="-0.03884">
        <ele>2011</ele>
        <time>2015-05-09T12:36:28Z</time>
      </trkpt>
      <trkpt lat="42.70829" lon="-0.0389">
        <ele>2007</ele>
        <time>2015-05-09T12:36:42Z</time>
      </trkpt>
      <trkpt lat="42.70832" lon="-0.03889">
        <ele>2005</ele>
        <time>2015-05-09T12:36:49Z</time>
      </trkpt>
      <trkpt lat="42.70837" lon="-0.03886">
        <ele>2003</ele>
        <time>2015-05-09T12:37:00Z</time>
      </trkpt>
      <trkpt lat="42.70843" lon="-0.0389">
        <ele>2000</ele>
        <time>2015-05-09T12:37:13Z</time>
      </trkpt>
      <trkpt lat="42.70848" lon="-0.03894">
        <ele>1996</ele>
        <time>2015-05-09T12:37:23Z</time>
      </trkpt>
      <trkpt lat="42.70851" lon="-0.03898">
        <ele>1995</ele>
        <time>2015-05-09T12:37:38Z</time>
      </trkpt>
      <trkpt lat="42.70854" lon="-0.03904">
        <ele>1993</ele>
        <time>2015-05-09T12:37:52Z</time>
      </trkpt>
      <trkpt lat="42.70856" lon="-0.0391">
        <ele>1990</ele>
        <time>2015-05-09T12:38:05Z</time>
      </trkpt>
      <trkpt lat="42.70857" lon="-0.03911">
        <ele>1990</ele>
        <time>2015-05-09T12:38:06Z</time>
      </trkpt>
      <trkpt lat="42.70856" lon="-0.03916">
        <ele>1990</ele>
        <time>2015-05-09T12:38:18Z</time>
      </trkpt>
      <trkpt lat="42.70858" lon="-0.03924">
        <ele>1988</ele>
        <time>2015-05-09T12:38:34Z</time>
      </trkpt>
      <trkpt lat="42.70861" lon="-0.0393">
        <ele>1984</ele>
        <time>2015-05-09T12:38:44Z</time>
      </trkpt>
      <trkpt lat="42.70864" lon="-0.03933">
        <ele>1982</ele>
        <time>2015-05-09T12:38:50Z</time>
      </trkpt>
      <trkpt lat="42.70868" lon="-0.03938">
        <ele>1979</ele>
        <time>2015-05-09T12:39:00Z</time>
      </trkpt>
      <trkpt lat="42.70873" lon="-0.03942">
        <ele>1976</ele>
        <time>2015-05-09T12:39:07Z</time>
      </trkpt>
      <trkpt lat="42.70875" lon="-0.03943">
        <ele>1975</ele>
        <time>2015-05-09T12:39:09Z</time>
      </trkpt>
      <trkpt lat="42.70876" lon="-0.03944">
        <ele>1974</ele>
        <time>2015-05-09T12:39:11Z</time>
      </trkpt>
      <trkpt lat="42.7088" lon="-0.03947">
        <ele>1970</ele>
        <time>2015-05-09T12:39:19Z</time>
      </trkpt>
      <trkpt lat="42.70882" lon="-0.03948">
        <ele>1968</ele>
        <time>2015-05-09T12:39:24Z</time>
      </trkpt>
      <trkpt lat="42.70885" lon="-0.03951">
        <ele>1966</ele>
        <time>2015-05-09T12:39:29Z</time>
      </trkpt>
      <trkpt lat="42.70889" lon="-0.03955">
        <ele>1963</ele>
        <time>2015-05-09T12:39:38Z</time>
      </trkpt>
      <trkpt lat="42.70892" lon="-0.03958">
        <ele>1961</ele>
        <time>2015-05-09T12:39:50Z</time>
      </trkpt>
      <trkpt lat="42.70894" lon="-0.03967">
        <ele>1958</ele>
        <time>2015-05-09T12:40:02Z</time>
      </trkpt>
      <trkpt lat="42.70895" lon="-0.03973">
        <ele>1958</ele>
        <time>2015-05-09T12:40:16Z</time>
      </trkpt>
      <trkpt lat="42.70896" lon="-0.03975">
        <ele>1957</ele>
        <time>2015-05-09T12:40:20Z</time>
      </trkpt>
      <trkpt lat="42.70898" lon="-0.03993">
        <ele>1957</ele>
        <time>2015-05-09T12:40:37Z</time>
      </trkpt>
      <trkpt lat="42.70899" lon="-0.03999">
        <ele>1956</ele>
        <time>2015-05-09T12:40:52Z</time>
      </trkpt>
      <trkpt lat="42.70903" lon="-0.04011">
        <ele>1953</ele>
        <time>2015-05-09T12:41:07Z</time>
      </trkpt>
      <trkpt lat="42.70903" lon="-0.04026">
        <ele>1951</ele>
        <time>2015-05-09T12:41:20Z</time>
      </trkpt>
      <trkpt lat="42.70905" lon="-0.0403">
        <ele>1950</ele>
        <time>2015-05-09T12:41:23Z</time>
      </trkpt>
      <trkpt lat="42.70906" lon="-0.04037">
        <ele>1948</ele>
        <time>2015-05-09T12:41:29Z</time>
      </trkpt>
      <trkpt lat="42.70911" lon="-0.04046">
        <ele>1945</ele>
        <time>2015-05-09T12:41:39Z</time>
      </trkpt>
      <trkpt lat="42.70915" lon="-0.04051">
        <ele>1942</ele>
        <time>2015-05-09T12:41:49Z</time>
      </trkpt>
      <trkpt lat="42.70916" lon="-0.04052">
        <ele>1941</ele>
        <time>2015-05-09T12:41:50Z</time>
      </trkpt>
      <trkpt lat="42.70917" lon="-0.04052">
        <ele>1940</ele>
        <time>2015-05-09T12:41:52Z</time>
      </trkpt>
      <trkpt lat="42.70921" lon="-0.04055">
        <ele>1938</ele>
        <time>2015-05-09T12:42:04Z</time>
      </trkpt>
      <trkpt lat="42.70926" lon="-0.04063">
        <ele>1934</ele>
        <time>2015-05-09T12:42:18Z</time>
      </trkpt>
      <trkpt lat="42.70931" lon="-0.04073">
        <ele>1931</ele>
        <time>2015-05-09T12:42:31Z</time>
      </trkpt>
      <trkpt lat="42.70936" lon="-0.04078">
        <ele>1929</ele>
        <time>2015-05-09T12:42:43Z</time>
      </trkpt>
      <trkpt lat="42.7094" lon="-0.04089">
        <ele>1927</ele>
        <time>2015-05-09T12:42:57Z</time>
      </trkpt>
      <trkpt lat="42.70947" lon="-0.04096">
        <ele>1923</ele>
        <time>2015-05-09T12:43:10Z</time>
      </trkpt>
      <trkpt lat="42.7095" lon="-0.04101">
        <ele>1922</ele>
        <time>2015-05-09T12:43:17Z</time>
      </trkpt>
      <trkpt lat="42.70952" lon="-0.04102">
        <ele>1921</ele>
        <time>2015-05-09T12:43:19Z</time>
      </trkpt>
      <trkpt lat="42.70959" lon="-0.04109">
        <ele>1919</ele>
        <time>2015-05-09T12:43:26Z</time>
      </trkpt>
      <trkpt lat="42.70966" lon="-0.04119">
        <ele>1916</ele>
        <time>2015-05-09T12:43:36Z</time>
      </trkpt>
      <trkpt lat="42.70974" lon="-0.04129">
        <ele>1916</ele>
        <time>2015-05-09T12:43:48Z</time>
      </trkpt>
      <trkpt lat="42.70974" lon="-0.04134">
        <ele>1916</ele>
        <time>2015-05-09T12:44:02Z</time>
      </trkpt>
      <trkpt lat="42.70974" lon="-0.04137">
        <ele>1915</ele>
        <time>2015-05-09T12:44:09Z</time>
      </trkpt>
      <trkpt lat="42.7098" lon="-0.04151">
        <ele>1915</ele>
        <time>2015-05-09T12:44:24Z</time>
      </trkpt>
      <trkpt lat="42.70982" lon="-0.04156">
        <ele>1915</ele>
        <time>2015-05-09T12:44:29Z</time>
      </trkpt>
      <trkpt lat="42.70985" lon="-0.04159">
        <ele>1915</ele>
        <time>2015-05-09T12:44:33Z</time>
      </trkpt>
      <trkpt lat="42.7099" lon="-0.04163">
        <ele>1915</ele>
        <time>2015-05-09T12:44:38Z</time>
      </trkpt>
      <trkpt lat="42.70996" lon="-0.04168">
        <ele>1914</ele>
        <time>2015-05-09T12:44:45Z</time>
      </trkpt>
      <trkpt lat="42.70999" lon="-0.04167">
        <ele>1914</ele>
        <time>2015-05-09T12:44:48Z</time>
      </trkpt>
      <trkpt lat="42.71002" lon="-0.0417">
        <ele>1914</ele>
        <time>2015-05-09T12:44:54Z</time>
      </trkpt>
      <trkpt lat="42.70999" lon="-0.04166">
        <ele>1914</ele>
        <time>2015-05-09T12:45:02Z</time>
      </trkpt>
      <trkpt lat="42.71008" lon="-0.04161">
        <ele>1915</ele>
        <time>2015-05-09T12:45:12Z</time>
      </trkpt>
      <trkpt lat="42.71008" lon="-0.04159">
        <ele>1914</ele>
        <time>2015-05-09T12:45:23Z</time>
      </trkpt>
      <trkpt lat="42.71007" lon="-0.04157">
        <ele>1914</ele>
        <time>2015-05-09T12:45:34Z</time>
      </trkpt>
      <trkpt lat="42.7101" lon="-0.04154">
        <ele>1914</ele>
        <time>2015-05-09T12:45:54Z</time>
      </trkpt>
      <trkpt lat="42.71011" lon="-0.04158">
        <ele>1912</ele>
        <time>2015-05-09T12:46:07Z</time>
      </trkpt>
      <trkpt lat="42.71015" lon="-0.04161">
        <ele>1913</ele>
        <time>2015-05-09T12:46:41Z</time>
      </trkpt>
      <trkpt lat="42.71013" lon="-0.04158">
        <ele>1912</ele>
        <time>2015-05-09T12:47:01Z</time>
      </trkpt>
      <trkpt lat="42.71011" lon="-0.04158">
        <ele>1912</ele>
        <time>2015-05-09T12:47:31Z</time>
      </trkpt>
      <trkpt lat="42.71009" lon="-0.04157">
        <ele>1912</ele>
        <time>2015-05-09T12:47:53Z</time>
      </trkpt>
      <trkpt lat="42.71012" lon="-0.04156">
        <ele>1911</ele>
        <time>2015-05-09T12:48:26Z</time>
      </trkpt>
      <trkpt lat="42.71012" lon="-0.04159">
        <ele>1911</ele>
        <time>2015-05-09T12:48:54Z</time>
      </trkpt>
      <trkpt lat="42.71013" lon="-0.04156">
        <ele>1911</ele>
        <time>2015-05-09T12:49:24Z</time>
      </trkpt>
      <trkpt lat="42.71012" lon="-0.04158">
        <ele>1910</ele>
        <time>2015-05-09T12:49:53Z</time>
      </trkpt>
      <trkpt lat="42.71008" lon="-0.0416">
        <ele>1911</ele>
        <time>2015-05-09T12:50:30Z</time>
      </trkpt>
      <trkpt lat="42.71009" lon="-0.04156">
        <ele>1910</ele>
        <time>2015-05-09T12:51:07Z</time>
      </trkpt>
      <trkpt lat="42.7101" lon="-0.04156">
        <ele>1910</ele>
        <time>2015-05-09T12:51:45Z</time>
      </trkpt>
      <trkpt lat="42.7101" lon="-0.04156">
        <ele>1910</ele>
        <time>2015-05-09T12:52:16Z</time>
      </trkpt>
      <trkpt lat="42.71011" lon="-0.04158">
        <ele>1910</ele>
        <time>2015-05-09T12:52:45Z</time>
      </trkpt>
      <trkpt lat="42.71011" lon="-0.04159">
        <ele>1909</ele>
        <time>2015-05-09T12:53:10Z</time>
      </trkpt>
      <trkpt lat="42.71012" lon="-0.04157">
        <ele>1909</ele>
        <time>2015-05-09T12:53:38Z</time>
      </trkpt>
      <trkpt lat="42.71009" lon="-0.04156">
        <ele>1909</ele>
        <time>2015-05-09T12:54:05Z</time>
      </trkpt>
      <trkpt lat="42.7101" lon="-0.04157">
        <ele>1909</ele>
        <time>2015-05-09T12:54:37Z</time>
      </trkpt>
      <trkpt lat="42.71009" lon="-0.04158">
        <ele>1908</ele>
        <time>2015-05-09T12:54:59Z</time>
      </trkpt>
      <trkpt lat="42.7101" lon="-0.04157">
        <ele>1909</ele>
        <time>2015-05-09T12:55:32Z</time>
      </trkpt>
      <trkpt lat="42.71009" lon="-0.04156">
        <ele>1909</ele>
        <time>2015-05-09T12:55:51Z</time>
      </trkpt>
      <trkpt lat="42.71015" lon="-0.04155">
        <ele>1908</ele>
        <time>2015-05-09T12:56:19Z</time>
      </trkpt>
      <trkpt lat="42.7098" lon="-0.04154">
        <ele>1907</ele>
        <time>2015-05-09T12:56:53Z</time>
      </trkpt>
      <trkpt lat="42.70992" lon="-0.04154">
        <ele>1908</ele>
        <time>2015-05-09T12:57:17Z</time>
      </trkpt>
      <trkpt lat="42.70994" lon="-0.04152">
        <ele>1906</ele>
        <time>2015-05-09T12:57:21Z</time>
      </trkpt>
      <trkpt lat="42.70998" lon="-0.04151">
        <ele>1905</ele>
        <time>2015-05-09T12:57:48Z</time>
      </trkpt>
      <trkpt lat="42.71006" lon="-0.0415">
        <ele>1905</ele>
        <time>2015-05-09T12:58:16Z</time>
      </trkpt>
      <trkpt lat="42.71006" lon="-0.04155">
        <ele>1905</ele>
        <time>2015-05-09T12:58:37Z</time>
      </trkpt>
      <trkpt lat="42.71004" lon="-0.04155">
        <ele>1904</ele>
        <time>2015-05-09T12:59:06Z</time>
      </trkpt>
      <trkpt lat="42.71008" lon="-0.04153">
        <ele>1904</ele>
        <time>2015-05-09T12:59:39Z</time>
      </trkpt>
      <trkpt lat="42.71009" lon="-0.04156">
        <ele>1904</ele>
        <time>2015-05-09T13:00:02Z</time>
      </trkpt>
      <trkpt lat="42.71008" lon="-0.04153">
        <ele>1904</ele>
        <time>2015-05-09T13:00:30Z</time>
      </trkpt>
      <trkpt lat="42.71007" lon="-0.04153">
        <ele>1904</ele>
        <time>2015-05-09T13:01:05Z</time>
      </trkpt>
      <trkpt lat="42.71008" lon="-0.04151">
        <ele>1903</ele>
        <time>2015-05-09T13:01:43Z</time>
      </trkpt>
      <trkpt lat="42.71007" lon="-0.04155">
        <ele>1903</ele>
        <time>2015-05-09T13:02:12Z</time>
      </trkpt>
      <trkpt lat="42.71009" lon="-0.04152">
        <ele>1904</ele>
        <time>2015-05-09T13:02:36Z</time>
      </trkpt>
      <trkpt lat="42.71009" lon="-0.04154">
        <ele>1902</ele>
        <time>2015-05-09T13:03:05Z</time>
      </trkpt>
      <trkpt lat="42.71007" lon="-0.04156">
        <ele>1904</ele>
        <time>2015-05-09T13:03:32Z</time>
      </trkpt>
      <trkpt lat="42.71008" lon="-0.04158">
        <ele>1903</ele>
        <time>2015-05-09T13:03:58Z</time>
      </trkpt>
      <trkpt lat="42.7101" lon="-0.04157">
        <ele>1903</ele>
        <time>2015-05-09T13:04:37Z</time>
      </trkpt>
      <trkpt lat="42.71013" lon="-0.04155">
        <ele>1902</ele>
        <time>2015-05-09T13:04:56Z</time>
      </trkpt>
      <trkpt lat="42.71025" lon="-0.04166">
        <ele>1902</ele>
        <time>2015-05-09T13:05:26Z</time>
      </trkpt>
      <trkpt lat="42.71017" lon="-0.04158">
        <ele>1903</ele>
        <time>2015-05-09T13:06:01Z</time>
      </trkpt>
      <trkpt lat="42.71015" lon="-0.04155">
        <ele>1902</ele>
        <time>2015-05-09T13:06:39Z</time>
      </trkpt>
      <trkpt lat="42.7101" lon="-0.04152">
        <ele>1902</ele>
        <time>2015-05-09T13:07:12Z</time>
      </trkpt>
      <trkpt lat="42.71009" lon="-0.04153">
        <ele>1903</ele>
        <time>2015-05-09T13:07:26Z</time>
      </trkpt>
      <trkpt lat="42.71009" lon="-0.04152">
        <ele>1902</ele>
        <time>2015-05-09T13:07:47Z</time>
      </trkpt>
      <trkpt lat="42.71011" lon="-0.04152">
        <ele>1903</ele>
        <time>2015-05-09T13:08:03Z</time>
      </trkpt>
      <trkpt lat="42.71014" lon="-0.04152">
        <ele>1902</ele>
        <time>2015-05-09T13:08:06Z</time>
      </trkpt>
      <trkpt lat="42.71021" lon="-0.04155">
        <ele>1902</ele>
        <time>2015-05-09T13:08:12Z</time>
      </trkpt>
      <trkpt lat="42.71022" lon="-0.04156">
        <ele>1902</ele>
        <time>2015-05-09T13:08:13Z</time>
      </trkpt>
      <trkpt lat="42.71027" lon="-0.04161">
        <ele>1903</ele>
        <time>2015-05-09T13:08:19Z</time>
      </trkpt>
      <trkpt lat="42.71033" lon="-0.04164">
        <ele>1902</ele>
        <time>2015-05-09T13:08:25Z</time>
      </trkpt>
      <trkpt lat="42.71038" lon="-0.04166">
        <ele>1903</ele>
        <time>2015-05-09T13:08:29Z</time>
      </trkpt>
      <trkpt lat="42.7105" lon="-0.04179">
        <ele>1904</ele>
        <time>2015-05-09T13:08:47Z</time>
      </trkpt>
      <trkpt lat="42.71051" lon="-0.04186">
        <ele>1905</ele>
        <time>2015-05-09T13:08:53Z</time>
      </trkpt>
      <trkpt lat="42.71049" lon="-0.04195">
        <ele>1907</ele>
        <time>2015-05-09T13:09:07Z</time>
      </trkpt>
      <trkpt lat="42.71051" lon="-0.04199">
        <ele>1907</ele>
        <time>2015-05-09T13:09:12Z</time>
      </trkpt>
      <trkpt lat="42.71061" lon="-0.04215">
        <ele>1908</ele>
        <time>2015-05-09T13:09:27Z</time>
      </trkpt>
      <trkpt lat="42.71069" lon="-0.04227">
        <ele>1910</ele>
        <time>2015-05-09T13:09:41Z</time>
      </trkpt>
      <trkpt lat="42.71071" lon="-0.04236">
        <ele>1910</ele>
        <time>2015-05-09T13:09:50Z</time>
      </trkpt>
      <trkpt lat="42.71074" lon="-0.04248">
        <ele>1912</ele>
        <time>2015-05-09T13:10:05Z</time>
      </trkpt>
      <trkpt lat="42.71076" lon="-0.04251">
        <ele>1913</ele>
        <time>2015-05-09T13:10:08Z</time>
      </trkpt>
      <trkpt lat="42.71082" lon="-0.04263">
        <ele>1915</ele>
        <time>2015-05-09T13:10:23Z</time>
      </trkpt>
      <trkpt lat="42.71087" lon="-0.04274">
        <ele>1917</ele>
        <time>2015-05-09T13:10:38Z</time>
      </trkpt>
      <trkpt lat="42.71088" lon="-0.04284">
        <ele>1918</ele>
        <time>2015-05-09T13:10:51Z</time>
      </trkpt>
      <trkpt lat="42.71089" lon="-0.04295">
        <ele>1918</ele>
        <time>2015-05-09T13:11:10Z</time>
      </trkpt>
      <trkpt lat="42.7109" lon="-0.04301">
        <ele>1921</ele>
        <time>2015-05-09T13:11:24Z</time>
      </trkpt>
      <trkpt lat="42.71093" lon="-0.04306">
        <ele>1922</ele>
        <time>2015-05-09T13:11:38Z</time>
      </trkpt>
      <trkpt lat="42.71098" lon="-0.04314">
        <ele>1925</ele>
        <time>2015-05-09T13:11:52Z</time>
      </trkpt>
      <trkpt lat="42.711" lon="-0.04324">
        <ele>1927</ele>
        <time>2015-05-09T13:12:07Z</time>
      </trkpt>
      <trkpt lat="42.711" lon="-0.0433">
        <ele>1928</ele>
        <time>2015-05-09T13:12:15Z</time>
      </trkpt>
      <trkpt lat="42.71099" lon="-0.04341">
        <ele>1929</ele>
        <time>2015-05-09T13:12:31Z</time>
      </trkpt>
      <trkpt lat="42.71097" lon="-0.04353">
        <ele>1930</ele>
        <time>2015-05-09T13:12:44Z</time>
      </trkpt>
      <trkpt lat="42.71096" lon="-0.04366">
        <ele>1932</ele>
        <time>2015-05-09T13:12:58Z</time>
      </trkpt>
      <trkpt lat="42.71096" lon="-0.04376">
        <ele>1934</ele>
        <time>2015-05-09T13:13:09Z</time>
      </trkpt>
      <trkpt lat="42.71095" lon="-0.04383">
        <ele>1934</ele>
        <time>2015-05-09T13:13:25Z</time>
      </trkpt>
      <trkpt lat="42.71096" lon="-0.04389">
        <ele>1935</ele>
        <time>2015-05-09T13:13:38Z</time>
      </trkpt>
      <trkpt lat="42.71095" lon="-0.04402">
        <ele>1937</ele>
        <time>2015-05-09T13:13:52Z</time>
      </trkpt>
      <trkpt lat="42.71092" lon="-0.04404">
        <ele>1937</ele>
        <time>2015-05-09T13:14:08Z</time>
      </trkpt>
      <trkpt lat="42.71091" lon="-0.04416">
        <ele>1939</ele>
        <time>2015-05-09T13:14:22Z</time>
      </trkpt>
      <trkpt lat="42.71084" lon="-0.04427">
        <ele>1940</ele>
        <time>2015-05-09T13:14:35Z</time>
      </trkpt>
      <trkpt lat="42.71084" lon="-0.04429">
        <ele>1940</ele>
        <time>2015-05-09T13:14:37Z</time>
      </trkpt>
      <trkpt lat="42.71086" lon="-0.04443">
        <ele>1942</ele>
        <time>2015-05-09T13:14:51Z</time>
      </trkpt>
      <trkpt lat="42.71083" lon="-0.04456">
        <ele>1944</ele>
        <time>2015-05-09T13:15:05Z</time>
      </trkpt>
      <trkpt lat="42.71075" lon="-0.04464">
        <ele>1946</ele>
        <time>2015-05-09T13:15:18Z</time>
      </trkpt>
      <trkpt lat="42.71073" lon="-0.04466">
        <ele>1946</ele>
        <time>2015-05-09T13:15:21Z</time>
      </trkpt>
      <trkpt lat="42.71064" lon="-0.04472">
        <ele>1948</ele>
        <time>2015-05-09T13:15:35Z</time>
      </trkpt>
      <trkpt lat="42.71054" lon="-0.04474">
        <ele>1949</ele>
        <time>2015-05-09T13:15:49Z</time>
      </trkpt>
      <trkpt lat="42.71053" lon="-0.04476">
        <ele>1950</ele>
        <time>2015-05-09T13:15:56Z</time>
      </trkpt>
      <trkpt lat="42.71058" lon="-0.04478">
        <ele>1951</ele>
        <time>2015-05-09T13:16:03Z</time>
      </trkpt>
      <trkpt lat="42.71064" lon="-0.04485">
        <ele>1953</ele>
        <time>2015-05-09T13:16:18Z</time>
      </trkpt>
      <trkpt lat="42.71056" lon="-0.04493">
        <ele>1954</ele>
        <time>2015-05-09T13:16:31Z</time>
      </trkpt>
      <trkpt lat="42.71048" lon="-0.04501">
        <ele>1955</ele>
        <time>2015-05-09T13:16:44Z</time>
      </trkpt>
      <trkpt lat="42.71045" lon="-0.04515">
        <ele>1956</ele>
        <time>2015-05-09T13:16:59Z</time>
      </trkpt>
      <trkpt lat="42.71044" lon="-0.04529">
        <ele>1958</ele>
        <time>2015-05-09T13:17:13Z</time>
      </trkpt>
      <trkpt lat="42.71044" lon="-0.0454">
        <ele>1961</ele>
        <time>2015-05-09T13:17:29Z</time>
      </trkpt>
      <trkpt lat="42.71044" lon="-0.04552">
        <ele>1962</ele>
        <time>2015-05-09T13:17:43Z</time>
      </trkpt>
      <trkpt lat="42.71045" lon="-0.04565">
        <ele>1964</ele>
        <time>2015-05-09T13:17:57Z</time>
      </trkpt>
      <trkpt lat="42.71042" lon="-0.0458">
        <ele>1965</ele>
        <time>2015-05-09T13:18:12Z</time>
      </trkpt>
      <trkpt lat="42.71045" lon="-0.04591">
        <ele>1966</ele>
        <time>2015-05-09T13:18:24Z</time>
      </trkpt>
      <trkpt lat="42.71049" lon="-0.04603">
        <ele>1969</ele>
        <time>2015-05-09T13:18:39Z</time>
      </trkpt>
      <trkpt lat="42.71053" lon="-0.04609">
        <ele>1970</ele>
        <time>2015-05-09T13:18:54Z</time>
      </trkpt>
      <trkpt lat="42.71061" lon="-0.04619">
        <ele>1972</ele>
        <time>2015-05-09T13:19:10Z</time>
      </trkpt>
      <trkpt lat="42.71062" lon="-0.04632">
        <ele>1973</ele>
        <time>2015-05-09T13:19:23Z</time>
      </trkpt>
      <trkpt lat="42.71057" lon="-0.04642">
        <ele>1974</ele>
        <time>2015-05-09T13:19:38Z</time>
      </trkpt>
      <trkpt lat="42.71059" lon="-0.04649">
        <ele>1975</ele>
        <time>2015-05-09T13:19:51Z</time>
      </trkpt>
      <trkpt lat="42.71054" lon="-0.04658">
        <ele>1977</ele>
        <time>2015-05-09T13:20:03Z</time>
      </trkpt>
      <trkpt lat="42.71047" lon="-0.04668">
        <ele>1979</ele>
        <time>2015-05-09T13:20:17Z</time>
      </trkpt>
      <trkpt lat="42.71047" lon="-0.04669">
        <ele>1979</ele>
        <time>2015-05-09T13:20:19Z</time>
      </trkpt>
      <trkpt lat="42.71042" lon="-0.04682">
        <ele>1980</ele>
        <time>2015-05-09T13:20:32Z</time>
      </trkpt>
      <trkpt lat="42.7104" lon="-0.04692">
        <ele>1982</ele>
        <time>2015-05-09T13:20:46Z</time>
      </trkpt>
      <trkpt lat="42.71035" lon="-0.04696">
        <ele>1984</ele>
        <time>2015-05-09T13:21:01Z</time>
      </trkpt>
      <trkpt lat="42.71035" lon="-0.04703">
        <ele>1985</ele>
        <time>2015-05-09T13:21:16Z</time>
      </trkpt>
      <trkpt lat="42.71028" lon="-0.0471">
        <ele>1986</ele>
        <time>2015-05-09T13:21:29Z</time>
      </trkpt>
      <trkpt lat="42.71023" lon="-0.04714">
        <ele>1988</ele>
        <time>2015-05-09T13:21:45Z</time>
      </trkpt>
      <trkpt lat="42.71021" lon="-0.04723">
        <ele>1991</ele>
        <time>2015-05-09T13:22:00Z</time>
      </trkpt>
      <trkpt lat="42.71023" lon="-0.04733">
        <ele>1992</ele>
        <time>2015-05-09T13:22:14Z</time>
      </trkpt>
      <trkpt lat="42.71025" lon="-0.04745">
        <ele>1994</ele>
        <time>2015-05-09T13:22:28Z</time>
      </trkpt>
      <trkpt lat="42.71025" lon="-0.04754">
        <ele>1996</ele>
        <time>2015-05-09T13:22:44Z</time>
      </trkpt>
      <trkpt lat="42.71021" lon="-0.0477">
        <ele>1999</ele>
        <time>2015-05-09T13:23:02Z</time>
      </trkpt>
      <trkpt lat="42.71022" lon="-0.04775">
        <ele>2001</ele>
        <time>2015-05-09T13:23:21Z</time>
      </trkpt>
      <trkpt lat="42.71022" lon="-0.04773">
        <ele>2001</ele>
        <time>2015-05-09T13:23:37Z</time>
      </trkpt>
      <trkpt lat="42.7103" lon="-0.04772">
        <ele>2004</ele>
        <time>2015-05-09T13:23:50Z</time>
      </trkpt>
      <trkpt lat="42.71034" lon="-0.0477">
        <ele>2005</ele>
        <time>2015-05-09T13:24:04Z</time>
      </trkpt>
      <trkpt lat="42.71038" lon="-0.04772">
        <ele>2007</ele>
        <time>2015-05-09T13:24:18Z</time>
      </trkpt>
      <trkpt lat="42.71048" lon="-0.04774">
        <ele>2010</ele>
        <time>2015-05-09T13:24:32Z</time>
      </trkpt>
      <trkpt lat="42.71052" lon="-0.04778">
        <ele>2012</ele>
        <time>2015-05-09T13:24:47Z</time>
      </trkpt>
      <trkpt lat="42.71055" lon="-0.04781">
        <ele>2014</ele>
        <time>2015-05-09T13:25:01Z</time>
      </trkpt>
      <trkpt lat="42.7106" lon="-0.0478">
        <ele>2016</ele>
        <time>2015-05-09T13:25:16Z</time>
      </trkpt>
      <trkpt lat="42.71059" lon="-0.04777">
        <ele>2018</ele>
        <time>2015-05-09T13:25:31Z</time>
      </trkpt>
      <trkpt lat="42.71063" lon="-0.04781">
        <ele>2020</ele>
        <time>2015-05-09T13:25:44Z</time>
      </trkpt>
      <trkpt lat="42.71065" lon="-0.04785">
        <ele>2022</ele>
        <time>2015-05-09T13:25:59Z</time>
      </trkpt>
      <trkpt lat="42.71068" lon="-0.04791">
        <ele>2023</ele>
        <time>2015-05-09T13:26:11Z</time>
      </trkpt>
      <trkpt lat="42.71073" lon="-0.04793">
        <ele>2023</ele>
        <time>2015-05-09T13:26:19Z</time>
      </trkpt>
      <trkpt lat="42.7108" lon="-0.04796">
        <ele>2025</ele>
        <time>2015-05-09T13:26:28Z</time>
      </trkpt>
      <trkpt lat="42.71092" lon="-0.04796">
        <ele>2026</ele>
        <time>2015-05-09T13:26:45Z</time>
      </trkpt>
      <trkpt lat="42.711" lon="-0.04797">
        <ele>2028</ele>
        <time>2015-05-09T13:26:59Z</time>
      </trkpt>
      <trkpt lat="42.71109" lon="-0.04795">
        <ele>2030</ele>
        <time>2015-05-09T13:27:17Z</time>
      </trkpt>
      <trkpt lat="42.71117" lon="-0.04797">
        <ele>2032</ele>
        <time>2015-05-09T13:27:33Z</time>
      </trkpt>
      <trkpt lat="42.71113" lon="-0.04798">
        <ele>2032</ele>
        <time>2015-05-09T13:28:03Z</time>
      </trkpt>
      <trkpt lat="42.71118" lon="-0.04802">
        <ele>2034</ele>
        <time>2015-05-09T13:28:18Z</time>
      </trkpt>
      <trkpt lat="42.71122" lon="-0.04805">
        <ele>2038</ele>
        <time>2015-05-09T13:28:33Z</time>
      </trkpt>
      <trkpt lat="42.71125" lon="-0.04809">
        <ele>2040</ele>
        <time>2015-05-09T13:28:46Z</time>
      </trkpt>
      <trkpt lat="42.71127" lon="-0.04814">
        <ele>2042</ele>
        <time>2015-05-09T13:29:02Z</time>
      </trkpt>
      <trkpt lat="42.7113" lon="-0.04819">
        <ele>2045</ele>
        <time>2015-05-09T13:29:15Z</time>
      </trkpt>
      <trkpt lat="42.71136" lon="-0.0482">
        <ele>2047</ele>
        <time>2015-05-09T13:29:31Z</time>
      </trkpt>
      <trkpt lat="42.71138" lon="-0.04828">
        <ele>2050</ele>
        <time>2015-05-09T13:29:47Z</time>
      </trkpt>
      <trkpt lat="42.71141" lon="-0.04835">
        <ele>2052</ele>
        <time>2015-05-09T13:30:02Z</time>
      </trkpt>
      <trkpt lat="42.71145" lon="-0.04838">
        <ele>2053</ele>
        <time>2015-05-09T13:30:16Z</time>
      </trkpt>
      <trkpt lat="42.71149" lon="-0.04845">
        <ele>2055</ele>
        <time>2015-05-09T13:30:31Z</time>
      </trkpt>
      <trkpt lat="42.71153" lon="-0.04852">
        <ele>2058</ele>
        <time>2015-05-09T13:30:45Z</time>
      </trkpt>
      <trkpt lat="42.71151" lon="-0.04862">
        <ele>2060</ele>
        <time>2015-05-09T13:31:01Z</time>
      </trkpt>
      <trkpt lat="42.71153" lon="-0.04862">
        <ele>2062</ele>
        <time>2015-05-09T13:31:14Z</time>
      </trkpt>
      <trkpt lat="42.7116" lon="-0.0486">
        <ele>2064</ele>
        <time>2015-05-09T13:31:30Z</time>
      </trkpt>
      <trkpt lat="42.71166" lon="-0.04855">
        <ele>2066</ele>
        <time>2015-05-09T13:31:47Z</time>
      </trkpt>
      <trkpt lat="42.71174" lon="-0.04851">
        <ele>2069</ele>
        <time>2015-05-09T13:32:02Z</time>
      </trkpt>
      <trkpt lat="42.71181" lon="-0.04846">
        <ele>2071</ele>
        <time>2015-05-09T13:32:16Z</time>
      </trkpt>
      <trkpt lat="42.71186" lon="-0.04846">
        <ele>2074</ele>
        <time>2015-05-09T13:32:31Z</time>
      </trkpt>
      <trkpt lat="42.71187" lon="-0.04852">
        <ele>2074</ele>
        <time>2015-05-09T13:32:53Z</time>
      </trkpt>
      <trkpt lat="42.71189" lon="-0.04861">
        <ele>2076</ele>
        <time>2015-05-09T13:33:07Z</time>
      </trkpt>
      <trkpt lat="42.71189" lon="-0.04864">
        <ele>2078</ele>
        <time>2015-05-09T13:33:20Z</time>
      </trkpt>
      <trkpt lat="42.71189" lon="-0.04864">
        <ele>2078</ele>
        <time>2015-05-09T13:33:21Z</time>
      </trkpt>
      <trkpt lat="42.71191" lon="-0.04873">
        <ele>2080</ele>
        <time>2015-05-09T13:33:33Z</time>
      </trkpt>
      <trkpt lat="42.71192" lon="-0.04884">
        <ele>2082</ele>
        <time>2015-05-09T13:33:49Z</time>
      </trkpt>
      <trkpt lat="42.71188" lon="-0.04896">
        <ele>2085</ele>
        <time>2015-05-09T13:34:04Z</time>
      </trkpt>
      <trkpt lat="42.71189" lon="-0.04907">
        <ele>2087</ele>
        <time>2015-05-09T13:34:20Z</time>
      </trkpt>
      <trkpt lat="42.71192" lon="-0.04913">
        <ele>2089</ele>
        <time>2015-05-09T13:34:32Z</time>
      </trkpt>
      <trkpt lat="42.71189" lon="-0.04924">
        <ele>2091</ele>
        <time>2015-05-09T13:34:47Z</time>
      </trkpt>
      <trkpt lat="42.71192" lon="-0.04921">
        <ele>2093</ele>
        <time>2015-05-09T13:35:00Z</time>
      </trkpt>
      <trkpt lat="42.71193" lon="-0.04922">
        <ele>2095</ele>
        <time>2015-05-09T13:35:14Z</time>
      </trkpt>
      <trkpt lat="42.71194" lon="-0.04922">
        <ele>2096</ele>
        <time>2015-05-09T13:35:25Z</time>
      </trkpt>
      <trkpt lat="42.71198" lon="-0.04933">
        <ele>2098</ele>
        <time>2015-05-09T13:35:41Z</time>
      </trkpt>
      <trkpt lat="42.71199" lon="-0.04933">
        <ele>2100</ele>
        <time>2015-05-09T13:35:54Z</time>
      </trkpt>
      <trkpt lat="42.712" lon="-0.04931">
        <ele>2102</ele>
        <time>2015-05-09T13:36:08Z</time>
      </trkpt>
      <trkpt lat="42.71204" lon="-0.04934">
        <ele>2103</ele>
        <time>2015-05-09T13:36:20Z</time>
      </trkpt>
      <trkpt lat="42.71204" lon="-0.04938">
        <ele>2104</ele>
        <time>2015-05-09T13:36:34Z</time>
      </trkpt>
      <trkpt lat="42.71206" lon="-0.04949">
        <ele>2106</ele>
        <time>2015-05-09T13:36:49Z</time>
      </trkpt>
      <trkpt lat="42.71208" lon="-0.04964">
        <ele>2108</ele>
        <time>2015-05-09T13:37:06Z</time>
      </trkpt>
      <trkpt lat="42.71208" lon="-0.04968">
        <ele>2111</ele>
        <time>2015-05-09T13:37:20Z</time>
      </trkpt>
      <trkpt lat="42.71211" lon="-0.04973">
        <ele>2113</ele>
        <time>2015-05-09T13:37:37Z</time>
      </trkpt>
      <trkpt lat="42.71213" lon="-0.04972">
        <ele>2115</ele>
        <time>2015-05-09T13:37:49Z</time>
      </trkpt>
      <trkpt lat="42.71218" lon="-0.04976">
        <ele>2117</ele>
        <time>2015-05-09T13:38:03Z</time>
      </trkpt>
      <trkpt lat="42.71221" lon="-0.04972">
        <ele>2118</ele>
        <time>2015-05-09T13:38:17Z</time>
      </trkpt>
      <trkpt lat="42.71223" lon="-0.04969">
        <ele>2122</ele>
        <time>2015-05-09T13:38:33Z</time>
      </trkpt>
      <trkpt lat="42.71227" lon="-0.04965">
        <ele>2124</ele>
        <time>2015-05-09T13:38:48Z</time>
      </trkpt>
      <trkpt lat="42.71233" lon="-0.04964">
        <ele>2126</ele>
        <time>2015-05-09T13:39:03Z</time>
      </trkpt>
      <trkpt lat="42.71236" lon="-0.04966">
        <ele>2128</ele>
        <time>2015-05-09T13:39:17Z</time>
      </trkpt>
      <trkpt lat="42.7124" lon="-0.04973">
        <ele>2130</ele>
        <time>2015-05-09T13:39:31Z</time>
      </trkpt>
      <trkpt lat="42.71242" lon="-0.04973">
        <ele>2132</ele>
        <time>2015-05-09T13:39:46Z</time>
      </trkpt>
      <trkpt lat="42.71244" lon="-0.04978">
        <ele>2134</ele>
        <time>2015-05-09T13:40:00Z</time>
      </trkpt>
      <trkpt lat="42.71245" lon="-0.04979">
        <ele>2137</ele>
        <time>2015-05-09T13:40:14Z</time>
      </trkpt>
      <trkpt lat="42.71249" lon="-0.04979">
        <ele>2138</ele>
        <time>2015-05-09T13:40:30Z</time>
      </trkpt>
      <trkpt lat="42.71252" lon="-0.04985">
        <ele>2140</ele>
        <time>2015-05-09T13:40:45Z</time>
      </trkpt>
      <trkpt lat="42.71256" lon="-0.04984">
        <ele>2144</ele>
        <time>2015-05-09T13:41:00Z</time>
      </trkpt>
      <trkpt lat="42.7126" lon="-0.04988">
        <ele>2146</ele>
        <time>2015-05-09T13:41:14Z</time>
      </trkpt>
      <trkpt lat="42.71261" lon="-0.04991">
        <ele>2148</ele>
        <time>2015-05-09T13:41:29Z</time>
      </trkpt>
      <trkpt lat="42.71259" lon="-0.04989">
        <ele>2148</ele>
        <time>2015-05-09T13:41:50Z</time>
      </trkpt>
      <trkpt lat="42.71261" lon="-0.04993">
        <ele>2150</ele>
        <time>2015-05-09T13:42:07Z</time>
      </trkpt>
      <trkpt lat="42.71263" lon="-0.04994">
        <ele>2152</ele>
        <time>2015-05-09T13:42:19Z</time>
      </trkpt>
      <trkpt lat="42.71267" lon="-0.04998">
        <ele>2153</ele>
        <time>2015-05-09T13:42:33Z</time>
      </trkpt>
      <trkpt lat="42.71266" lon="-0.05003">
        <ele>2155</ele>
        <time>2015-05-09T13:42:46Z</time>
      </trkpt>
      <trkpt lat="42.71267" lon="-0.05004">
        <ele>2157</ele>
        <time>2015-05-09T13:43:00Z</time>
      </trkpt>
      <trkpt lat="42.71268" lon="-0.05006">
        <ele>2157</ele>
        <time>2015-05-09T13:43:13Z</time>
      </trkpt>
      <trkpt lat="42.71268" lon="-0.05008">
        <ele>2157</ele>
        <time>2015-05-09T13:43:31Z</time>
      </trkpt>
      <trkpt lat="42.71268" lon="-0.05012">
        <ele>2160</ele>
        <time>2015-05-09T13:43:47Z</time>
      </trkpt>
      <trkpt lat="42.71269" lon="-0.05014">
        <ele>2160</ele>
        <time>2015-05-09T13:43:55Z</time>
      </trkpt>
      <trkpt lat="42.71267" lon="-0.05017">
        <ele>2161</ele>
        <time>2015-05-09T13:44:08Z</time>
      </trkpt>
      <trkpt lat="42.71267" lon="-0.0502">
        <ele>2163</ele>
        <time>2015-05-09T13:44:22Z</time>
      </trkpt>
      <trkpt lat="42.71269" lon="-0.05021">
        <ele>2164</ele>
        <time>2015-05-09T13:44:35Z</time>
      </trkpt>
      <trkpt lat="42.71271" lon="-0.05023">
        <ele>2166</ele>
        <time>2015-05-09T13:44:48Z</time>
      </trkpt>
      <trkpt lat="42.71272" lon="-0.05023">
        <ele>2167</ele>
        <time>2015-05-09T13:44:59Z</time>
      </trkpt>
      <trkpt lat="42.71275" lon="-0.05018">
        <ele>2168</ele>
        <time>2015-05-09T13:45:18Z</time>
      </trkpt>
      <trkpt lat="42.71278" lon="-0.05019">
        <ele>2170</ele>
        <time>2015-05-09T13:45:32Z</time>
      </trkpt>
      <trkpt lat="42.7128" lon="-0.05022">
        <ele>2173</ele>
        <time>2015-05-09T13:45:46Z</time>
      </trkpt>
      <trkpt lat="42.71282" lon="-0.05022">
        <ele>2174</ele>
        <time>2015-05-09T13:46:03Z</time>
      </trkpt>
      <trkpt lat="42.71285" lon="-0.05023">
        <ele>2176</ele>
        <time>2015-05-09T13:46:17Z</time>
      </trkpt>
      <trkpt lat="42.71287" lon="-0.05027">
        <ele>2178</ele>
        <time>2015-05-09T13:46:30Z</time>
      </trkpt>
      <trkpt lat="42.71286" lon="-0.05034">
        <ele>2179</ele>
        <time>2015-05-09T13:46:46Z</time>
      </trkpt>
      <trkpt lat="42.71285" lon="-0.05041">
        <ele>2182</ele>
        <time>2015-05-09T13:46:59Z</time>
      </trkpt>
      <trkpt lat="42.71287" lon="-0.05047">
        <ele>2183</ele>
        <time>2015-05-09T13:47:13Z</time>
      </trkpt>
      <trkpt lat="42.71288" lon="-0.05052">
        <ele>2185</ele>
        <time>2015-05-09T13:47:28Z</time>
      </trkpt>
      <trkpt lat="42.7129" lon="-0.0506">
        <ele>2187</ele>
        <time>2015-05-09T13:47:43Z</time>
      </trkpt>
      <trkpt lat="42.71291" lon="-0.05068">
        <ele>2190</ele>
        <time>2015-05-09T13:47:58Z</time>
      </trkpt>
      <trkpt lat="42.71294" lon="-0.05076">
        <ele>2191</ele>
        <time>2015-05-09T13:48:14Z</time>
      </trkpt>
      <trkpt lat="42.71295" lon="-0.05076">
        <ele>2192</ele>
        <time>2015-05-09T13:48:20Z</time>
      </trkpt>
      <trkpt lat="42.71299" lon="-0.05081">
        <ele>2195</ele>
        <time>2015-05-09T13:48:36Z</time>
      </trkpt>
      <trkpt lat="42.71305" lon="-0.05076">
        <ele>2197</ele>
        <time>2015-05-09T13:48:52Z</time>
      </trkpt>
      <trkpt lat="42.71304" lon="-0.05075">
        <ele>2198</ele>
        <time>2015-05-09T13:49:08Z</time>
      </trkpt>
      <trkpt lat="42.71309" lon="-0.05069">
        <ele>2199</ele>
        <time>2015-05-09T13:49:32Z</time>
      </trkpt>
      <trkpt lat="42.71317" lon="-0.05067">
        <ele>2201</ele>
        <time>2015-05-09T13:49:47Z</time>
      </trkpt>
      <trkpt lat="42.71322" lon="-0.05072">
        <ele>2204</ele>
        <time>2015-05-09T13:50:02Z</time>
      </trkpt>
      <trkpt lat="42.71327" lon="-0.0508">
        <ele>2205</ele>
        <time>2015-05-09T13:50:18Z</time>
      </trkpt>
      <trkpt lat="42.71327" lon="-0.05088">
        <ele>2205</ele>
        <time>2015-05-09T13:50:25Z</time>
      </trkpt>
      <trkpt lat="42.71323" lon="-0.05101">
        <ele>2205</ele>
        <time>2015-05-09T13:50:40Z</time>
      </trkpt>
      <trkpt lat="42.71324" lon="-0.05101">
        <ele>2205</ele>
        <time>2015-05-09T13:51:03Z</time>
      </trkpt>
      <trkpt lat="42.71325" lon="-0.05101">
        <ele>2205</ele>
        <time>2015-05-09T13:51:29Z</time>
      </trkpt>
      <trkpt lat="42.71324" lon="-0.05101">
        <ele>2206</ele>
        <time>2015-05-09T13:51:51Z</time>
      </trkpt>
      <trkpt lat="42.71322" lon="-0.05104">
        <ele>2206</ele>
        <time>2015-05-09T13:52:14Z</time>
      </trkpt>
      <trkpt lat="42.71321" lon="-0.05105">
        <ele>2205</ele>
        <time>2015-05-09T13:52:43Z</time>
      </trkpt>
      <trkpt lat="42.71323" lon="-0.05104">
        <ele>2206</ele>
        <time>2015-05-09T13:52:58Z</time>
      </trkpt>
      <trkpt lat="42.71322" lon="-0.05104">
        <ele>2205</ele>
        <time>2015-05-09T13:53:34Z</time>
      </trkpt>
      <trkpt lat="42.71323" lon="-0.05104">
        <ele>2205</ele>
        <time>2015-05-09T13:54:09Z</time>
      </trkpt>
      <trkpt lat="42.71323" lon="-0.05104">
        <ele>2205</ele>
        <time>2015-05-09T13:54:42Z</time>
      </trkpt>
      <trkpt lat="42.71322" lon="-0.05104">
        <ele>2206</ele>
        <time>2015-05-09T13:55:12Z</time>
      </trkpt>
      <trkpt lat="42.71322" lon="-0.05104">
        <ele>2206</ele>
        <time>2015-05-09T13:55:39Z</time>
      </trkpt>
      <trkpt lat="42.71322" lon="-0.05104">
        <ele>2206</ele>
        <time>2015-05-09T13:56:17Z</time>
      </trkpt>
      <trkpt lat="42.71323" lon="-0.05104">
        <ele>2206</ele>
        <time>2015-05-09T13:56:51Z</time>
      </trkpt>
      <trkpt lat="42.71322" lon="-0.05105">
        <ele>2206</ele>
        <time>2015-05-09T13:57:23Z</time>
      </trkpt>
      <trkpt lat="42.71322" lon="-0.05105">
        <ele>2207</ele>
        <time>2015-05-09T13:58:01Z</time>
      </trkpt>
      <trkpt lat="42.71322" lon="-0.05105">
        <ele>2207</ele>
        <time>2015-05-09T13:58:28Z</time>
      </trkpt>
      <trkpt lat="42.71321" lon="-0.05106">
        <ele>2207</ele>
        <time>2015-05-09T13:58:55Z</time>
      </trkpt>
      <trkpt lat="42.71321" lon="-0.05106">
        <ele>2207</ele>
        <time>2015-05-09T13:59:19Z</time>
      </trkpt>
      <trkpt lat="42.71319" lon="-0.05107">
        <ele>2207</ele>
        <time>2015-05-09T13:59:42Z</time>
      </trkpt>
      <trkpt lat="42.71319" lon="-0.05106">
        <ele>2207</ele>
        <time>2015-05-09T14:00:09Z</time>
      </trkpt>
      <trkpt lat="42.71318" lon="-0.05105">
        <ele>2208</ele>
        <time>2015-05-09T14:00:28Z</time>
      </trkpt>
      <trkpt lat="42.71316" lon="-0.05103">
        <ele>2207</ele>
        <time>2015-05-09T14:00:40Z</time>
      </trkpt>
      <trkpt lat="42.71317" lon="-0.05104">
        <ele>2207</ele>
        <time>2015-05-09T14:01:16Z</time>
      </trkpt>
      <trkpt lat="42.7132" lon="-0.05111">
        <ele>2207</ele>
        <time>2015-05-09T14:01:23Z</time>
      </trkpt>
      <trkpt lat="42.71319" lon="-0.0512">
        <ele>2207</ele>
        <time>2015-05-09T14:01:38Z</time>
      </trkpt>
      <trkpt lat="42.71318" lon="-0.0512">
        <ele>2207</ele>
        <time>2015-05-09T14:02:05Z</time>
      </trkpt>
      <trkpt lat="42.71319" lon="-0.05119">
        <ele>2207</ele>
        <time>2015-05-09T14:02:38Z</time>
      </trkpt>
      <trkpt lat="42.71319" lon="-0.0512">
        <ele>2207</ele>
        <time>2015-05-09T14:03:07Z</time>
      </trkpt>
      <trkpt lat="42.7132" lon="-0.05119">
        <ele>2207</ele>
        <time>2015-05-09T14:03:30Z</time>
      </trkpt>
      <trkpt lat="42.71329" lon="-0.05111">
        <ele>2207</ele>
        <time>2015-05-09T14:03:47Z</time>
      </trkpt>
      <trkpt lat="42.7134" lon="-0.05111">
        <ele>2208</ele>
        <time>2015-05-09T14:04:04Z</time>
      </trkpt>
      <trkpt lat="42.71347" lon="-0.05111">
        <ele>2209</ele>
        <time>2015-05-09T14:04:17Z</time>
      </trkpt>
      <trkpt lat="42.71349" lon="-0.05111">
        <ele>2209</ele>
        <time>2015-05-09T14:04:20Z</time>
      </trkpt>
      <trkpt lat="42.71353" lon="-0.05111">
        <ele>2209</ele>
        <time>2015-05-09T14:04:25Z</time>
      </trkpt>
      <trkpt lat="42.71355" lon="-0.05115">
        <ele>2209</ele>
        <time>2015-05-09T14:04:38Z</time>
      </trkpt>
      <trkpt lat="42.71354" lon="-0.05118">
        <ele>2209</ele>
        <time>2015-05-09T14:05:10Z</time>
      </trkpt>
      <trkpt lat="42.71353" lon="-0.05117">
        <ele>2209</ele>
        <time>2015-05-09T14:05:30Z</time>
      </trkpt>
      <trkpt lat="42.71354" lon="-0.05116">
        <ele>2208</ele>
        <time>2015-05-09T14:05:48Z</time>
      </trkpt>
      <trkpt lat="42.71355" lon="-0.05115">
        <ele>2207</ele>
        <time>2015-05-09T14:06:10Z</time>
      </trkpt>
      <trkpt lat="42.71355" lon="-0.05116">
        <ele>2207</ele>
        <time>2015-05-09T14:06:43Z</time>
      </trkpt>
      <trkpt lat="42.71356" lon="-0.05115">
        <ele>2207</ele>
        <time>2015-05-09T14:07:16Z</time>
      </trkpt>
      <trkpt lat="42.71356" lon="-0.05115">
        <ele>2208</ele>
        <time>2015-05-09T14:07:51Z</time>
      </trkpt>
      <trkpt lat="42.71357" lon="-0.05115">
        <ele>2207</ele>
        <time>2015-05-09T14:08:30Z</time>
      </trkpt>
      <trkpt lat="42.71356" lon="-0.05117">
        <ele>2208</ele>
        <time>2015-05-09T14:08:42Z</time>
      </trkpt>
      <trkpt lat="42.71355" lon="-0.05116">
        <ele>2208</ele>
        <time>2015-05-09T14:09:08Z</time>
      </trkpt>
      <trkpt lat="42.71355" lon="-0.05114">
        <ele>2208</ele>
        <time>2015-05-09T14:09:21Z</time>
      </trkpt>
      <trkpt lat="42.71355" lon="-0.05115">
        <ele>2208</ele>
        <time>2015-05-09T14:09:41Z</time>
      </trkpt>
      <trkpt lat="42.71357" lon="-0.05116">
        <ele>2209</ele>
        <time>2015-05-09T14:09:58Z</time>
      </trkpt>
      <trkpt lat="42.71358" lon="-0.05116">
        <ele>2209</ele>
        <time>2015-05-09T14:10:02Z</time>
      </trkpt>
      <trkpt lat="42.71381" lon="-0.05124">
        <ele>2208</ele>
        <time>2015-05-09T14:10:19Z</time>
      </trkpt>
      <trkpt lat="42.7139" lon="-0.05132">
        <ele>2207</ele>
        <time>2015-05-09T14:10:25Z</time>
      </trkpt>
      <trkpt lat="42.7141" lon="-0.05128">
        <ele>2203</ele>
        <time>2015-05-09T14:10:30Z</time>
      </trkpt>
      <trkpt lat="42.71425" lon="-0.05138">
        <ele>2200</ele>
        <time>2015-05-09T14:10:34Z</time>
      </trkpt>
      <trkpt lat="42.71428" lon="-0.05138">
        <ele>2200</ele>
        <time>2015-05-09T14:10:35Z</time>
      </trkpt>
      <trkpt lat="42.71445" lon="-0.05132">
        <ele>2197</ele>
        <time>2015-05-09T14:10:41Z</time>
      </trkpt>
      <trkpt lat="42.71451" lon="-0.05128">
        <ele>2195</ele>
        <time>2015-05-09T14:10:44Z</time>
      </trkpt>
      <trkpt lat="42.71461" lon="-0.05117">
        <ele>2193</ele>
        <time>2015-05-09T14:10:49Z</time>
      </trkpt>
      <trkpt lat="42.71475" lon="-0.05098">
        <ele>2190</ele>
        <time>2015-05-09T14:10:55Z</time>
      </trkpt>
      <trkpt lat="42.7148" lon="-0.05091">
        <ele>2188</ele>
        <time>2015-05-09T14:10:57Z</time>
      </trkpt>
      <trkpt lat="42.71499" lon="-0.05092">
        <ele>2183</ele>
        <time>2015-05-09T14:11:01Z</time>
      </trkpt>
      <trkpt lat="42.71512" lon="-0.05098">
        <ele>2179</ele>
        <time>2015-05-09T14:11:03Z</time>
      </trkpt>
      <trkpt lat="42.71523" lon="-0.05105">
        <ele>2176</ele>
        <time>2015-05-09T14:11:05Z</time>
      </trkpt>
      <trkpt lat="42.71528" lon="-0.05105">
        <ele>2175</ele>
        <time>2015-05-09T14:11:06Z</time>
      </trkpt>
      <trkpt lat="42.7154" lon="-0.05105">
        <ele>2172</ele>
        <time>2015-05-09T14:11:08Z</time>
      </trkpt>
      <trkpt lat="42.71565" lon="-0.051">
        <ele>2167</ele>
        <time>2015-05-09T14:11:12Z</time>
      </trkpt>
      <trkpt lat="42.71585" lon="-0.05091">
        <ele>2162</ele>
        <time>2015-05-09T14:11:16Z</time>
      </trkpt>
      <trkpt lat="42.71588" lon="-0.0509">
        <ele>2162</ele>
        <time>2015-05-09T14:11:17Z</time>
      </trkpt>
      <trkpt lat="42.71596" lon="-0.05093">
        <ele>2161</ele>
        <time>2015-05-09T14:11:25Z</time>
      </trkpt>
      <trkpt lat="42.71598" lon="-0.05094">
        <ele>2161</ele>
        <time>2015-05-09T14:11:41Z</time>
      </trkpt>
      <trkpt lat="42.71603" lon="-0.05091">
        <ele>2160</ele>
        <time>2015-05-09T14:11:58Z</time>
      </trkpt>
      <trkpt lat="42.7162" lon="-0.05086">
        <ele>2157</ele>
        <time>2015-05-09T14:12:02Z</time>
      </trkpt>
      <trkpt lat="42.71634" lon="-0.0508">
        <ele>2153</ele>
        <time>2015-05-09T14:12:05Z</time>
      </trkpt>
      <trkpt lat="42.71649" lon="-0.05072">
        <ele>2149</ele>
        <time>2015-05-09T14:12:08Z</time>
      </trkpt>
      <trkpt lat="42.71666" lon="-0.05064">
        <ele>2145</ele>
        <time>2015-05-09T14:12:11Z</time>
      </trkpt>
      <trkpt lat="42.71685" lon="-0.05057">
        <ele>2142</ele>
        <time>2015-05-09T14:12:15Z</time>
      </trkpt>
      <trkpt lat="42.71701" lon="-0.05049">
        <ele>2139</ele>
        <time>2015-05-09T14:12:23Z</time>
      </trkpt>
      <trkpt lat="42.71707" lon="-0.05049">
        <ele>2139</ele>
        <time>2015-05-09T14:12:36Z</time>
      </trkpt>
      <trkpt lat="42.71712" lon="-0.05053">
        <ele>2136</ele>
        <time>2015-05-09T14:12:38Z</time>
      </trkpt>
      <trkpt lat="42.71717" lon="-0.0506">
        <ele>2133</ele>
        <time>2015-05-09T14:12:40Z</time>
      </trkpt>
      <trkpt lat="42.71724" lon="-0.05056">
        <ele>2129</ele>
        <time>2015-05-09T14:12:42Z</time>
      </trkpt>
      <trkpt lat="42.71732" lon="-0.05051">
        <ele>2127</ele>
        <time>2015-05-09T14:12:45Z</time>
      </trkpt>
      <trkpt lat="42.71735" lon="-0.05054">
        <ele>2124</ele>
        <time>2015-05-09T14:12:46Z</time>
      </trkpt>
      <trkpt lat="42.71739" lon="-0.05056">
        <ele>2120</ele>
        <time>2015-05-09T14:12:48Z</time>
      </trkpt>
      <trkpt lat="42.71743" lon="-0.05052">
        <ele>2117</ele>
        <time>2015-05-09T14:12:49Z</time>
      </trkpt>
      <trkpt lat="42.71755" lon="-0.05039">
        <ele>2113</ele>
        <time>2015-05-09T14:12:52Z</time>
      </trkpt>
      <trkpt lat="42.71767" lon="-0.05026">
        <ele>2109</ele>
        <time>2015-05-09T14:12:55Z</time>
      </trkpt>
      <trkpt lat="42.71778" lon="-0.05014">
        <ele>2106</ele>
        <time>2015-05-09T14:12:58Z</time>
      </trkpt>
      <trkpt lat="42.71788" lon="-0.05003">
        <ele>2103</ele>
        <time>2015-05-09T14:13:01Z</time>
      </trkpt>
      <trkpt lat="42.71794" lon="-0.05004">
        <ele>2099</ele>
        <time>2015-05-09T14:13:03Z</time>
      </trkpt>
      <trkpt lat="42.71802" lon="-0.04998">
        <ele>2092</ele>
        <time>2015-05-09T14:13:06Z</time>
      </trkpt>
      <trkpt lat="42.71803" lon="-0.04994">
        <ele>2091</ele>
        <time>2015-05-09T14:13:08Z</time>
      </trkpt>
      <trkpt lat="42.71804" lon="-0.04993">
        <ele>2092</ele>
        <time>2015-05-09T14:13:13Z</time>
      </trkpt>
      <trkpt lat="42.71809" lon="-0.04985">
        <ele>2091</ele>
        <time>2015-05-09T14:13:16Z</time>
      </trkpt>
      <trkpt lat="42.71816" lon="-0.04971">
        <ele>2088</ele>
        <time>2015-05-09T14:13:19Z</time>
      </trkpt>
      <trkpt lat="42.71826" lon="-0.04953">
        <ele>2084</ele>
        <time>2015-05-09T14:13:23Z</time>
      </trkpt>
      <trkpt lat="42.71837" lon="-0.04954">
        <ele>2078</ele>
        <time>2015-05-09T14:13:26Z</time>
      </trkpt>
      <trkpt lat="42.71844" lon="-0.0495">
        <ele>2072</ele>
        <time>2015-05-09T14:13:29Z</time>
      </trkpt>
      <trkpt lat="42.71847" lon="-0.04942">
        <ele>2070</ele>
        <time>2015-05-09T14:13:31Z</time>
      </trkpt>
      <trkpt lat="42.71855" lon="-0.04935">
        <ele>2066</ele>
        <time>2015-05-09T14:13:33Z</time>
      </trkpt>
      <trkpt lat="42.71863" lon="-0.04941">
        <ele>2063</ele>
        <time>2015-05-09T14:13:35Z</time>
      </trkpt>
      <trkpt lat="42.71875" lon="-0.04933">
        <ele>2059</ele>
        <time>2015-05-09T14:13:37Z</time>
      </trkpt>
      <trkpt lat="42.71887" lon="-0.0492">
        <ele>2057</ele>
        <time>2015-05-09T14:13:39Z</time>
      </trkpt>
      <trkpt lat="42.71905" lon="-0.04891">
        <ele>2052</ele>
        <time>2015-05-09T14:13:44Z</time>
      </trkpt>
      <trkpt lat="42.71911" lon="-0.04879">
        <ele>2050</ele>
        <time>2015-05-09T14:13:46Z</time>
      </trkpt>
      <trkpt lat="42.71927" lon="-0.04873">
        <ele>2044</ele>
        <time>2015-05-09T14:13:49Z</time>
      </trkpt>
      <trkpt lat="42.71939" lon="-0.04873">
        <ele>2040</ele>
        <time>2015-05-09T14:13:51Z</time>
      </trkpt>
      <trkpt lat="42.71951" lon="-0.04866">
        <ele>2035</ele>
        <time>2015-05-09T14:13:53Z</time>
      </trkpt>
      <trkpt lat="42.71955" lon="-0.04856">
        <ele>2029</ele>
        <time>2015-05-09T14:13:58Z</time>
      </trkpt>
      <trkpt lat="42.71957" lon="-0.04859">
        <ele>2027</ele>
        <time>2015-05-09T14:13:59Z</time>
      </trkpt>
      <trkpt lat="42.71963" lon="-0.04864">
        <ele>2023</ele>
        <time>2015-05-09T14:14:01Z</time>
      </trkpt>
      <trkpt lat="42.71974" lon="-0.04858">
        <ele>2020</ele>
        <time>2015-05-09T14:14:04Z</time>
      </trkpt>
      <trkpt lat="42.72006" lon="-0.04845">
        <ele>2016</ele>
        <time>2015-05-09T14:14:12Z</time>
      </trkpt>
      <trkpt lat="42.72039" lon="-0.04831">
        <ele>2015</ele>
        <time>2015-05-09T14:14:26Z</time>
      </trkpt>
      <trkpt lat="42.72061" lon="-0.048">
        <ele>2012</ele>
        <time>2015-05-09T14:14:36Z</time>
      </trkpt>
      <trkpt lat="42.72078" lon="-0.04757">
        <ele>2009</ele>
        <time>2015-05-09T14:14:50Z</time>
      </trkpt>
      <trkpt lat="42.72082" lon="-0.04747">
        <ele>2010</ele>
        <time>2015-05-09T14:14:55Z</time>
      </trkpt>
      <trkpt lat="42.72093" lon="-0.04726">
        <ele>2008</ele>
        <time>2015-05-09T14:15:03Z</time>
      </trkpt>
      <trkpt lat="42.721" lon="-0.04721">
        <ele>2007</ele>
        <time>2015-05-09T14:15:05Z</time>
      </trkpt>
      <trkpt lat="42.72131" lon="-0.04708">
        <ele>2005</ele>
        <time>2015-05-09T14:15:14Z</time>
      </trkpt>
      <trkpt lat="42.7214" lon="-0.04706">
        <ele>2005</ele>
        <time>2015-05-09T14:15:17Z</time>
      </trkpt>
      <trkpt lat="42.72156" lon="-0.04703">
        <ele>2004</ele>
        <time>2015-05-09T14:15:23Z</time>
      </trkpt>
      <trkpt lat="42.72189" lon="-0.04679">
        <ele>2003</ele>
        <time>2015-05-09T14:15:39Z</time>
      </trkpt>
      <trkpt lat="42.72204" lon="-0.04654">
        <ele>2000</ele>
        <time>2015-05-09T14:15:46Z</time>
      </trkpt>
      <trkpt lat="42.72207" lon="-0.04651">
        <ele>2000</ele>
        <time>2015-05-09T14:15:47Z</time>
      </trkpt>
      <trkpt lat="42.72239" lon="-0.04604">
        <ele>1996</ele>
        <time>2015-05-09T14:16:01Z</time>
      </trkpt>
      <trkpt lat="42.72274" lon="-0.04575">
        <ele>1994</ele>
        <time>2015-05-09T14:16:16Z</time>
      </trkpt>
      <trkpt lat="42.72276" lon="-0.04574">
        <ele>1994</ele>
        <time>2015-05-09T14:16:17Z</time>
      </trkpt>
      <trkpt lat="42.72282" lon="-0.04569">
        <ele>1994</ele>
        <time>2015-05-09T14:16:21Z</time>
      </trkpt>
      <trkpt lat="42.72284" lon="-0.04566">
        <ele>1994</ele>
        <time>2015-05-09T14:16:23Z</time>
      </trkpt>
      <trkpt lat="42.72288" lon="-0.04556">
        <ele>1994</ele>
        <time>2015-05-09T14:16:28Z</time>
      </trkpt>
      <trkpt lat="42.72318" lon="-0.04509">
        <ele>1991</ele>
        <time>2015-05-09T14:16:44Z</time>
      </trkpt>
      <trkpt lat="42.72327" lon="-0.04486">
        <ele>1989</ele>
        <time>2015-05-09T14:16:50Z</time>
      </trkpt>
      <trkpt lat="42.72329" lon="-0.04466">
        <ele>1986</ele>
        <time>2015-05-09T14:17:00Z</time>
      </trkpt>
      <trkpt lat="42.72332" lon="-0.04462">
        <ele>1986</ele>
        <time>2015-05-09T14:17:12Z</time>
      </trkpt>
      <trkpt lat="42.72335" lon="-0.04455">
        <ele>1985</ele>
        <time>2015-05-09T14:17:24Z</time>
      </trkpt>
      <trkpt lat="42.7234" lon="-0.0445">
        <ele>1984</ele>
        <time>2015-05-09T14:17:38Z</time>
      </trkpt>
      <trkpt lat="42.72345" lon="-0.04449">
        <ele>1984</ele>
        <time>2015-05-09T14:17:45Z</time>
      </trkpt>
      <trkpt lat="42.72347" lon="-0.04448">
        <ele>1983</ele>
        <time>2015-05-09T14:17:48Z</time>
      </trkpt>
      <trkpt lat="42.7236" lon="-0.04408">
        <ele>1982</ele>
        <time>2015-05-09T14:18:03Z</time>
      </trkpt>
      <trkpt lat="42.72369" lon="-0.04396">
        <ele>1981</ele>
        <time>2015-05-09T14:18:07Z</time>
      </trkpt>
      <trkpt lat="42.72399" lon="-0.04356">
        <ele>1977</ele>
        <time>2015-05-09T14:18:19Z</time>
      </trkpt>
      <trkpt lat="42.72412" lon="-0.04339">
        <ele>1976</ele>
        <time>2015-05-09T14:18:24Z</time>
      </trkpt>
      <trkpt lat="42.72417" lon="-0.04341">
        <ele>1973</ele>
        <time>2015-05-09T14:18:33Z</time>
      </trkpt>
      <trkpt lat="42.72417" lon="-0.04347">
        <ele>1973</ele>
        <time>2015-05-09T14:18:45Z</time>
      </trkpt>
      <trkpt lat="42.72417" lon="-0.0435">
        <ele>1973</ele>
        <time>2015-05-09T14:18:54Z</time>
      </trkpt>
      <trkpt lat="42.72433" lon="-0.04354">
        <ele>1971</ele>
        <time>2015-05-09T14:19:01Z</time>
      </trkpt>
      <trkpt lat="42.72437" lon="-0.04354">
        <ele>1970</ele>
        <time>2015-05-09T14:19:02Z</time>
      </trkpt>
      <trkpt lat="42.72453" lon="-0.04354">
        <ele>1966</ele>
        <time>2015-05-09T14:19:06Z</time>
      </trkpt>
      <trkpt lat="42.72462" lon="-0.04356">
        <ele>1963</ele>
        <time>2015-05-09T14:19:09Z</time>
      </trkpt>
      <trkpt lat="42.72476" lon="-0.0436">
        <ele>1959</ele>
        <time>2015-05-09T14:19:14Z</time>
      </trkpt>
      <trkpt lat="42.72486" lon="-0.04349">
        <ele>1957</ele>
        <time>2015-05-09T14:19:27Z</time>
      </trkpt>
      <trkpt lat="42.72488" lon="-0.04349">
        <ele>1957</ele>
        <time>2015-05-09T14:19:29Z</time>
      </trkpt>
      <trkpt lat="42.72502" lon="-0.0434">
        <ele>1954</ele>
        <time>2015-05-09T14:19:37Z</time>
      </trkpt>
      <trkpt lat="42.72504" lon="-0.04339">
        <ele>1954</ele>
        <time>2015-05-09T14:19:38Z</time>
      </trkpt>
      <trkpt lat="42.72505" lon="-0.04339">
        <ele>1954</ele>
        <time>2015-05-09T14:19:39Z</time>
      </trkpt>
      <trkpt lat="42.7251" lon="-0.04325">
        <ele>1953</ele>
        <time>2015-05-09T14:19:52Z</time>
      </trkpt>
      <trkpt lat="42.72511" lon="-0.0432">
        <ele>1952</ele>
        <time>2015-05-09T14:19:57Z</time>
      </trkpt>
      <trkpt lat="42.72511" lon="-0.04319">
        <ele>1952</ele>
        <time>2015-05-09T14:19:59Z</time>
      </trkpt>
      <trkpt lat="42.72517" lon="-0.04308">
        <ele>1952</ele>
        <time>2015-05-09T14:20:13Z</time>
      </trkpt>
      <trkpt lat="42.72521" lon="-0.04298">
        <ele>1951</ele>
        <time>2015-05-09T14:20:25Z</time>
      </trkpt>
      <trkpt lat="42.72529" lon="-0.04289">
        <ele>1951</ele>
        <time>2015-05-09T14:20:34Z</time>
      </trkpt>
      <trkpt lat="42.72529" lon="-0.04287">
        <ele>1950</ele>
        <time>2015-05-09T14:20:36Z</time>
      </trkpt>
      <trkpt lat="42.72546" lon="-0.04275">
        <ele>1949</ele>
        <time>2015-05-09T14:20:47Z</time>
      </trkpt>
      <trkpt lat="42.72548" lon="-0.04268">
        <ele>1950</ele>
        <time>2015-05-09T14:21:00Z</time>
      </trkpt>
      <trkpt lat="42.72548" lon="-0.04267">
        <ele>1950</ele>
        <time>2015-05-09T14:21:02Z</time>
      </trkpt>
      <trkpt lat="42.72552" lon="-0.04253">
        <ele>1949</ele>
        <time>2015-05-09T14:21:15Z</time>
      </trkpt>
      <trkpt lat="42.72552" lon="-0.04252">
        <ele>1949</ele>
        <time>2015-05-09T14:21:17Z</time>
      </trkpt>
      <trkpt lat="42.72576" lon="-0.04228">
        <ele>1947</ele>
        <time>2015-05-09T14:21:34Z</time>
      </trkpt>
      <trkpt lat="42.72582" lon="-0.04214">
        <ele>1947</ele>
        <time>2015-05-09T14:21:48Z</time>
      </trkpt>
      <trkpt lat="42.72589" lon="-0.04203">
        <ele>1947</ele>
        <time>2015-05-09T14:22:00Z</time>
      </trkpt>
      <trkpt lat="42.7259" lon="-0.042">
        <ele>1947</ele>
        <time>2015-05-09T14:22:04Z</time>
      </trkpt>
      <trkpt lat="42.72592" lon="-0.0419">
        <ele>1947</ele>
        <time>2015-05-09T14:22:17Z</time>
      </trkpt>
      <trkpt lat="42.72591" lon="-0.04185">
        <ele>1947</ele>
        <time>2015-05-09T14:22:23Z</time>
      </trkpt>
      <trkpt lat="42.72592" lon="-0.04176">
        <ele>1948</ele>
        <time>2015-05-09T14:22:35Z</time>
      </trkpt>
      <trkpt lat="42.72592" lon="-0.04166">
        <ele>1948</ele>
        <time>2015-05-09T14:22:46Z</time>
      </trkpt>
      <trkpt lat="42.72596" lon="-0.04162">
        <ele>1949</ele>
        <time>2015-05-09T14:22:50Z</time>
      </trkpt>
      <trkpt lat="42.72619" lon="-0.04137">
        <ele>1947</ele>
        <time>2015-05-09T14:23:06Z</time>
      </trkpt>
      <trkpt lat="42.72641" lon="-0.04123">
        <ele>1944</ele>
        <time>2015-05-09T14:23:17Z</time>
      </trkpt>
      <trkpt lat="42.72642" lon="-0.04121">
        <ele>1944</ele>
        <time>2015-05-09T14:23:18Z</time>
      </trkpt>
      <trkpt lat="42.72662" lon="-0.04112">
        <ele>1941</ele>
        <time>2015-05-09T14:23:28Z</time>
      </trkpt>
      <trkpt lat="42.72666" lon="-0.04114">
        <ele>1942</ele>
        <time>2015-05-09T14:23:45Z</time>
      </trkpt>
      <trkpt lat="42.72665" lon="-0.04113">
        <ele>1942</ele>
        <time>2015-05-09T14:24:03Z</time>
      </trkpt>
      <trkpt lat="42.72667" lon="-0.04114">
        <ele>1942</ele>
        <time>2015-05-09T14:24:22Z</time>
      </trkpt>
      <trkpt lat="42.72668" lon="-0.04114">
        <ele>1942</ele>
        <time>2015-05-09T14:24:23Z</time>
      </trkpt>
      <trkpt lat="42.72673" lon="-0.04111">
        <ele>1941</ele>
        <time>2015-05-09T14:24:28Z</time>
      </trkpt>
      <trkpt lat="42.72674" lon="-0.04109">
        <ele>1940</ele>
        <time>2015-05-09T14:24:30Z</time>
      </trkpt>
      <trkpt lat="42.72677" lon="-0.04104">
        <ele>1940</ele>
        <time>2015-05-09T14:24:35Z</time>
      </trkpt>
      <trkpt lat="42.72683" lon="-0.041">
        <ele>1938</ele>
        <time>2015-05-09T14:24:39Z</time>
      </trkpt>
      <trkpt lat="42.72686" lon="-0.04097">
        <ele>1937</ele>
        <time>2015-05-09T14:24:43Z</time>
      </trkpt>
      <trkpt lat="42.72689" lon="-0.04097">
        <ele>1937</ele>
        <time>2015-05-09T14:24:45Z</time>
      </trkpt>
      <trkpt lat="42.72696" lon="-0.04091">
        <ele>1934</ele>
        <time>2015-05-09T14:24:53Z</time>
      </trkpt>
      <trkpt lat="42.72699" lon="-0.04092">
        <ele>1934</ele>
        <time>2015-05-09T14:24:56Z</time>
      </trkpt>
      <trkpt lat="42.727" lon="-0.04092">
        <ele>1933</ele>
        <time>2015-05-09T14:24:59Z</time>
      </trkpt>
      <trkpt lat="42.72705" lon="-0.04092">
        <ele>1932</ele>
        <time>2015-05-09T14:25:04Z</time>
      </trkpt>
      <trkpt lat="42.72715" lon="-0.04096">
        <ele>1931</ele>
        <time>2015-05-09T14:25:14Z</time>
      </trkpt>
      <trkpt lat="42.72722" lon="-0.04098">
        <ele>1929</ele>
        <time>2015-05-09T14:25:28Z</time>
      </trkpt>
      <trkpt lat="42.72724" lon="-0.041">
        <ele>1929</ele>
        <time>2015-05-09T14:25:41Z</time>
      </trkpt>
      <trkpt lat="42.72726" lon="-0.04098">
        <ele>1929</ele>
        <time>2015-05-09T14:26:02Z</time>
      </trkpt>
      <trkpt lat="42.72726" lon="-0.04098">
        <ele>1930</ele>
        <time>2015-05-09T14:26:19Z</time>
      </trkpt>
      <trkpt lat="42.72725" lon="-0.04098">
        <ele>1929</ele>
        <time>2015-05-09T14:26:34Z</time>
      </trkpt>
      <trkpt lat="42.72725" lon="-0.04098">
        <ele>1929</ele>
        <time>2015-05-09T14:26:52Z</time>
      </trkpt>
      <trkpt lat="42.72725" lon="-0.04097">
        <ele>1929</ele>
        <time>2015-05-09T14:27:11Z</time>
      </trkpt>
      <trkpt lat="42.72725" lon="-0.04098">
        <ele>1929</ele>
        <time>2015-05-09T14:27:25Z</time>
      </trkpt>
      <trkpt lat="42.72727" lon="-0.04102">
        <ele>1929</ele>
        <time>2015-05-09T14:27:43Z</time>
      </trkpt>
      <trkpt lat="42.72725" lon="-0.04102">
        <ele>1928</ele>
        <time>2015-05-09T14:27:53Z</time>
      </trkpt>
      <trkpt lat="42.72725" lon="-0.04102">
        <ele>1928</ele>
        <time>2015-05-09T14:28:29Z</time>
      </trkpt>
      <trkpt lat="42.72726" lon="-0.04102">
        <ele>1928</ele>
        <time>2015-05-09T14:29:04Z</time>
      </trkpt>
      <trkpt lat="42.72724" lon="-0.04101">
        <ele>1928</ele>
        <time>2015-05-09T14:29:40Z</time>
      </trkpt>
      <trkpt lat="42.72726" lon="-0.04101">
        <ele>1927</ele>
        <time>2015-05-09T14:30:09Z</time>
      </trkpt>
      <trkpt lat="42.72724" lon="-0.041">
        <ele>1927</ele>
        <time>2015-05-09T14:30:41Z</time>
      </trkpt>
      <trkpt lat="42.72726" lon="-0.04102">
        <ele>1927</ele>
        <time>2015-05-09T14:30:59Z</time>
      </trkpt>
      <trkpt lat="42.72725" lon="-0.04102">
        <ele>1927</ele>
        <time>2015-05-09T14:31:27Z</time>
      </trkpt>
      <trkpt lat="42.72727" lon="-0.04102">
        <ele>1927</ele>
        <time>2015-05-09T14:32:04Z</time>
      </trkpt>
      <trkpt lat="42.72726" lon="-0.04104">
        <ele>1930</ele>
        <time>2015-05-09T14:32:16Z</time>
      </trkpt>
      <trkpt lat="42.72726" lon="-0.04106">
        <ele>1927</ele>
        <time>2015-05-09T14:32:18Z</time>
      </trkpt>
    </trkseg>
  </trk>
</gpx>